[[{"header":{"parameterUnit":"m.s-1","parameterCategory":1,"la1":30.6,"la2":28.766,"lo1":-90.7593,"lo2":-88.6598,"dy":0.0162,"dx":0.0183,"nx":116,"ny":114,"refTime":"2023-09-15T18:00:00:Z","depth":0,"parameterNumber":2,"parameterNumberName":"U-component_of_WINDS"},"data":[0.0,0.0,0.0,0.0,0.0,0.0,0.0,0.0,0.0,0.0,0.0,0.0,0.0,0.0,0.0,0.0,0.0,0.0,0.0,0.0,0.0,0.0,0.0,0.0,0.0,0.0,0.0,0.0,0.0,0.0,0.0,0.0,0.0,0.0,0.0,0.0,0.0,0.0,0.0,0.0,0.0,0.0,0.0,0.0,0.0,0.0,0.0,0.0,0.0,0.0,0.0,0.0,0.0,0.0,0.0,0.0,0.0,0.0,0.0,0.0,0.0,0.0,0.0,0.0,0.0,0.0,0.0,0.0,0.0,0.0,0.0,0.0,0.0,0.0,0.0,0.0,0.0,0.0,0.0,0.0,0.0,0.0,0.0,0.0,0.0,0.0,0.0,0.0,0.0,0.0,0.0,0.0,0.0,0.0,0.0,0.0,0.0,0.0,0.0,0.0,0.0,0.0,0.0,0.0,0.0,0.0,0.0,0.0,0.0,0.0,0.0,0.0,0.0,0.0,0.0,0.0,0.0,0.0,0.0,0.0,0.0,0.0,0.0,0.0,0.0,0.0,0.0,0.0,0.0,0.0,0.0,0.0,0.0,0.0,0.0,0.0,0.0,0.0,0.0,0.0,0.0,0.0,0.0,0.0,0.0,0.0,0.0,0.0,0.0,0.0,0.0,0.0,0.0,0.0,0.0,0.0,0.0,0.0,0.0,0.0,0.0,0.0,0.0,0.0,0.0,0.0,0.0,0.0,0.0,0.0,0.0,0.0,0.0,0.0,0.0,0.0,0.0,0.0,0.0,0.0,0.0,0.0,0.0,0.0,0.0,0.0,0.0,0.0,0.0,0.0,0.0,0.0,0.0,0.0,0.0,0.0,0.0,0.0,0.0,0.0,0.0,0.0,0.0,0.0,0.0,0.0,0.0,0.0,0.0,0.0,0.0,0.0,0.0,0.0,0.0,0.0,0.0,0.0,0.0,0.0,0.0,0.0,0.0,0.0,0.0,0.0,0.0,0.0,0.0,0.0,0.0,0.0,0.0,0.0,0.0,0.0,0.0,0.0,0.0,0.0,0.0,0.0,0.0,0.0,0.0,0.0,0.0,0.0,0.0,0.0,0.0,0.0,0.0,0.0,0.0,0.0,0.0,0.0,0.0,0.0,0.0,0.0,0.0,0.0,0.0,0.0,0.0,0.0,0.0,0.0,0.0,0.0,0.0,0.0,0.0,0.0,0.0,0.0,0.0,0.0,0.0,0.0,0.0,0.0,0.0,0.0,0.0,0.0,0.0,0.0,0.0,0.0,0.0,0.0,0.0,0.0,0.0,0.0,0.0,0.0,0.0,0.0,0.0,0.0,0.0,0.0,0.0,0.0,0.0,0.0,0.0,0.0,0.0,0.0,0.0,0.0,0.0,0.0,0.0,0.0,0.0,0.0,0.0,0.0,0.0,0.0,0.0,0.0,0.0,0.0,0.0,0.0,0.0,0.0,0.0,0.0,0.0,0.0,0.0,0.0,0.0,0.0,0.0,0.0,0.0,0.0,0.0,0.0,0.0,0.0,0.0,0.0,0.0,0.0,0.0,0.0,0.0,0.0,0.0,0.0,0.0,0.0,0.0,0.0,0.0,0.0,0.0,0.0,0.0,0.0,0.0,0.0,0.0,0.0,0.0,0.0,0.0,0.0,0.0,0.0,0.0,0.0,0.0,0.0,0.0,0.0,0.0,0.0,0.0,0.0,0.0,0.0,0.0,0.0,0.0,0.0,0.0,0.0,0.0,0.0,0.0,0.0,0.0,0.0,0.0,0.0,0.0,0.0,0.0,0.0,0.0,0.0,0.0,0.0,0.0,0.0,0.0,0.0,0.0,0.0,0.0,0.0,0.0,0.0,0.0,0.0,0.0,0.0,0.0,0.0,0.0,0.0,0.0,0.0,0.0,0.0,0.0,0.0,0.0,0.0,0.0,0.0,0.0,0.0,0.0,0.0,0.0,0.0,0.0,0.0,0.0,0.0,0.0,0.0,0.0,0.0,0.0,0.0,0.0,0.0,0.0,0.0,0.0,0.0,0.0,0.0,0.0,0.0,0.0,0.0,0.0,0.0,0.0,0.0,0.0,0.0,0.0,0.0,0.0,0.0,0.0,0.0,0.0,0.0,0.0,0.0,0.0,0.0,0.0,0.0,0.0,0.0,0.0,0.0,0.0,0.0,0.0,0.0,0.0,0.0,0.0,0.0,0.0,0.0,0.0,0.0,0.0,0.0,0.0,0.0,0.0,0.0,0.0,0.0,0.0,0.0,0.0,0.0,0.0,0.0,0.0,0.0,0.0,0.0,0.0,0.0,0.0,0.0,0.0,0.0,0.0,0.0,0.0,0.0,0.0,0.0,0.0,0.0,0.0,0.0,0.0,0.0,0.0,0.0,0.0,0.0,0.0,0.0,0.0,0.0,0.0,0.0,0.0,0.0,0.0,0.0,0.0,0.0,0.0,0.0,0.0,0.0,0.0,0.0,0.0,0.0,0.0,0.0,0.0,0.0,0.0,0.0,0.0,0.0,0.0,0.0,0.0,0.0,0.0,0.0,0.0,0.0,0.0,0.0,0.0,0.0,0.0,0.0,0.0,0.0,0.0,0.0,0.0,0.0,0.0,0.0,0.0,0.0,0.0,0.0,0.0,0.0,0.0,0.0,0.0,0.0,0.0,0.0,0.0,0.0,0.0,0.0,0.0,0.0,0.0,0.0,0.0,0.0,0.0,0.0,0.0,0.0,0.0,0.0,0.0,0.0,0.0,0.0,0.0,0.0,0.0,0.0,0.0,0.0,0.0,0.0,0.0,0.0,0.0,0.0,0.0,0.0,0.0,0.0,0.0,0.0,0.0,0.0,0.0,0.0,0.0,0.0,0.0,0.0,0.0,0.0,0.0,0.0,0.0,0.0,0.0,0.0,0.0,0.0,0.0,0.0,0.0,0.0,0.0,0.0,0.0,0.0,0.0,0.0,0.0,0.0,0.0,0.0,0.0,0.0,0.0,0.0,0.0,0.0,0.0,0.0,0.0,0.0,0.0,0.0,0.0,0.0,0.0,0.0,0.0,0.0,0.0,0.0,0.0,0.0,0.0,0.0,0.0,0.0,0.0,0.0,0.0,0.0,0.0,0.0,0.0,0.0,0.0,0.0,0.0,0.0,0.0,0.0,0.0,0.0,0.0,0.0,0.0,0.0,0.0,0.0,0.0,0.0,0.0,0.0,0.0,0.0,0.0,0.0,0.0,0.0,0.0,0.0,0.0,0.0,0.0,0.0,0.0,0.0,0.0,0.0,0.0,0.0,0.0,0.0,0.0,0.0,0.0,0.0,0.0,0.0,0.0,0.0,0.0,0.0,0.0,0.0,0.0,0.0,0.0,0.0,0.0,0.0,0.0,0.0,0.0,0.0,0.0,0.0,0.0,0.0,0.0,0.0,0.0,0.0,0.0,0.0,0.0,0.0,0.0,0.0,0.0,0.0,0.0,0.0,0.0,0.0,0.0,0.0,0.0,0.0,0.0,0.0,0.0,0.0,0.0,0.0,0.0,0.0,0.0,0.0,0.0,0.0,0.0,0.0,0.0,0.0,0.0,0.0,0.0,0.0,0.0,0.0,0.0,0.0,0.0,0.0,0.0,0.0,0.0,0.0,0.0,0.0,0.0,0.0,0.0,0.0,0.0,0.0,0.0,0.0,0.0,0.0,0.0,0.0,0.0,0.0,0.0,0.0,0.0,0.0,0.0,0.0,0.0,0.0,0.0,0.0,0.0,0.0,0.0,0.0,0.0,0.0,0.0,0.0,0.0,0.0,0.0,0.0,0.0,0.0,0.0,0.0,0.0,0.0,0.0,0.0,0.0,0.0,0.0,0.0,0.0,0.0,0.0,0.0,0.0,0.0,0.0,0.0,0.0,0.0,0.0,0.0,0.0,0.0,0.0,0.0,0.0,0.0,0.0,0.0,0.0,0.0,0.0,0.0,0.0,0.0,0.0,0.0,0.0,0.0,0.0,0.0,0.0,0.0,0.0,0.0,0.0,0.0,0.0,0.0,0.0,0.0,0.0,0.0,0.0,0.0,0.0,0.0,0.0,0.0,0.0,0.0,0.0,0.0,0.0,0.0,0.0,0.0,0.0,0.0,0.0,0.0,0.0,0.0,0.0,0.0,0.0,0.0,0.0,0.0,0.0,0.0,0.0,0.0,0.0,0.0,0.0,0.0,0.0,0.0,0.0,0.0,0.0,0.0,0.0,0.0,0.0,0.0,0.0,0.0,0.0,0.0,0.0,0.0,0.0,0.0,0.0,0.0,0.0,0.0,0.0,0.0,0.0,0.0,0.0,0.0,0.0,0.0,0.0,0.0,0.0,0.0,0.0,0.0,0.0,0.0,0.0,0.0,0.0,0.0,0.0,0.0,0.0,0.0,0.0,0.0,0.0,0.0,0.0,0.0,0.0,0.0,0.0,0.0,0.0,0.0,0.0,0.0,0.0,0.0,0.0,0.0,0.0,0.0,0.0,0.0,0.0,0.0,0.0,0.0,0.0,0.0,0.0,0.0,0.0,0.0,0.0,0.0,0.0,0.0,0.0,0.0,0.0,0.0,0.0,0.0,0.0,0.0,0.0,0.0,0.0,0.0,0.0,0.0,0.0,0.0,0.0,0.0,0.0,0.0,0.0,0.0,0.0,0.0,0.0,0.0,0.0,0.0,0.0,0.0,0.0,0.0,0.0,0.0,0.0,0.0,0.0,0.0,0.0,0.0,0.0,0.0,0.0,0.0,0.0,0.0,0.0,0.0,0.0,0.0,0.0,0.0,0.0,0.0,0.0,0.0,0.0,0.0,0.0,0.0,0.0,0.0,0.0,0.0,0.0,0.0,0.0,0.0,0.0,0.0,0.0,0.0,0.0,0.0,0.0,0.0,0.0,0.0,0.0,0.0,0.0,0.0,0.0,0.0,0.0,0.0,0.0,0.0,0.0,0.0,0.0,0.0,0.0,0.0,0.0,0.0,0.0,0.0,0.0,0.0,0.0,0.0,0.0,0.0,0.0,0.0,0.0,0.0,0.0,0.0,0.0,0.0,0.0,0.0,0.0,0.0,0.0,0.0,0.0,0.0,0.0,0.0,0.0,0.0,0.0,0.0,0.0,0.0,0.0,0.0,0.0,0.0,0.0,0.0,0.0,0.0,0.0,0.0,0.0,0.0,0.0,0.0,0.0,0.0,0.0,0.0,0.0,0.0,0.0,0.0,0.0,0.0,0.0,0.0,0.0,0.0,0.0,0.0,0.0,0.0,0.0,0.0,0.0,0.0,0.0,0.0,0.0,0.0,0.0,0.0,0.0,0.0,0.0,0.0,0.0,0.0,0.0,0.0,0.0,0.0,0.0,0.0,0.0,0.0,0.0,0.0,0.0,0.0,0.0,0.0,0.0,0.0,0.0,0.0,0.0,0.0,0.0,0.0,0.0,0.0,0.0,0.0,0.0,0.0,0.0,0.0,0.0,0.0,0.0,0.0,0.0,0.0,0.0,0.0,0.0,0.0,0.0,0.0,0.0,0.0,0.0,0.0,0.0,0.0,0.0,0.0,0.0,0.0,0.0,0.0,0.0,0.0,0.0,0.0,0.0,0.0,0.0,0.0,0.0,0.0,0.0,0.0,0.0,0.0,0.0,0.0,0.0,0.0,0.0,0.0,0.0,0.0,0.0,0.0,0.0,0.0,0.0,0.0,0.0,0.0,0.0,0.0,0.0,0.0,0.0,0.0,0.0,0.0,0.0,0.0,0.0,0.0,0.0,0.0,0.0,0.0,0.0,0.0,0.0,0.0,0.0,0.0,0.0,0.0,0.0,0.0,0.0,0.0,0.0,0.0,0.0,0.0,0.0,0.0,0.0,0.0,0.0,0.0,0.0,0.0,0.0,0.0,0.0,0.0,0.0,0.0,0.0,0.0,0.0,0.0,0.0,0.0,0.0,0.0,0.0,0.0,0.0,0.0,0.0,0.0,0.0,0.0,0.0,0.0,0.0,0.0,0.0,0.0,0.0,0.0,0.0,0.0,0.0,0.0,0.0,0.0,0.0,0.0,0.0,0.0,0.0,0.0,0.0,0.0,3.9113,0.0,0.0,0.0,0.0,0.0,0.0,0.0,0.0,0.0,0.0,0.0,0.0,0.0,0.0,0.0,0.0,0.0,0.0,0.0,0.0,0.0,0.0,0.0,0.0,0.0,0.0,0.0,0.0,0.0,0.0,0.0,0.0,0.0,0.0,0.0,0.0,0.0,0.0,0.0,0.0,0.0,0.0,0.0,0.0,0.0,0.0,0.0,0.0,0.0,0.0,0.0,0.0,0.0,0.0,0.0,0.0,0.0,0.0,0.0,0.0,0.0,0.0,0.0,0.0,0.0,0.0,0.0,0.0,0.0,0.0,0.0,0.0,0.0,0.0,0.0,0.0,0.0,0.0,0.0,0.0,0.0,0.0,0.0,0.0,0.0,0.0,0.0,0.0,0.0,0.0,0.0,0.0,0.0,0.0,0.0,0.0,0.0,0.0,0.0,0.0,0.0,0.0,0.0,0.0,0.0,0.0,0.0,0.0,0.0,0.0,0.0,0.0,0.0,0.0,0.0,0.0,3.9704,0.0,0.0,0.0,0.0,0.0,0.0,0.0,0.0,0.0,0.0,0.0,0.0,0.0,0.0,0.0,0.0,0.0,0.0,0.0,0.0,0.0,0.0,0.0,0.0,0.0,0.0,0.0,0.0,0.0,0.0,0.0,0.0,0.0,0.0,0.0,0.0,0.0,0.0,0.0,0.0,0.0,0.0,0.0,0.0,0.0,0.0,0.0,0.0,0.0,0.0,0.0,0.0,0.0,0.0,0.0,0.0,0.0,0.0,0.0,0.0,0.0,0.0,0.0,0.0,0.0,0.0,0.0,0.0,0.0,0.0,0.0,0.0,0.0,0.0,0.0,0.0,0.0,0.0,0.0,0.0,0.0,0.0,0.0,0.0,0.0,0.0,0.0,0.0,0.0,0.0,0.0,0.0,0.0,0.0,0.0,0.0,0.0,0.0,0.0,0.0,0.0,0.0,0.0,0.0,0.0,0.0,0.0,0.0,3.8739,3.8831,3.8876,3.8848,3.8971,3.9219,3.9712,4.0224,4.0656,4.0077,0.0,0.0,0.0,0.0,0.0,0.0,0.0,0.0,0.0,0.0,0.0,0.0,0.0,0.0,0.0,0.0,0.0,0.0,0.0,0.0,0.0,0.0,0.0,0.0,0.0,0.0,0.0,0.0,0.0,0.0,0.0,0.0,0.0,0.0,0.0,0.0,0.0,0.0,2.9536,2.9712,2.9997,3.0384,3.1001,0.0,0.0,0.0,0.0,0.0,0.0,0.0,0.0,0.0,0.0,0.0,0.0,0.0,0.0,0.0,0.0,0.0,0.0,0.0,0.0,0.0,0.0,0.0,0.0,0.0,0.0,0.0,0.0,0.0,0.0,0.0,0.0,0.0,0.0,0.0,0.0,0.0,0.0,0.0,0.0,0.0,0.0,0.0,3.6037,3.6037,0.0,0.0,0.0,0.0,0.0,0.0,0.0,0.0,0.0,0.0,0.0,0.0,0.0,3.8231,3.8124,3.8554,3.8719,3.8618,3.9023,3.9333,3.9558,3.9447,3.9755,4.0374,4.0457,0.0,3.9964,4.0262,0.0,0.0,0.0,0.0,0.0,0.0,0.0,0.0,0.0,0.0,0.0,0.0,0.0,0.0,0.0,0.0,0.0,0.0,0.0,0.0,0.0,0.0,0.0,0.0,0.0,0.0,0.0,0.0,0.0,0.0,0.0,0.0,0.0,0.0,0.0,0.0,2.7842,2.8374,2.8985,2.9437,2.9647,2.9715,3.0587,3.1011,3.1106,3.1643,0.0,0.0,0.0,0.0,0.0,0.0,0.0,0.0,0.0,0.0,0.0,0.0,0.0,0.0,0.0,0.0,0.0,0.0,0.0,0.0,0.0,0.0,0.0,0.0,0.0,0.0,0.0,0.0,0.0,0.0,0.0,0.0,0.0,0.0,0.0,0.0,0.0,0.0,0.0,3.5433,3.5618,3.4541,3.536,3.5582,0.0,0.0,0.0,0.0,0.0,0.0,0.0,0.0,0.0,3.8261,3.8357,3.8492,3.8679,3.8956,3.9046,3.8999,3.9203,3.9365,3.9461,3.9412,3.9658,4.0112,4.0369,4.044,4.0381,4.0674,4.0646,4.0384,0.0,0.0,0.0,0.0,3.9806,3.9806,0.0,0.0,0.0,0.0,0.0,0.0,0.0,0.0,0.0,0.0,0.0,0.0,0.0,0.0,0.0,2.4105,0.0,0.0,0.0,0.0,0.0,0.0,0.0,0.0,0.0,0.0,0.0,0.0,2.7332,2.7873,2.8639,2.9172,2.9415,2.9417,3.0323,3.0723,3.0762,3.1562,3.2313,0.0,0.0,0.0,0.0,0.0,0.0,0.0,0.0,0.0,0.0,0.0,0.0,0.0,0.0,0.0,0.0,0.0,0.0,0.0,0.0,0.0,0.0,0.0,0.0,0.0,0.0,0.0,0.0,0.0,0.0,0.0,0.0,0.0,0.0,0.0,0.0,0.0,0.0,3.4992,3.524,3.3672,3.5023,3.5461,0.0,0.0,0.0,0.0,0.0,0.0,3.6911,3.7009,3.7331,3.7989,3.8243,3.8593,3.9044,3.9208,3.9299,3.9299,3.9299,3.9398,3.9574,3.9381,3.9551,3.9991,4.0153,4.0368,4.0637,4.0776,4.09,4.0941,4.0497,4.0388,4.0483,4.0366,4.0334,4.0397,0.0,0.0,0.0,0.0,0.0,0.0,0.0,0.0,0.0,0.0,0.0,0.0,0.0,0.0,2.3133,2.3175,2.316,2.316,0.0,0.0,0.0,0.0,0.0,0.0,0.0,0.0,0.0,2.5975,2.7124,2.8135,2.8964,2.8958,2.9375,3.0167,3.0402,3.052,3.0554,3.1103,3.1764,3.2473,0.0,0.0,0.0,0.0,0.0,0.0,0.0,0.0,0.0,0.0,0.0,0.0,0.0,0.0,0.0,0.0,0.0,0.0,0.0,0.0,0.0,0.0,0.0,0.0,0.0,0.0,0.0,0.0,0.0,0.0,0.0,0.0,0.0,0.0,0.0,0.0,0.0,0.0,0.0,3.4334,3.5452,0.0,0.0,0.0,0.0,3.5369,3.5301,3.5625,3.6485,3.6426,3.6699,3.7416,3.8003,3.8316,3.8358,3.8973,3.9299,3.9299,3.9299,3.9663,4.0319,3.9613,3.9834,4.0705,4.0031,3.9886,4.0158,4.0277,4.0607,4.0916,4.0141,4.0108,4.0452,3.9991,3.9885,3.9766,0.0,0.0,0.0,0.0,0.0,0.0,0.0,0.0,0.0,0.0,0.0,0.0,0.0,2.2433,2.2287,2.1846,2.221,2.2149,2.1405,0.0,0.0,0.0,0.0,0.0,0.0,0.0,2.5471,2.59,2.6679,2.7361,2.7972,2.8168,2.855,2.9147,3.0082,3.0503,3.0554,3.13,3.2043,3.2737,3.2984,3.3418,0.0,0.0,0.0,0.0,0.0,0.0,0.0,0.0,0.0,0.0,0.0,0.0,0.0,0.0,0.0,0.0,0.0,0.0,0.0,0.0,0.0,0.0,0.0,0.0,0.0,0.0,0.0,0.0,0.0,0.0,0.0,0.0,0.0,0.0,0.0,0.0,0.0,3.3915,3.5271,0.0,3.4276,3.4782,3.5263,3.5389,3.5728,3.6243,3.7048,3.7028,3.7131,3.7383,3.762,3.7713,3.7713,3.7953,3.8084,3.8084,3.8472,3.8799,3.9058,3.9223,3.9585,4.0042,3.9316,3.9133,3.9403,3.9443,4.002,4.0873,4.0898,4.1003,4.1075,4.0417,4.0193,4.0095,0.0,0.0,0.0,0.0,0.0,0.0,0.0,0.0,0.0,0.0,0.0,2.2587,2.1784,2.1935,2.1834,2.1155,2.1518,2.1369,2.0461,0.0,0.0,0.0,0.0,0.0,0.0,2.5007,2.5719,2.6174,2.6757,2.7266,2.772,2.8096,2.8434,2.8803,3.0218,3.0797,3.0764,3.1609,3.2266,3.2757,3.3077,3.3503,3.3942,0.0,0.0,0.0,0.0,0.0,0.0,0.0,0.0,0.0,0.0,0.0,0.0,0.0,0.0,0.0,0.0,0.0,0.0,0.0,0.0,0.0,0.0,0.0,0.0,0.0,0.0,0.0,0.0,0.0,0.0,0.0,0.0,0.0,0.0,0.0,3.4652,3.3621,3.5003,3.5454,3.3981,3.4728,3.5336,3.5431,3.5806,3.6234,3.6738,3.6753,3.6753,3.6753,3.6966,3.7064,3.7064,3.7288,3.7407,3.7391,3.7807,3.813,3.8377,3.8783,3.9081,3.9266,3.8805,3.8597,3.8561,3.8614,3.9093,3.9912,4.0891,4.1354,4.1394,4.0486,4.0,3.9628,0.0,0.0,0.0,0.0,0.0,0.0,0.0,0.0,0.0,0.0,2.2357,2.237,2.1055,2.1581,2.1772,2.11,2.1052,2.085,2.0354,2.035,0.0,0.0,0.0,0.0,2.4001,2.5769,2.6669,2.6678,2.7336,2.7877,2.8278,2.8742,2.9051,2.9276,3.0789,3.1333,3.114,3.1963,3.2356,3.2477,3.3285,3.3593,3.3663,0.0,0.0,0.0,0.0,0.0,0.0,0.0,0.0,0.0,0.0,0.0,0.0,0.0,0.0,0.0,0.0,0.0,0.0,0.0,0.0,0.0,0.0,0.0,0.0,0.0,0.0,0.0,0.0,0.0,0.0,0.0,0.0,0.0,3.2556,3.3632,3.4222,3.3587,3.4648,3.5185,3.4544,3.5059,3.5431,3.5431,3.5431,3.5431,3.5431,3.5455,3.5464,3.5464,3.6053,3.6368,3.6368,3.7011,3.7347,3.7347,3.7362,3.774,3.8433,3.8323,3.8365,3.8497,3.8545,3.8244,3.7736,3.7885,3.7927,3.8116,4.0004,4.1013,4.1276,4.0089,3.9163,3.8228,0.0,0.0,0.0,0.0,0.0,0.0,0.0,0.0,0.0,0.0,2.2265,2.1889,2.1135,2.0813,2.0376,1.9715,2.0088,1.9818,1.853,0.0,0.0,0.0,0.0,0.0,2.4578,2.5504,2.5995,2.6053,2.6671,2.7211,2.766,2.8035,2.856,2.9245,3.0298,3.0897,3.1164,3.2264,3.2759,3.2801,3.3273,3.3602,3.3914,0.0,0.0,0.0,0.0,0.0,0.0,0.0,0.0,0.0,0.0,0.0,0.0,0.0,0.0,0.0,0.0,0.0,0.0,0.0,0.0,0.0,0.0,0.0,0.0,0.0,0.0,0.0,0.0,0.0,0.0,0.0,0.0,3.2919,3.2357,3.2977,3.3599,3.3911,3.3879,3.3931,3.4185,3.3979,3.3831,3.3831,3.3831,3.3831,3.3831,3.435,3.4627,3.4627,3.5355,3.5749,3.5749,3.5926,3.6029,3.6037,3.6469,3.6778,3.6994,3.7441,3.7958,3.8476,3.8066,3.811,3.8521,3.8645,3.87,3.8753,3.9295,3.9576,3.9582,3.871,3.7557,3.635,0.0,0.0,0.0,0.0,0.0,0.0,0.0,0.0,0.0,0.0,2.2388,2.2063,2.1195,2.1001,2.0553,1.96,1.9692,1.9208,1.7797,0.0,0.0,0.0,0.0,2.4537,2.5118,2.5772,2.6252,2.6553,2.6673,2.7102,2.7794,2.8186,2.8768,2.9525,3.0488,3.1094,3.1466,3.262,3.3207,3.3409,3.3912,3.3989,3.3877,3.4493,3.4703,3.4702,3.4902,3.4759,3.4485,3.4644,0.0,0.0,0.0,0.0,0.0,0.0,0.0,0.0,0.0,0.0,0.0,0.0,0.0,0.0,0.0,0.0,0.0,0.0,0.0,0.0,0.0,0.0,0.0,0.0,3.3079,3.345,3.2541,3.3052,3.3662,3.4048,3.3566,3.335,3.3692,3.3412,3.3196,3.3196,3.3196,3.3196,3.3196,3.3613,3.3982,3.4295,3.4758,3.5157,3.5496,3.5496,3.5496,3.5504,3.5869,3.6022,3.6045,3.6685,3.704,0.0,3.7467,3.7699,3.7846,3.8013,3.825,0.0,0.0,0.0,0.0,0.0,3.6924,3.5656,0.0,0.0,0.0,0.0,0.0,0.0,0.0,0.0,0.0,0.0,0.0,2.2529,2.1345,2.1612,2.1421,2.0229,1.969,1.9014,0.0,0.0,0.0,2.2406,2.3915,2.4982,2.559,2.6327,2.6913,2.7399,2.7034,2.7337,2.8262,2.8731,2.9286,2.9924,3.0936,3.156,3.1918,3.295,3.3674,3.4195,3.4861,3.4674,3.4,3.3985,3.4255,3.4588,3.4258,3.4533,3.503,3.4836,0.0,0.0,0.0,0.0,0.0,0.0,0.0,0.0,0.0,0.0,0.0,0.0,0.0,0.0,0.0,0.0,0.0,0.0,0.0,0.0,0.0,0.0,0.0,0.0,3.3534,3.4185,3.3056,3.3557,3.4014,3.3954,3.3359,3.2983,3.303,3.2983,3.2955,3.2955,3.2955,3.2999,3.3064,0.0,0.0,0.0,0.0,3.4774,3.5488,3.5496,3.5496,3.5496,3.5496,3.5496,3.5521,3.6053,3.5983,3.5514,3.6981,3.728,3.6751,3.6959,3.7421,3.8153,3.9457,3.9582,3.891,3.817,3.698,3.5814,0.0,0.0,0.0,0.0,0.0,0.0,0.0,0.0,0.0,2.2714,2.2468,2.219,2.1923,2.1151,2.0538,2.0276,1.9784,1.9588,0.0,0.0,2.2316,2.3535,2.4752,2.5473,2.5607,2.627,2.6456,2.6154,2.6915,2.7516,2.7999,2.8409,2.9028,2.9843,3.0425,3.1253,3.2255,3.3067,3.4005,3.4994,3.5242,3.5564,3.5814,3.5291,3.5214,3.5345,3.5072,3.4897,3.4822,3.5087,3.4792,3.4288,3.4216,0.0,0.0,0.0,0.0,0.0,0.0,0.0,0.0,0.0,0.0,0.0,0.0,0.0,0.0,0.0,0.0,0.0,0.0,0.0,0.0,3.3238,3.3621,3.3875,3.4049,3.3861,3.3529,3.3025,3.2063,3.1603,3.2029,3.1673,3.1426,3.1426,3.1426,3.1685,3.2272,3.2879,3.3544,3.4279,3.493,3.5336,3.5496,3.5496,3.5496,3.5496,0.0,0.0,3.5504,3.5619,3.5858,3.6253,3.7302,3.7957,3.8289,3.8491,3.8656,3.8825,3.9096,3.9136,3.891,3.817,3.733,3.6496,0.0,0.0,0.0,0.0,0.0,0.0,0.0,0.0,0.0,0.0,2.277,2.2503,2.2232,2.1665,2.1057,2.0452,1.988,0.0,0.0,2.2031,2.3315,2.4686,2.5907,2.6387,2.6059,2.6435,2.6496,2.6199,2.6501,2.7086,2.7898,2.811,2.8909,3.0166,3.0404,3.1289,3.265,3.342,3.4568,3.5862,3.592,3.655,3.7296,3.5765,3.5387,3.5572,3.5004,3.5139,3.5563,3.5337,3.5158,3.5025,3.484,3.4734,3.4511,0.0,0.0,0.0,0.0,0.0,0.0,0.0,0.0,0.0,0.0,0.0,0.0,0.0,0.0,3.2818,0.0,0.0,3.3,3.3552,3.3847,3.4084,3.4358,3.3937,3.3375,3.2774,3.194,3.1408,3.1408,3.1156,3.1005,3.1005,3.1005,3.117,3.1529,3.225,3.2994,3.3734,3.4501,3.5085,3.5496,3.5496,3.5496,3.5496,3.5496,3.5496,3.5496,3.5496,3.5667,3.6006,3.7199,3.7871,3.8223,3.9093,3.927,3.9045,3.9406,3.9102,3.8362,3.7624,3.6863,3.6197,0.0,0.0,0.0,0.0,0.0,0.0,0.0,0.0,0.0,0.0,0.0,2.2902,2.2357,2.2214,2.1661,0.0,0.0,0.0,0.0,2.2892,2.4303,2.5903,2.6954,2.7257,2.6743,2.6941,2.6963,2.6768,2.6567,2.7013,2.8024,2.8232,2.9029,3.0241,3.0695,3.1645,3.2926,3.3901,3.5203,3.66,3.6539,3.718,3.8005,3.6039,3.5516,3.5695,3.4694,3.5154,3.6137,3.5299,3.5374,3.5772,3.5587,3.5346,3.5007,3.4319,3.4242,0.0,0.0,0.0,0.0,0.0,0.0,0.0,0.0,0.0,3.4212,3.3759,3.3757,3.3689,3.3202,3.3387,3.3626,3.3741,3.412,3.4397,3.4397,3.4029,3.3545,3.2944,3.2248,3.1585,3.1048,3.1005,3.1035,3.1153,3.1061,3.111,3.1365,3.184,3.2506,3.3388,3.3999,3.4691,3.5488,3.5496,3.5496,3.5496,3.5496,3.5496,3.5496,3.5496,3.5496,3.5585,3.6988,3.7684,3.7936,3.9166,3.9427,3.9045,3.9491,3.9028,3.8018,3.7291,3.6507,3.5898,0.0,0.0,0.0,0.0,0.0,0.0,0.0,0.0,0.0,0.0,0.0,0.0,0.0,0.0,0.0,0.0,0.0,0.0,2.2872,2.4415,2.5907,2.7229,2.742,2.7523,2.7561,2.8112,2.8032,2.7318,2.8149,2.8521,2.8455,2.9464,2.9704,2.9353,3.145,3.2503,3.2832,3.4406,3.5822,3.6996,3.6645,3.6799,3.7193,3.6561,3.6335,3.6118,3.4589,3.4636,3.5327,3.4625,3.4869,3.5502,3.5836,3.5461,3.4925,3.4897,0.0,3.3209,3.2468,3.1984,0.0,3.4189,3.3971,3.4074,0.0,0.0,3.5411,3.5991,3.516,3.4299,3.4223,3.3884,3.3767,3.4228,3.4358,3.4397,3.4397,3.4345,3.412,3.3558,3.2496,3.1585,3.1048,3.1005,3.1196,3.1676,3.1264,3.1525,3.2711,3.2349,3.2741,3.412,3.4262,3.4691,3.5488,3.5496,3.5496,3.5496,3.5496,3.5496,3.5496,3.5496,3.5496,3.5585,3.6988,3.8015,3.8675,3.8843,3.8943,3.8943,3.8373,3.8447,3.8791,3.8058,3.7319,3.6581,0.0,0.0,0.0,0.0,0.0,0.0,0.0,0.0,0.0,0.0,0.0,0.0,0.0,0.0,0.0,0.0,0.0,0.0,2.4031,2.5438,2.6768,2.7924,2.8443,2.8549,2.8165,2.8824,2.8964,2.8512,2.897,2.9366,2.9723,3.0214,3.0542,3.0772,3.2036,3.3007,3.3754,3.4778,3.5914,3.7007,3.6642,3.6809,3.7229,3.6776,3.6673,3.6484,3.4481,3.4228,0.0,0.0,3.3868,3.4474,3.5144,3.4926,3.4292,3.3582,3.334,0.0,3.2077,0.0,0.0,0.0,3.431,3.5513,3.6499,3.6616,3.6367,3.5899,3.5858,3.56,3.458,3.4502,3.4552,0.0,3.4397,3.4397,3.4397,3.4397,3.4201,3.3663,3.3146,3.248,3.1555,3.1464,3.1425,3.1343,3.1127,3.1238,3.1813,3.2782,3.3605,3.4223,3.5121,3.5907,3.6603,3.587,3.5699,3.6081,3.5684,3.5496,3.5496,3.5496,3.5894,3.6646,3.7228,3.8179,3.9315,3.9315,3.9449,3.9616,3.9305,3.9113,3.891,3.817,3.7438,3.6704,0.0,0.0,0.0,0.0,0.0,0.0,0.0,0.0,0.0,0.0,0.0,0.0,0.0,0.0,0.0,0.0,0.0,0.0,0.0,2.6178,2.754,2.885,2.9505,2.9681,2.9337,2.9817,2.9966,2.9746,2.991,3.0271,3.0763,3.0978,3.141,3.2068,3.3077,3.4023,3.4919,3.5781,3.669,3.7552,3.7207,3.74,3.7766,3.7159,3.6828,3.645,3.4529,3.4153,0.0,0.0,3.289,3.319,3.404,3.3803,3.3075,3.2215,3.2261,3.2469,3.1869,0.0,0.0,3.2946,3.451,3.6085,3.5681,3.6305,3.6695,3.5718,3.6057,3.6149,3.4881,3.4868,3.4907,3.4463,3.4397,3.4397,3.4397,3.4397,3.4254,3.3872,3.382,3.3417,3.2404,3.2146,3.1957,3.1728,3.1414,3.1375,3.1702,3.3109,3.4071,3.4444,3.5755,3.6745,3.7396,3.6483,3.6267,3.6731,3.6267,3.5938,3.5774,3.5586,3.6093,3.7124,3.732,3.8142,3.9385,3.9571,3.9776,3.9982,4.0037,3.9617,3.894,3.8444,3.7779,3.7053,0.0,0.0,0.0,0.0,0.0,0.0,0.0,0.0,0.0,0.0,0.0,0.0,0.0,0.0,0.0,0.0,0.0,0.0,0.0,2.6613,2.8428,3.0357,3.0459,3.0779,3.1397,3.1301,3.113,3.0852,3.1306,3.1416,3.1192,3.1918,3.226,3.2384,3.4812,3.5948,3.6163,3.7803,3.8706,3.901,3.8663,3.8697,3.8829,3.7852,3.6822,3.5802,3.4823,0.0,0.0,0.0,3.2079,3.1791,3.2536,3.1999,0.0,3.1279,3.0978,0.0,0.0,0.0,3.2711,3.4156,3.4599,3.4902,3.5859,3.6116,3.6118,3.6083,3.5691,3.5338,3.5273,3.4803,3.441,3.4397,3.4397,3.4397,3.4397,3.4397,3.4384,3.4382,3.4382,3.4162,0.0,3.3022,3.2904,3.348,3.2444,3.23,3.3467,3.3265,3.3725,3.5035,3.5879,3.6658,3.7387,3.7366,3.7351,3.7366,3.7351,3.7045,3.644,3.5804,3.5845,3.6461,3.7115,3.7827,3.8588,3.9237,3.9579,3.9729,3.9862,3.9533,3.9008,3.9113,3.8609,3.786,0.0,0.0,0.0,0.0,0.0,0.0,0.0,0.0,0.0,0.0,0.0,0.0,0.0,0.0,0.0,0.0,0.0,0.0,0.0,2.7449,2.8712,2.9731,3.0666,3.1278,3.151,3.2245,3.2706,3.2893,3.3412,3.3994,3.4663,3.5129,3.5488,3.5834,3.7656,3.834,3.8234,3.9562,4.0233,4.037,3.964,3.9489,3.9482,3.7337,3.6333,3.5796,0.0,0.0,0.0,0.0,3.1177,3.0873,3.1716,3.1215,0.0,3.0588,3.0386,3.033,3.1366,0.0,3.3186,3.3777,3.4507,3.5252,3.5942,3.6109,3.6005,3.5639,3.5103,3.458,3.4238,3.4016,3.3872,3.3872,3.4162,3.4397,3.4397,3.4397,3.4397,3.4397,3.4397,0.0,0.0,0.0,0.0,3.3022,3.2633,3.281,3.3746,3.4618,3.5545,3.6535,3.7301,3.8035,3.8718,3.7836,3.762,3.8063,3.7605,3.7291,3.709,3.6857,3.7113,3.7744,3.7975,3.8474,3.9229,4.004,4.0144,3.9891,4.0512,4.0337,3.9741,3.978,3.9604,3.9172,0.0,0.0,0.0,0.0,0.0,0.0,0.0,0.0,0.0,0.0,0.0,0.0,0.0,0.0,0.0,0.0,0.0,0.0,0.0,0.0,2.8772,2.9773,3.0707,3.1286,3.151,3.2391,3.3005,3.3269,3.4442,3.5464,3.6306,3.6977,3.7621,3.8272,3.9577,4.0205,4.0347,4.136,4.1591,4.1209,4.0476,3.9996,3.9503,3.7249,3.6213,0.0,0.0,0.0,0.0,3.0804,3.0189,2.9681,3.0243,2.9936,2.9432,2.9804,2.9935,3.0191,3.1257,3.2155,3.2871,3.3204,3.3979,3.4776,3.5129,3.5351,3.5391,3.5051,3.4515,3.4016,3.3663,3.3597,3.3597,3.3597,3.4045,3.4397,3.4397,3.4397,3.4397,3.4397,3.458,3.4724,0.0,0.0,0.0,3.3375,3.331,3.3665,3.4502,3.553,3.6575,3.76,3.8361,3.8966,3.9406,3.8548,3.8323,3.8751,3.8078,3.7764,3.7749,3.7516,3.7643,3.808,3.8576,3.9046,3.9556,4.0606,4.0814,4.0491,4.1184,4.1036,4.0431,4.053,4.0569,4.0346,0.0,0.0,0.0,0.0,0.0,0.0,0.0,0.0,0.0,0.0,0.0,0.0,0.0,0.0,0.0,0.0,0.0,0.0,0.0,0.0,0.0,3.043,3.059,3.0924,3.1527,3.1985,3.2223,3.2251,3.4513,3.5783,3.6154,3.7402,3.8522,3.9502,4.0525,4.1421,4.2203,4.3,4.2718,4.166,4.1169,4.0254,3.9022,3.7543,0.0,0.0,0.0,0.0,0.0,0.0,0.0,0.0,0.0,2.8327,2.8429,2.9088,2.967,3.0392,3.165,3.1863,3.1894,3.2578,3.3179,3.361,3.3626,3.4031,3.4384,3.4358,3.3937,3.3558,0.0,0.0,3.361,3.3637,3.4084,3.446,3.446,3.446,3.4437,0.0,0.0,0.0,0.0,0.0,0.0,3.4601,0.0,3.489,3.576,3.6051,3.684,3.8225,3.8995,3.9406,3.9406,3.9406,3.9406,3.9391,3.8751,3.8446,3.8431,3.7785,3.7501,3.7588,3.8918,3.9462,3.9511,4.089,4.1407,4.1359,4.1716,4.1493,4.0999,4.1255,4.1375,4.1282,0.0,0.0,0.0,0.0,0.0,0.0,0.0,0.0,0.0,0.0,0.0,0.0,0.0,0.0,0.0,0.0,0.0,0.0,0.0,0.0,0.0,0.0,0.0,0.0,0.0,0.0,0.0,0.0,0.0,3.6059,3.6641,3.756,3.8305,3.8888,4.0244,4.1128,4.1644,4.2358,4.2857,4.301,0.0,4.0483,3.9922,0.0,0.0,0.0,0.0,0.0,0.0,0.0,0.0,0.0,0.0,2.9355,2.9572,3.0093,3.0385,3.0735,3.1554,3.1989,3.2404,3.3179,3.3493,3.3692,3.4097,3.4293,3.429,3.3885,3.3336,3.2931,0.0,0.0,0.0,3.4123,3.4685,0.0,3.5064,3.5064,0.0,3.445,0.0,3.5561,3.4711,3.5521,0.0,0.0,3.6018,3.6354,3.7222,3.7523,3.8103,3.9059,3.9283,3.9406,3.9406,3.9406,3.9406,3.9406,3.9236,3.9146,3.9137,3.8973,3.8898,3.8907,3.9276,3.9423,3.9484,4.0483,4.0652,4.0349,4.104,4.0974,4.0482,4.0564,4.0907,4.1286,0.0,0.0,0.0,0.0,0.0,0.0,0.0,0.0,0.0,0.0,0.0,0.0,0.0,0.0,0.0,0.0,0.0,0.0,0.0,0.0,0.0,0.0,0.0,0.0,0.0,0.0,0.0,0.0,0.0,0.0,0.0,3.7705,3.8481,3.9075,4.0083,4.0789,4.1263,4.1753,0.0,0.0,0.0,0.0,0.0,0.0,0.0,0.0,0.0,0.0,0.0,0.0,0.0,3.1099,3.036,3.0647,3.1197,3.0868,0.0,3.1252,3.136,3.17,3.2132,3.2678,3.3208,3.361,3.365,3.3859,3.3888,3.3323,3.2725,0.0,0.0,0.0,0.0,0.0,0.0,0.0,3.5691,3.5652,3.5534,0.0,3.594,0.0,3.5234,3.5955,3.6636,0.0,3.6683,3.705,3.8301,3.8256,3.8581,3.9364,3.9406,3.9406,3.9406,3.9406,3.9406,3.9406,3.9406,3.9406,3.9406,3.9406,3.9406,3.9424,0.0,3.9879,3.995,4.073,4.0934,4.0786,4.1294,4.1539,4.1618,4.1685,4.2151,4.2752,0.0,0.0,0.0,0.0,0.0,0.0,0.0,0.0,0.0,0.0,0.0,0.0,0.0,0.0,0.0,0.0,0.0,0.0,0.0,0.0,0.0,0.0,0.0,0.0,0.0,0.0,0.0,0.0,0.0,0.0,0.0,0.0,0.0,0.0,0.0,0.0,0.0,0.0,0.0,0.0,0.0,0.0,0.0,0.0,0.0,0.0,0.0,0.0,0.0,0.0,3.3653,3.2487,3.1696,3.2355,3.3185,3.1987,3.1888,3.2043,3.1497,3.1491,3.1721,3.1977,3.2832,3.3467,3.2944,3.3218,3.3414,3.2725,0.0,3.2081,3.2594,3.3626,3.445,3.4593,0.0,3.6737,3.6279,3.6227,3.6188,3.6109,3.6711,3.6828,3.607,3.6717,3.7303,3.7581,3.7129,3.7501,3.9016,3.8713,3.878,3.9379,3.9406,3.9406,3.9406,3.9406,3.9406,3.9406,3.9406,3.9406,3.9406,3.9406,3.9406,3.9442,4.0082,0.0,4.0391,4.0976,4.1335,4.1533,4.1674,4.2205,4.2917,4.3045,4.3558,4.4188,0.0,0.0,0.0,0.0,0.0,0.0,0.0,0.0,0.0,0.0,0.0,0.0,0.0,0.0,0.0,0.0,0.0,0.0,0.0,0.0,0.0,0.0,0.0,0.0,0.0,0.0,0.0,0.0,0.0,0.0,0.0,0.0,0.0,0.0,0.0,0.0,0.0,0.0,0.0,0.0,0.0,0.0,0.0,0.0,0.0,0.0,0.0,0.0,0.0,0.0,3.4883,3.4347,3.4735,3.5181,3.547,3.5018,3.4254,3.3497,3.3221,3.2825,3.262,3.3146,3.3443,3.3571,3.3467,3.3522,0.0,0.0,3.2261,3.2581,3.2682,3.3626,3.4711,3.5652,0.0,0.0,0.0,0.0,3.6658,0.0,0.0,0.0,0.0,0.0,0.0,0.0,0.0,3.876,3.8991,3.9652,3.9831,3.9412,3.9406,3.9406,3.9406,3.9406,3.9406,3.9406,3.9406,3.9406,3.9406,3.9406,3.9406,3.9415,3.9535,0.0,3.9607,3.9726,3.9879,4.0082,4.0266,4.0534,4.0843,4.0964,4.1443,4.2037,0.0,0.0,0.0,0.0,0.0,0.0,0.0,0.0,0.0,0.0,2.8158,2.8019,0.0,0.0,0.0,0.0,0.0,0.0,0.0,0.0,0.0,0.0,0.0,0.0,0.0,0.0,0.0,0.0,0.0,0.0,0.0,0.0,0.0,0.0,0.0,0.0,0.0,0.0,0.0,0.0,0.0,0.0,0.0,0.0,0.0,0.0,0.0,0.0,0.0,0.0,3.6153,3.6039,3.6257,3.6699,3.6991,3.6232,3.5311,3.4474,3.4273,3.3714,3.331,3.3862,3.4029,3.3859,3.327,0.0,0.0,0.0,3.1839,3.2336,3.2643,0.0,0.0,0.0,0.0,0.0,0.0,0.0,0.0,0.0,0.0,0.0,0.0,0.0,0.0,0.0,0.0,4.0315,4.0757,4.0526,4.0247,3.9924,3.9586,3.9406,3.9406,3.9406,3.9406,3.9406,3.9406,3.9406,3.9406,3.9406,3.9406,3.9406,3.9406,0.0,3.9406,3.9406,3.9517,3.9753,4.0309,4.0854,4.1393,4.1884,4.2513,4.3108,0.0,0.0,0.0,0.0,0.0,0.0,0.0,2.7927,2.8464,2.9472,2.9305,2.9152,2.929,3.0082,0.0,0.0,0.0,0.0,0.0,0.0,0.0,0.0,0.0,0.0,0.0,0.0,0.0,0.0,0.0,0.0,0.0,0.0,0.0,0.0,0.0,0.0,0.0,0.0,0.0,0.0,0.0,0.0,0.0,0.0,0.0,0.0,0.0,0.0,0.0,0.0,3.6858,3.6981,3.6947,3.7594,3.8154,3.7075,3.6369,3.5888,3.56,3.5036,3.4558,3.4647,3.4675,3.4321,3.2997,3.2695,0.0,0.0,3.1608,3.2182,3.2777,0.0,0.0,0.0,0.0,0.0,0.0,0.0,0.0,0.0,0.0,0.0,0.0,0.0,0.0,0.0,0.0,0.0,4.2162,4.105,4.0397,4.0397,3.9894,3.9675,3.9834,3.9699,3.9616,3.9616,3.9466,3.9406,3.9406,3.9406,3.9406,3.9406,3.9406,0.0,0.0,3.9406,3.949,3.9717,4.0607,4.1377,4.2125,4.2938,4.3634,4.4143,0.0,0.0,0.0,0.0,0.0,0.0,0.0,2.8681,2.9472,2.9581,3.0074,3.0626,3.1176,3.0865,0.0,0.0,0.0,0.0,0.0,0.0,0.0,0.0,0.0,0.0,0.0,0.0,0.0,0.0,0.0,0.0,0.0,0.0,0.0,0.0,0.0,0.0,0.0,0.0,0.0,0.0,0.0,0.0,0.0,0.0,0.0,0.0,0.0,0.0,0.0,0.0,0.0,3.6387,3.6905,3.8091,3.9146,3.8417,0.0,0.0,3.8033,3.7703,3.7201,3.5899,3.5578,3.5066,3.3146,0.0,0.0,3.1859,3.2205,3.279,3.3414,0.0,0.0,0.0,0.0,0.0,0.0,0.0,0.0,0.0,0.0,0.0,0.0,0.0,0.0,0.0,0.0,0.0,4.1553,4.0795,4.0397,4.0397,4.0337,4.0591,4.1209,4.0606,4.0307,4.0307,3.9699,3.9406,3.9406,3.9406,3.9406,3.9406,3.9406,0.0,0.0,3.9406,3.9415,3.9517,4.0391,4.0883,4.1219,4.2094,4.2529,4.2692,0.0,0.0,0.0,0.0,0.0,0.0,0.0,2.9044,2.9733,3.0147,3.0437,3.0875,3.1592,3.1718,3.1953,0.0,0.0,0.0,0.0,0.0,0.0,0.0,0.0,0.0,0.0,0.0,0.0,0.0,0.0,0.0,0.0,0.0,0.0,0.0,0.0,0.0,0.0,0.0,0.0,0.0,0.0,0.0,0.0,0.0,0.0,0.0,0.0,0.0,0.0,0.0,0.0,0.0,3.6187,3.708,0.0,0.0,3.8786,3.8754,3.9649,3.9203,3.8436,3.8174,3.7267,3.6138,3.5,0.0,3.2806,3.257,3.2621,3.2878,3.3493,0.0,0.0,0.0,0.0,0.0,0.0,0.0,0.0,0.0,0.0,0.0,0.0,0.0,0.0,0.0,0.0,0.0,4.2056,4.1757,4.1598,4.1598,4.1209,4.1134,4.1403,4.1149,4.1005,4.1005,4.0726,4.0591,4.0591,4.0187,3.9999,3.9984,3.9571,0.0,0.0,3.9526,3.958,3.9672,4.0668,4.1117,4.1277,4.2118,4.245,4.2505,0.0,0.0,0.0,0.0,0.0,0.0,2.8876,2.9493,3.0074,3.0532,3.081,3.1169,3.1736,3.2478,3.2997,3.3133,0.0,0.0,0.0,0.0,0.0,0.0,0.0,0.0,0.0,0.0,0.0,0.0,0.0,0.0,0.0,0.0,0.0,0.0,0.0,0.0,0.0,0.0,0.0,0.0,0.0,0.0,0.0,0.0,0.0,0.0,0.0,0.0,0.0,0.0,0.0,0.0,0.0,0.0,0.0,0.0,3.8684,3.9089,4.0222,4.0248,3.9957,4.0081,3.8696,3.7124,0.0,0.0,3.3311,3.325,3.3123,3.3186,3.3743,3.4146,0.0,0.0,0.0,3.5639,0.0,0.0,0.0,0.0,0.0,0.0,0.0,0.0,0.0,0.0,0.0,0.0,4.3259,4.3075,4.279,4.241,4.1937,4.1777,4.1953,4.1783,4.1697,4.1697,4.1493,4.1403,4.1388,4.0915,4.0705,4.0666,4.0202,0.0,0.0,4.0148,4.0127,4.0114,4.1264,4.1537,4.1441,4.2605,4.2925,4.2863,0.0,0.0,0.0,0.0,0.0,0.0,0.0,3.0161,3.0598,3.059,3.1294,3.1787,3.1802,3.3117,3.4163,3.4638,0.0,0.0,0.0,0.0,0.0,0.0,0.0,0.0,0.0,0.0,0.0,0.0,0.0,0.0,0.0,0.0,0.0,0.0,0.0,0.0,0.0,0.0,0.0,0.0,0.0,0.0,0.0,0.0,0.0,0.0,0.0,0.0,0.0,0.0,0.0,0.0,0.0,0.0,0.0,0.0,3.8362,4.0238,3.9592,4.0851,4.2167,4.1294,3.962,3.799,0.0,0.0,3.4028,3.3823,3.3786,3.3908,3.432,3.4397,3.4238,3.3692,0.0,0.0,0.0,0.0,0.0,0.0,0.0,0.0,0.0,0.0,0.0,0.0,0.0,0.0,4.52,4.4636,4.3703,4.244,4.2396,4.269,4.326,4.269,4.2396,4.2381,4.1727,4.1403,4.1403,4.1388,4.1388,0.0,0.0,0.0,0.0,4.1373,4.1106,4.0822,4.2157,4.2115,4.153,4.3536,4.3945,4.3702,0.0,0.0,0.0,0.0,0.0,0.0,0.0,3.0161,3.059,3.059,3.1187,3.1688,3.191,3.3332,3.4436,3.4802,0.0,0.0,0.0,0.0,0.0,0.0,0.0,0.0,0.0,0.0,0.0,0.0,0.0,0.0,0.0,0.0,0.0,0.0,0.0,0.0,0.0,0.0,0.0,0.0,0.0,0.0,0.0,0.0,0.0,0.0,0.0,0.0,0.0,0.0,0.0,0.0,0.0,0.0,0.0,0.0,0.0,0.0,3.9212,3.9864,4.0287,4.0016,3.8785,3.7588,3.7328,0.0,3.485,3.4594,3.4987,3.5172,3.4523,3.4889,3.5375,3.5671,3.6333,0.0,0.0,0.0,0.0,0.0,0.0,0.0,0.0,0.0,0.0,0.0,0.0,0.0,4.3967,4.4172,4.4122,4.3703,4.3688,4.3574,4.33,4.3115,4.302,4.3005,4.2796,4.2696,4.2681,4.2271,4.2086,0.0,0.0,0.0,0.0,4.1058,4.1189,4.1599,4.1693,4.2225,4.3016,4.3662,4.4095,4.4451,0.0,0.0,0.0,0.0,0.0,0.0,0.0,3.0328,3.059,3.059,3.1195,3.1704,3.1979,3.3573,3.4803,3.5247,0.0,0.0,0.0,0.0,0.0,0.0,0.0,0.0,0.0,0.0,0.0,0.0,0.0,0.0,0.0,0.0,0.0,0.0,0.0,0.0,0.0,0.0,0.0,0.0,0.0,0.0,3.8391,0.0,0.0,0.0,0.0,0.0,0.0,0.0,0.0,0.0,0.0,0.0,0.0,0.0,3.6065,3.6977,0.0,3.9017,3.9466,3.9705,3.8781,0.0,0.0,0.0,3.5816,3.4797,3.5619,3.6112,3.4794,3.5426,3.6368,3.7042,3.7614,0.0,0.0,0.0,0.0,0.0,0.0,0.0,0.0,0.0,0.0,0.0,0.0,0.0,4.4072,4.4207,4.4307,4.4307,4.4042,4.3718,4.33,4.33,4.33,4.33,4.33,4.33,4.33,4.291,4.2741,0.0,0.0,0.0,0.0,4.1921,4.2043,4.2377,4.2409,4.2777,4.3375,4.4174,4.4586,4.4886,0.0,0.0,0.0,0.0,0.0,0.0,0.0,0.0,0.0,0.0,3.1301,3.1863,3.2053,3.3856,3.5301,0.0,0.0,0.0,0.0,0.0,0.0,0.0,0.0,0.0,0.0,0.0,0.0,0.0,3.7963,3.7915,3.7163,0.0,0.0,0.0,0.0,0.0,0.0,0.0,0.0,0.0,0.0,0.0,0.0,0.0,0.0,0.0,0.0,0.0,0.0,0.0,0.0,0.0,0.0,0.0,0.0,0.0,0.0,0.0,0.0,3.8165,0.0,0.0,0.0,0.0,0.0,0.0,0.0,3.4612,3.5843,3.6805,3.5248,3.607,3.7236,3.7947,3.8539,0.0,0.0,0.0,0.0,0.0,0.0,0.0,0.0,0.0,0.0,0.0,0.0,0.0,4.517,4.4725,4.4396,4.4307,4.3688,4.3359,4.33,4.33,4.33,4.33,4.33,4.33,4.33,4.33,4.33,0.0,0.0,0.0,0.0,4.3561,4.3438,4.3174,4.3997,4.3725,4.314,4.5135,4.5495,4.5294,0.0,0.0,0.0,0.0,0.0,0.0,0.0,0.0,0.0,0.0,0.0,3.2047,3.2695,3.4425,0.0,0.0,0.0,0.0,0.0,0.0,0.0,0.0,0.0,0.0,0.0,0.0,0.0,3.6539,3.7212,3.6918,3.5717,3.6976,0.0,0.0,0.0,0.0,0.0,0.0,0.0,0.0,0.0,0.0,0.0,0.0,0.0,0.0,3.7527,3.7365,0.0,0.0,0.0,0.0,0.0,0.0,0.0,0.0,3.5496,3.5571,3.587,0.0,3.6453,3.6603,3.6417,3.6178,0.0,0.0,0.0,0.0,0.0,3.7765,3.6614,3.7219,3.827,3.9395,3.9698,4.0466,0.0,0.0,0.0,0.0,0.0,0.0,0.0,0.0,0.0,0.0,0.0,4.5832,4.4591,4.5358,4.5358,4.4326,4.4147,4.3818,4.3314,4.33,4.33,4.33,4.33,4.33,4.33,4.33,4.33,0.0,0.0,0.0,4.3571,4.3287,4.3493,4.4012,4.4281,4.4972,4.5942,4.699,4.7636,4.8058,0.0,0.0,0.0,0.0,0.0,0.0,0.0,0.0,0.0,0.0,0.0,0.0,0.0,0.0,0.0,0.0,0.0,0.0,0.0,0.0,0.0,0.0,0.0,0.0,0.0,0.0,0.0,0.0,0.0,3.6749,0.0,0.0,0.0,0.0,0.0,0.0,0.0,0.0,0.0,0.0,3.8391,0.0,0.0,0.0,0.0,0.0,3.7777,3.7484,0.0,3.6407,3.6014,3.5822,0.0,0.0,0.0,0.0,3.5496,3.5496,3.5496,3.5496,3.5496,3.5496,3.5721,3.5878,3.5571,0.0,0.0,0.0,0.0,3.7668,3.6782,3.7785,3.9178,4.0487,4.1195,0.0,0.0,0.0,0.0,0.0,0.0,0.0,0.0,0.0,0.0,0.0,0.0,4.5903,4.4815,4.5443,4.5369,4.4326,4.4307,4.3982,4.3314,4.33,4.33,4.33,4.33,4.33,4.33,4.33,4.33,0.0,0.0,0.0,4.3689,4.3531,4.3788,4.431,4.4444,4.5008,4.5883,4.6612,4.7144,4.758,0.0,0.0,0.0,0.0,0.0,0.0,0.0,0.0,0.0,0.0,0.0,0.0,0.0,0.0,0.0,0.0,0.0,0.0,0.0,0.0,0.0,0.0,0.0,0.0,0.0,0.0,0.0,0.0,0.0,0.0,0.0,0.0,0.0,0.0,0.0,0.0,0.0,0.0,0.0,0.0,3.8391,0.0,0.0,0.0,0.0,0.0,0.0,0.0,0.0,3.6822,3.6227,3.5496,3.5496,0.0,0.0,0.0,0.0,0.0,3.5496,3.5571,3.5624,3.5534,3.5931,3.6201,3.5624,0.0,0.0,0.0,0.0,0.0,0.0,0.0,0.0,0.0,0.0,0.0,0.0,0.0,0.0,0.0,0.0,0.0,0.0,0.0,0.0,0.0,0.0,4.5559,4.5454,4.5544,4.5304,4.4636,4.4621,4.4282,4.3614,4.3404,4.33,4.33,4.33,4.33,4.33,4.33,4.33,4.33,0.0,0.0,4.3769,4.3958,4.4156,4.4377,4.4657,4.483,4.5021,4.5769,4.6111,4.6378,0.0,0.0,0.0,0.0,0.0,0.0,0.0,0.0,0.0,0.0,0.0,0.0,0.0,0.0,0.0,0.0,0.0,0.0,0.0,0.0,0.0,0.0,0.0,0.0,0.0,0.0,0.0,0.0,0.0,0.0,3.6328,3.7624,3.8294,0.0,0.0,0.0,0.0,0.0,0.0,0.0,0.0,0.0,0.0,0.0,0.0,0.0,0.0,0.0,0.0,3.6438,3.5949,3.5496,3.5496,0.0,0.0,0.0,0.0,0.0,3.5496,3.5908,3.6216,3.5639,3.5579,3.5624,3.5526,0.0,0.0,0.0,0.0,0.0,0.0,0.0,0.0,0.0,0.0,0.0,0.0,0.0,0.0,0.0,0.0,0.0,0.0,0.0,0.0,0.0,0.0,4.6745,4.6181,4.6685,4.6685,4.6016,4.5986,4.5668,4.5005,4.3863,4.33,4.33,4.33,4.33,4.33,4.33,4.33,4.3309,0.0,4.3754,4.3968,4.4166,4.4377,4.4619,4.529,4.5913,4.6551,4.7289,4.7967,4.8538,0.0,0.0,0.0,0.0,0.0,0.0,0.0,0.0,0.0,0.0,0.0,0.0,0.0,0.0,0.0,0.0,0.0,0.0,0.0,0.0,0.0,0.0,0.0,0.0,0.0,0.0,0.0,0.0,0.0,3.6393,3.5743,3.7154,3.8012,3.8391,0.0,0.0,0.0,0.0,0.0,0.0,0.0,0.0,0.0,0.0,0.0,0.0,0.0,0.0,0.0,0.0,3.6093,3.5496,3.5496,0.0,0.0,0.0,0.0,0.0,3.5496,3.5729,3.5968,3.6036,3.6282,3.6439,3.6103,0.0,0.0,0.0,0.0,0.0,0.0,0.0,0.0,0.0,0.0,0.0,0.0,0.0,0.0,0.0,0.0,0.0,0.0,0.0,0.0,0.0,0.0,0.0,4.6865,4.7134,4.6984,4.633,4.5952,4.5429,4.4766,4.3788,4.3479,4.3848,4.3848,4.3643,4.33,4.33,4.33,4.3309,0.0,4.3802,4.4017,4.4214,4.4425,4.4629,4.498,4.5311,4.5651,4.598,4.6838,4.7811,0.0,0.0,0.0,0.0,0.0,0.0,0.0,0.0,0.0,0.0,0.0,0.0,0.0,0.0,0.0,0.0,0.0,0.0,0.0,0.0,0.0,0.0,0.0,0.0,0.0,0.0,3.6027,3.5458,3.6189,3.6348,3.6029,3.6926,3.7746,0.0,0.0,0.0,0.0,0.0,0.0,0.0,0.0,0.0,0.0,0.0,0.0,0.0,0.0,0.0,0.0,0.0,0.0,0.0,0.0,0.0,0.0,3.5496,3.5496,3.5496,3.5496,3.5601,3.5818,3.6186,0.0,3.6947,3.6949,0.0,0.0,0.0,0.0,0.0,0.0,0.0,0.0,0.0,0.0,0.0,0.0,0.0,0.0,0.0,0.0,0.0,0.0,0.0,0.0,0.0,0.0,0.0,4.7309,4.7309,4.6984,4.633,4.5802,4.5204,4.4531,4.4027,4.3863,4.4072,4.4072,4.3803,4.33,4.33,4.33,4.3309,4.3527,4.3754,4.4017,4.4181,4.4377,4.4591,4.4591,4.4704,4.4905,4.5246,4.6094,4.7085,0.0,0.0,0.0,0.0,0.0,0.0,0.0,0.0,0.0,0.0,0.0,0.0,0.0,0.0,0.0,0.0,0.0,0.0,0.0,0.0,0.0,0.0,0.0,0.0,0.0,3.5963,3.6264,3.6215,3.6904,3.7614,3.833,3.7754,3.7884,3.8574,0.0,0.0,0.0,0.0,0.0,0.0,0.0,0.0,0.0,0.0,0.0,0.0,0.0,0.0,0.0,0.0,0.0,0.0,0.0,0.0,3.5496,3.5496,3.5496,3.5496,3.5496,3.5953,3.6291,3.5714,3.5601,0.0,3.7862,3.8305,0.0,0.0,0.0,0.0,0.0,0.0,0.0,0.0,0.0,0.0,0.0,0.0,0.0,0.0,0.0,0.0,0.0,0.0,0.0,0.0,0.0,0.0,4.7309,4.7309,4.6984,4.633,4.6256,4.5907,4.5229,4.518,4.4571,4.3374,4.3374,4.3359,4.33,4.33,4.33,4.33,4.3309,4.3581,4.4007,4.4017,4.4243,4.4591,4.4591,4.5011,4.5787,4.7162,4.7721,4.7917,0.0,0.0,0.0,0.0,0.0,0.0,0.0,0.0,0.0,0.0,0.0,0.0,0.0,0.0,0.0,0.0,0.0,0.0,0.0,0.0,0.0,0.0,0.0,3.5946,3.5221,3.5474,3.5876,3.6416,3.6756,3.7496,3.8572,3.7853,0.0,0.0,0.0,0.0,0.0,0.0,0.0,0.0,0.0,0.0,0.0,0.0,0.0,0.0,0.0,0.0,0.0,0.0,3.5893,3.5496,0.0,0.0,3.5496,3.5496,3.5496,3.5496,3.5496,3.5991,3.6449,3.6186,0.0,0.0,0.0,0.0,0.0,0.0,0.0,0.0,0.0,0.0,0.0,0.0,0.0,0.0,0.0,0.0,0.0,0.0,0.0,0.0,0.0,0.0,0.0,0.0,0.0,0.0,4.7309,4.6909,4.676,4.6924,4.5702,4.5129,4.53,4.4885,4.4207,4.3314,4.3718,4.3923,4.3908,4.3494,4.3524,4.3918,4.3653,4.3724,4.4007,4.4127,4.4349,4.4637,4.5068,4.5652,4.6335,4.6893,4.7385,4.7884,0.0,0.0,0.0,0.0,0.0,0.0,0.0,0.0,0.0,0.0,0.0,0.0,0.0,0.0,0.0,0.0,0.0,0.0,0.0,0.0,0.0,0.0,0.0,3.5837,3.5574,3.5377,3.5769,3.6818,3.6738,3.7245,3.829,0.0,0.0,0.0,0.0,0.0,0.0,0.0,0.0,3.8391,3.8391,3.8391,0.0,0.0,0.0,0.0,0.0,0.0,0.0,0.0,3.5765,0.0,0.0,0.0,0.0,0.0,3.5496,3.5496,3.5496,3.5991,3.6508,0.0,0.0,0.0,0.0,0.0,0.0,0.0,0.0,0.0,0.0,0.0,0.0,0.0,0.0,0.0,0.0,0.0,0.0,0.0,0.0,0.0,0.0,0.0,0.0,0.0,0.0,0.0,0.0,4.6865,4.673,4.6984,4.5443,4.4725,4.499,4.4311,4.3758,4.3314,4.3773,4.3982,4.3967,4.3509,4.3554,4.3963,4.3782,4.3802,4.4032,4.4443,4.487,4.5284,4.5736,4.6198,4.6618,4.6859,4.7272,4.7852,0.0,0.0,0.0,0.0,0.0,0.0,0.0,0.0,0.0,0.0,0.0,0.0,0.0,0.0,0.0,0.0,0.0,0.0,0.0,0.0,0.0,0.0,0.0,3.5574,3.6365,3.5743,3.6105,3.7489,3.6967,3.7042,3.7661,3.6809,0.0,0.0,0.0,0.0,0.0,0.0,0.0,3.8391,3.8391,3.8391,3.8335,0.0,0.0,0.0,0.0,0.0,0.0,0.0,3.5496,3.5496,0.0,0.0,0.0,0.0,3.5496,3.5511,3.5496,3.5991,0.0,0.0,0.0,0.0,0.0,0.0,0.0,0.0,0.0,0.0,0.0,0.0,0.0,0.0,0.0,0.0,0.0,0.0,0.0,0.0,0.0,0.0,0.0,0.0,0.0,0.0,0.0,0.0,0.0,4.7294,4.6984,4.633,4.5648,4.4975,4.4322,4.3628,4.3314,4.33,4.3314,4.3314,4.3314,4.33,4.33,4.3324,4.3587,4.3827,4.4062,4.4931,4.5811,4.6588,4.6603,4.6603,4.6702,4.7436,4.7707,4.7933,0.0,0.0,0.0,0.0,0.0,0.0,0.0,0.0,0.0,0.0,0.0,0.0,0.0,0.0,0.0,0.0,0.0,0.0,0.0,0.0,0.0,0.0,0.0,0.0,0.0,0.0,3.6515,3.6934,3.6875,3.6842,0.0,0.0,0.0,3.7672,0.0,0.0,0.0,0.0,3.7737,3.8391,3.8391,3.82,3.789,0.0,0.0,0.0,0.0,0.0,0.0,0.0,0.0,0.0,0.0,0.0,0.0,3.5639,3.5833,3.6096,3.5624,0.0,0.0,0.0,0.0,0.0,0.0,0.0,0.0,0.0,0.0,0.0,0.0,0.0,0.0,0.0,0.0,0.0,0.0,0.0,0.0,0.0,0.0,0.0,0.0,0.0,0.0,0.0,0.0,0.0,0.0,4.6411,4.6012,4.6285,4.473,4.4027,4.4307,4.4102,4.3773,4.3314,4.3788,4.3997,4.3982,4.3509,4.3618,4.4198,4.3841,4.389,4.4239,4.4649,4.5241,4.5936,4.6429,4.688,4.7388,4.8073,4.8334,4.857,0.0,0.0,0.0,0.0,0.0,0.0,0.0,0.0,0.0,0.0,0.0,0.0,0.0,0.0,0.0,0.0,0.0,0.0,0.0,0.0,0.0,0.0,0.0,0.0,0.0,3.5988,3.6371,0.0,0.0,0.0,0.0,0.0,0.0,3.7286,0.0,3.73,0.0,0.0,3.7309,3.7996,3.8278,3.8114,3.7678,0.0,0.0,0.0,0.0,0.0,0.0,0.0,0.0,0.0,0.0,0.0,0.0,3.5624,3.5789,3.6073,3.5923,0.0,0.0,0.0,0.0,0.0,0.0,0.0,0.0,0.0,0.0,0.0,0.0,0.0,0.0,0.0,0.0,0.0,0.0,0.0,0.0,0.0,0.0,0.0,0.0,0.0,0.0,0.0,0.0,0.0,0.0,4.5888,4.5618,4.6285,4.4611,4.4027,4.4681,4.4162,4.3823,4.3688,4.3938,4.4183,4.4398,4.3753,4.3782,4.4347,4.4057,4.427,4.4834,4.4943,4.5391,4.6059,4.6742,4.724,4.7681,4.8348,4.8821,4.9315,0.0,0.0,0.0,0.0,0.0,0.0,0.0,0.0,0.0,0.0,0.0,0.0,0.0,0.0,0.0,0.0,0.0,0.0,0.0,0.0,0.0,0.0,0.0,0.0,0.0,0.0,0.0,0.0,0.0,0.0,0.0,0.0,3.6653,3.72,0.0,3.6675,0.0,3.6601,3.6658,3.724,3.8037,3.8042,3.7508,3.7027,0.0,0.0,0.0,0.0,0.0,0.0,0.0,0.0,3.5571,3.5631,3.5676,3.5676,3.5676,3.5804,3.6425,0.0,0.0,0.0,0.0,0.0,0.0,0.0,0.0,0.0,0.0,0.0,0.0,0.0,0.0,0.0,0.0,0.0,0.0,0.0,0.0,0.0,0.0,0.0,0.0,0.0,0.0,0.0,0.0,0.0,0.0,4.5563,4.5499,4.6106,4.489,4.4501,4.511,4.3908,4.3619,4.4232,4.3872,4.4011,4.4544,4.3996,4.3847,4.4046,4.4233,4.4772,4.5505,4.5505,4.5859,4.649,4.7219,4.7501,4.7594,4.8332,4.9142,5.0016,0.0,0.0,0.0,0.0,0.0,0.0,0.0,0.0,0.0,0.0,0.0,0.0,0.0,0.0,0.0,0.0,0.0,0.0,0.0,0.0,0.0,0.0,0.0,0.0,0.0,0.0,0.0,0.0,0.0,0.0,0.0,0.0,0.0,3.6668,0.0,3.675,3.6973,3.6722,3.6444,3.632,3.7519,3.7417,3.6515,3.6391,3.6053,0.0,0.0,0.0,0.0,0.0,0.0,0.0,3.6118,3.6611,3.6992,3.6992,3.6992,3.7022,0.0,3.7291,0.0,0.0,0.0,0.0,0.0,0.0,0.0,0.0,0.0,0.0,0.0,0.0,0.0,0.0,0.0,0.0,0.0,0.0,0.0,0.0,0.0,0.0,0.0,0.0,0.0,0.0,0.0,0.0,4.5544,4.4875,4.4576,4.474,4.3938,4.3584,4.3728,4.3449,4.3489,0.0,4.3741,4.3937,4.4345,4.4068,4.4055,4.4243,4.4454,4.4645,4.4822,4.4822,4.4899,4.5145,4.6352,4.6819,4.6957,4.8163,4.9142,5.0016,0.0,0.0,0.0,0.0,0.0,0.0,0.0,0.0,0.0,0.0,0.0,0.0,0.0,0.0,0.0,0.0,0.0,0.0,0.0,0.0,0.0,0.0,0.0,0.0,0.0,0.0,0.0,0.0,0.0,0.0,0.0,0.0,0.0,3.6594,0.0,3.6318,3.6334,3.5643,3.5199,3.5053,3.6405,3.6452,3.5768,3.6073,3.5902,3.5496,3.5496,0.0,0.0,0.0,0.0,0.0,0.0,0.0,3.6971,3.6971,3.7171,3.7396,0.0,0.0,0.0,0.0,0.0,0.0,0.0,0.0,0.0,0.0,0.0,0.0,0.0,0.0,0.0,0.0,0.0,0.0,0.0,0.0,0.0,0.0,0.0,0.0,0.0,0.0,0.0,0.0,0.0,4.5189,4.484,4.4202,4.3967,4.4292,4.3643,4.3449,4.3788,4.3464,4.3583,4.4127,4.3944,4.4055,4.4444,4.4339,4.4349,4.4454,4.4543,4.4591,4.4591,4.4591,4.4791,4.5176,4.6198,4.6803,4.7204,4.8224,4.9142,5.0016,0.0,0.0,0.0,0.0,0.0,0.0,0.0,0.0,0.0,0.0,0.0,0.0,0.0,0.0,0.0,0.0,0.0,0.0,0.0,0.0,0.0,0.0,0.0,0.0,0.0,0.0,0.0,0.0,0.0,0.0,0.0,0.0,0.0,3.6404,0.0,0.0,3.5345,3.4376,3.3843,3.3778,3.5236,3.552,3.5148,3.5818,3.5845,3.5496,3.5496,3.5496,3.5496,3.5496,0.0,0.0,0.0,0.0,3.668,3.6784,3.718,3.759,0.0,0.0,0.0,0.0,0.0,0.0,0.0,0.0,0.0,0.0,0.0,0.0,0.0,0.0,0.0,0.0,0.0,0.0,0.0,0.0,0.0,0.0,0.0,0.0,0.0,0.0,0.0,0.0,0.0,4.4262,4.4132,4.3599,4.3554,4.4102,4.3584,4.3579,4.4117,4.3624,4.3753,4.4494,4.423,4.4281,4.4591,4.4591,4.4591,4.4591,4.4591,4.4591,4.4591,4.4591,4.4929,4.5515,4.629,4.6942,4.7517,4.8317,4.9065,4.9842,0.0,0.0,0.0,0.0,0.0,0.0,0.0,0.0,0.0,0.0,0.0,0.0,0.0,0.0,0.0,0.0,0.0,0.0,3.217,0.0,0.0,3.2399,3.2385,0.0,0.0,0.0,0.0,0.0,0.0,0.0,0.0,0.0,0.0,3.5289,0.0,0.0,0.0,3.412,3.3636,3.2847,3.4726,3.5126,3.4673,3.534,3.5546,3.5496,3.5496,3.5496,3.5496,3.5496,3.5496,0.0,0.0,0.0,3.7389,3.7982,3.8206,3.8392,0.0,0.0,0.0,0.0,0.0,0.0,0.0,0.0,0.0,0.0,0.0,0.0,0.0,0.0,0.0,0.0,0.0,0.0,0.0,0.0,0.0,0.0,0.0,0.0,0.0,0.0,0.0,0.0,4.4352,4.4042,4.3464,4.3359,4.3344,4.3434,4.3359,4.3344,4.3434,4.3582,4.3789,4.408,4.4385,4.4559,4.4591,4.4591,4.4591,4.4591,4.4591,4.4591,4.4591,4.4591,4.4652,4.4868,4.6105,4.665,4.688,4.8132,4.8753,4.9144,0.0,0.0,0.0,0.0,0.0,0.0,0.0,0.0,0.0,0.0,0.0,0.0,0.0,0.0,0.0,3.1319,3.1467,3.1597,3.1797,3.1811,3.1939,3.2191,3.2565,3.2995,0.0,0.0,0.0,0.0,0.0,0.0,0.0,3.5087,3.5116,0.0,0.0,0.0,0.0,0.0,3.2427,3.2085,3.3691,3.4181,3.4046,0.0,0.0,0.0,0.0,0.0,0.0,3.5496,3.5496,3.5624,3.6291,0.0,0.0,0.0,3.8116,0.0,3.9679,4.0311,4.1025,0.0,0.0,0.0,0.0,0.0,0.0,0.0,0.0,0.0,0.0,0.0,0.0,0.0,0.0,0.0,0.0,0.0,0.0,0.0,0.0,0.0,0.0,0.0,0.0,0.0,4.3743,4.3614,4.3314,4.33,4.33,4.33,4.33,4.3374,4.3527,4.3636,4.3851,4.4166,4.4458,4.4591,4.4591,4.4591,4.4591,4.4591,4.4591,4.4591,4.4591,4.4591,4.5037,4.5782,4.6372,4.7065,4.7778,4.8378,4.864,4.8847,0.0,0.0,0.0,0.0,0.0,0.0,0.0,0.0,0.0,0.0,0.0,0.0,0.0,0.0,0.0,0.0,3.1474,3.1503,3.1503,3.1503,3.1654,3.2017,3.2502,3.2933,3.3287,0.0,0.0,0.0,0.0,0.0,3.5481,3.4989,3.523,0.0,3.4746,0.0,0.0,0.0,0.0,0.0,0.0,3.3446,0.0,0.0,0.0,0.0,0.0,0.0,0.0,0.0,0.0,0.0,0.0,0.0,0.0,0.0,0.0,0.0,0.0,0.0,4.0995,0.0,0.0,0.0,0.0,0.0,0.0,0.0,0.0,0.0,0.0,0.0,0.0,0.0,0.0,0.0,0.0,0.0,0.0,0.0,0.0,0.0,0.0,0.0,0.0,0.0,4.33,4.33,4.33,4.33,4.33,4.33,4.33,4.3404,4.3596,4.372,4.3978,4.4377,4.453,4.4683,4.4852,4.4683,4.4683,4.4837,4.4668,4.4591,4.4591,4.4591,4.5191,4.6136,4.6475,4.7219,4.8132,4.8471,4.8486,4.8497,0.0,0.0,0.0,0.0,0.0,0.0,0.0,0.0,0.0,0.0,0.0,0.0,0.0,3.0006,3.0675,3.1254,3.143,3.1503,3.1503,3.1503,3.1518,3.1547,3.1577,0.0,3.1628,0.0,0.0,0.0,0.0,0.0,3.5496,3.5466,3.5477,3.5482,3.4138,3.3186,3.2594,0.0,0.0,0.0,0.0,0.0,0.0,0.0,0.0,0.0,0.0,0.0,0.0,0.0,0.0,0.0,0.0,0.0,0.0,0.0,0.0,0.0,0.0,4.0382,0.0,4.1469,0.0,0.0,0.0,0.0,0.0,0.0,0.0,0.0,0.0,0.0,0.0,0.0,0.0,0.0,0.0,0.0,0.0,0.0,0.0,0.0,0.0,0.0,0.0,0.0,4.33,4.33,4.33,4.33,4.33,4.33,4.33,4.3309,4.3309,4.3758,4.4185,4.4572,4.4581,4.4929,4.553,4.4883,4.4945,4.5505,4.4883,4.4591,4.4591,4.4591,4.4637,4.4822,4.6105,4.6634,4.6865,4.8132,4.8194,4.7864,0.0,0.0,0.0,0.0,0.0,0.0,0.0,0.0,0.0,0.0,0.0,0.0,0.0,3.0331,3.0748,3.1371,3.1467,3.1503,3.1503,3.1503,3.1503,3.1503,3.1914,3.2131,3.2131,0.0,0.0,0.0,0.0,3.5048,3.4877,3.5295,3.5496,3.5466,3.4555,3.3776,3.314,3.314,0.0,0.0,0.0,0.0,0.0,0.0,0.0,0.0,0.0,0.0,0.0,0.0,0.0,0.0,0.0,0.0,0.0,0.0,0.0,0.0,0.0,0.0,0.0,4.1194,0.0,0.0,0.0,0.0,0.0,0.0,0.0,0.0,0.0,0.0,0.0,0.0,0.0,0.0,0.0,0.0,0.0,0.0,0.0,0.0,0.0,0.0,0.0,0.0,0.0,4.33,4.33,4.33,4.33,4.33,4.33,4.3438,4.3748,4.4176,4.4463,4.4591,4.4591,4.4729,4.4945,4.4714,4.4729,4.4945,4.4699,4.4837,4.5284,4.5715,4.6136,4.6573,4.705,4.7511,4.7932,4.8425,4.8809,4.9166,0.0,0.0,0.0,0.0,0.0,0.0,0.0,0.0,0.0,0.0,0.0,0.0,0.0,0.0,3.1017,3.1458,3.1503,3.1503,3.1503,3.1503,3.1503,3.1503,3.2131,3.2497,3.2497,0.0,0.0,0.0,0.0,0.0,0.0,3.4629,3.4951,3.513,3.4697,3.4248,0.0,0.0,0.0,3.2938,0.0,0.0,3.4381,0.0,0.0,0.0,0.0,0.0,0.0,0.0,0.0,0.0,0.0,0.0,0.0,0.0,0.0,0.0,3.9152,0.0,0.0,0.0,0.0,0.0,0.0,0.0,0.0,0.0,0.0,0.0,0.0,0.0,0.0,0.0,0.0,0.0,0.0,0.0,0.0,0.0,0.0,0.0,0.0,0.0,0.0,0.0,0.0,0.0,4.33,4.33,4.3329,4.3433,4.3433,4.365,4.4104,4.4368,4.4524,4.4591,4.4591,4.4723,4.4929,4.4699,4.4714,4.4945,4.4945,4.5191,4.5628,4.6074,4.6665,4.7296,4.7501,4.7871,4.8286,4.8517,4.8975,4.9516,0.0,0.0,0.0,0.0,0.0,0.0,0.0,0.0,0.0,0.0,0.0,0.0,0.0,0.0,0.0,3.1503,3.1503,3.1503,3.1503,3.1503,3.1503,3.1503,3.2131,3.2512,3.2527,0.0,0.0,0.0,0.0,0.0,0.0,0.0,3.3874,0.0,3.4481,3.4481,3.4496,0.0,3.4143,3.3567,0.0,3.4352,3.4569,0.0,0.0,0.0,3.5496,3.5496,0.0,0.0,0.0,0.0,0.0,0.0,0.0,0.0,0.0,0.0,0.0,0.0,0.0,0.0,0.0,0.0,0.0,0.0,0.0,0.0,0.0,0.0,0.0,0.0,0.0,0.0,0.0,0.0,0.0,0.0,0.0,0.0,0.0,0.0,0.0,0.0,0.0,0.0,4.3314,4.3329,4.33,4.33,4.3423,4.369,4.371,4.39,4.4291,4.431,4.4406,4.4591,4.4591,4.4945,4.5551,4.4899,4.496,4.5566,4.5566,4.5582,4.5597,4.5643,4.6044,4.6726,4.7388,4.7635,4.7701,4.8363,4.862,4.8759,0.0,0.0,0.0,0.0,0.0,0.0,0.0,0.0,0.0,0.0,0.0,0.0,0.0,0.0,0.0,3.1503,3.1503,3.1503,3.1503,3.1503,3.1503,3.1503,3.2131,3.2729,0.0,0.0,0.0,0.0,0.0,0.0,0.0,0.0,0.0,0.0,3.3994,3.4054,3.4526,3.5019,0.0,0.0,3.4888,3.5084,0.0,0.0,0.0,0.0,0.0,3.5496,0.0,0.0,3.5818,3.6216,0.0,0.0,0.0,0.0,0.0,0.0,3.7725,0.0,0.0,0.0,0.0,0.0,0.0,0.0,0.0,0.0,0.0,0.0,0.0,0.0,0.0,0.0,0.0,0.0,0.0,0.0,0.0,0.0,0.0,0.0,0.0,0.0,0.0,0.0,4.3758,4.3818,4.3329,4.33,4.3423,4.369,4.3832,4.4046,4.4301,4.4444,4.4534,4.4591,4.4591,4.4699,4.4868,4.4683,4.4699,4.4883,4.4883,4.5145,4.5674,4.665,4.745,4.8071,4.8255,4.8317,4.8348,4.8522,4.9005,4.956,0.0,0.0,0.0,0.0,0.0,0.0,0.0,0.0,0.0,0.0,0.0,0.0,0.0,0.0,0.0,3.1503,3.1503,3.1503,3.1503,3.1503,3.1503,3.1503,3.2407,3.3095,0.0,0.0,0.0,0.0,0.0,0.0,0.0,0.0,0.0,0.0,0.0,0.0,0.0,0.0,0.0,0.0,3.534,0.0,0.0,3.5464,3.5431,0.0,0.0,0.0,3.5863,3.5586,3.5759,0.0,0.0,0.0,0.0,0.0,0.0,0.0,0.0,0.0,0.0,0.0,0.0,0.0,3.8542,3.9215,0.0,0.0,0.0,0.0,0.0,0.0,0.0,0.0,0.0,0.0,0.0,0.0,0.0,0.0,0.0,0.0,0.0,4.53,4.487,4.3803,4.4072,4.3903,4.296,4.2925,4.3063,4.3394,4.353,4.3853,4.441,4.4549,4.4591,4.4591,4.4591,4.4591,4.4591,4.4591,4.4591,4.4591,4.4591,4.5145,4.6074,4.6865,4.7588,4.8178,4.8178,4.8348,4.8635,4.9,4.9234,4.9516,0.0,0.0,0.0,0.0,0.0,0.0,0.0,0.0,0.0,0.0,0.0,0.0,0.0,0.0,0.0,0.0,3.1503,3.1503,3.1503,3.1503,0.0,0.0,0.0,0.0,0.0,0.0,0.0,0.0,0.0,0.0,0.0,0.0,0.0,0.0,0.0,0.0,0.0,0.0,0.0,3.5496,3.5496,3.5496,0.0,0.0,3.5496,0.0,3.5496,3.5878,3.6306,3.5789,3.5556,0.0,0.0,0.0,0.0,0.0,3.5976,0.0,0.0,0.0,0.0,0.0,0.0,0.0,3.8542,3.8922,3.9406,0.0,0.0,0.0,0.0,0.0,0.0,0.0,0.0,0.0,0.0,0.0,0.0,0.0,0.0,0.0,4.5409,4.5479,4.5214,4.4471,4.4267,4.3639,4.2395,4.23,4.2483,4.2917,4.2898,4.3362,4.4375,4.4452,4.4492,4.4492,4.456,4.4591,4.4591,4.4591,4.4591,4.4591,4.4683,4.5391,4.6496,4.6573,4.7034,4.7701,4.7701,4.8071,4.8708,4.957,4.9415,4.9071,2.8404,0.0,0.0,0.0,0.0,0.0,0.0,0.0,0.0,0.0,0.0,0.0,0.0,0.0,0.0,0.0,0.0,3.1503,3.1503,0.0,0.0,0.0,0.0,3.2953,0.0,0.0,0.0,0.0,0.0,0.0,0.0,0.0,0.0,0.0,0.0,0.0,0.0,0.0,0.0,3.5496,3.5496,0.0,3.5496,3.5496,3.5496,3.5496,3.5496,3.5586,3.5759,0.0,3.5953,3.5586,0.0,0.0,0.0,0.0,0.0,0.0,0.0,0.0,0.0,0.0,0.0,0.0,3.8542,3.8922,3.9406,0.0,0.0,0.0,0.0,0.0,0.0,0.0,0.0,0.0,0.0,0.0,0.0,0.0,0.0,0.0,4.6091,4.658,4.6411,4.52,4.4112,4.3004,4.1906,4.1683,4.1848,4.2422,4.2274,4.2452,4.2993,4.3528,4.3799,4.3799,4.4338,4.4591,4.4591,4.4591,4.4591,4.4622,4.5176,4.5551,4.5844,4.6382,4.7311,4.8409,4.8409,4.8476,4.8708,4.957,4.9789,4.9809,2.8106,0.0,0.0,0.0,0.0,0.0,0.0,0.0,0.0,0.0,0.0,0.0,0.0,0.0,0.0,0.0,0.0,0.0,0.0,0.0,0.0,0.0,3.2467,3.3155,0.0,0.0,0.0,0.0,0.0,0.0,0.0,0.0,0.0,0.0,0.0,0.0,0.0,0.0,3.519,3.5496,3.5496,0.0,3.5496,3.5496,3.5496,3.5496,3.5496,3.5496,3.5609,3.6276,3.6051,0.0,0.0,3.5774,3.5496,0.0,3.5496,3.5496,0.0,0.0,0.0,3.6941,0.0,0.0,0.0,3.8922,3.9311,3.8966,3.9709,0.0,0.0,0.0,0.0,0.0,0.0,0.0,0.0,0.0,0.0,0.0,0.0,0.0,4.6805,4.6805,4.6251,4.489,4.3599,4.2519,4.1733,4.1285,4.1275,4.1784,4.1693,4.1958,4.2593,4.2934,4.3267,4.3599,4.3938,4.4277,4.4591,4.4591,4.4591,4.4631,4.496,4.5484,4.6121,4.6449,4.7388,4.8522,4.7855,4.8009,4.8702,4.9617,4.9926,5.0134,2.7736,0.0,0.0,0.0,0.0,0.0,0.0,0.0,0.0,0.0,0.0,0.0,0.0,0.0,0.0,0.0,0.0,0.0,0.0,0.0,0.0,0.0,0.0,3.3432,0.0,3.4756,0.0,0.0,0.0,0.0,0.0,0.0,0.0,0.0,0.0,0.0,0.0,0.0,0.0,3.5496,0.0,3.5496,3.5496,3.5496,3.5496,3.5496,3.5496,3.5496,3.5586,3.6118,0.0,3.5661,3.5541,3.5594,0.0,0.0,0.0,0.0,0.0,0.0,0.0,0.0,0.0,3.8401,0.0,0.0,0.0,3.8676,0.0,0.0,0.0,0.0,0.0,0.0,0.0,0.0,0.0,0.0,0.0,0.0,0.0,0.0,0.0,4.6311,4.5358,4.4022,4.2855,4.2017,4.1587,4.0884,4.0698,4.1125,4.1122,4.1454,4.2193,4.2331,4.274,4.3405,4.3538,4.3953,4.4591,4.4591,4.4591,4.4606,4.4745,4.5484,4.6603,4.6742,4.7501,4.8486,4.7419,4.7751,4.8968,4.9884,5.0271,5.0659,2.8192,2.8928,0.0,0.0,0.0,0.0,0.0,0.0,0.0,0.0,0.0,0.0,0.0,0.0,0.0,0.0,0.0,0.0,3.1503,0.0,0.0,0.0,0.0,0.0,3.4361,3.454,0.0,0.0,0.0,0.0,0.0,0.0,0.0,0.0,3.5496,0.0,0.0,0.0,3.5496,0.0,3.5496,3.5496,0.0,3.5496,3.5496,3.5496,3.5496,3.5496,3.5511,0.0,3.5953,3.6276,0.0,3.5908,0.0,0.0,0.0,0.0,0.0,0.0,0.0,0.0,3.7898,0.0,0.0,0.0,3.867,3.9176,0.0,0.0,0.0,0.0,0.0,0.0,0.0,0.0,0.0,0.0,0.0,0.0,0.0,0.0,0.0,4.492,4.4003,4.2715,4.1937,4.1398,4.1095,4.0263,4.0045,4.0569,4.048,4.0519,4.0744,4.1392,4.2048,4.2725,4.3313,4.3953,4.4591,4.4591,4.4591,4.4637,4.5237,4.5905,4.665,4.7234,4.7932,4.8583,4.843,4.8947,4.9843,5.0671,5.1431,5.2173,2.7808,2.8167,0.0,0.0,0.0,0.0,0.0,0.0,0.0,0.0,0.0,0.0,0.0,0.0,0.0,0.0,0.0,3.2194,0.0,0.0,0.0,0.0,0.0,0.0,0.0,3.4008,3.432,0.0,3.4597,0.0,0.0,0.0,0.0,0.0,3.4799,0.0,3.5496,0.0,0.0,0.0,0.0,0.0,0.0,3.5496,3.5496,3.5496,3.5496,3.5496,3.5496,0.0,3.5953,0.0,0.0,0.0,0.0,0.0,0.0,0.0,0.0,0.0,0.0,0.0,0.0,0.0,3.8311,0.0,3.8595,0.0,0.0,0.0,0.0,0.0,0.0,0.0,4.0367,0.0,0.0,0.0,0.0,0.0,0.0,0.0,0.0,0.0,0.0,0.0,4.1922,4.1859,4.1586,4.0864,4.0662,4.1113,4.0677,4.0444,4.0498,4.0814,4.1507,4.2593,4.2488,4.2989,4.4015,4.4015,4.4015,4.4061,4.4729,4.5613,4.6619,4.6896,4.764,4.8646,4.9153,4.9586,4.9949,5.0322,5.1239,5.2422,2.7461,0.0,0.0,0.0,0.0,0.0,0.0,0.0,0.0,0.0,0.0,0.0,3.0318,3.0817,0.0,0.0,0.0,3.3119,0.0,0.0,3.2804,0.0,0.0,0.0,0.0,0.0,0.0,0.0,0.0,0.0,0.0,0.0,0.0,0.0,0.0,3.4627,3.5197,0.0,0.0,3.5496,3.5496,3.5496,3.5496,3.5496,3.5496,3.5496,3.5496,3.5624,3.5774,3.5774,3.6335,0.0,3.6799,0.0,0.0,0.0,0.0,0.0,3.7554,0.0,0.0,0.0,0.0,0.0,0.0,0.0,0.0,0.0,0.0,0.0,0.0,0.0,0.0,0.0,0.0,0.0,0.0,0.0,0.0,0.0,0.0,0.0,0.0,0.0,0.0,4.1493,4.173,4.1846,4.1658,4.1061,4.0901,4.123,4.0758,4.0498,4.0498,4.0498,4.1107,4.2316,4.2023,4.238,4.3328,4.3522,4.3599,4.3639,4.4107,4.5083,4.6361,4.6762,4.761,4.8751,4.9829,5.0351,5.0557,5.0619,5.1474,5.2704,2.7401,2.7493,0.0,0.0,0.0,0.0,0.0,0.0,0.0,0.0,0.0,0.0,0.0,0.0,0.0,0.0,0.0,3.4165,3.3544,0.0,3.3025,0.0,0.0,3.3663,0.0,0.0,0.0,0.0,0.0,0.0,0.0,0.0,0.0,0.0,0.0,3.4312,3.4388,3.5166,3.5496,3.5496,3.5496,3.5496,3.5496,0.0,3.5496,3.5496,3.5496,0.0,0.0,3.6464,3.7293,0.0,0.0,0.0,0.0,0.0,0.0,0.0,0.0,0.0,0.0,3.7716,0.0,0.0,0.0,0.0,3.7815,0.0,0.0,0.0,0.0,0.0,0.0,0.0,0.0,0.0,0.0,0.0,0.0,0.0,0.0,0.0,0.0,0.0,0.0,4.1482,4.1005,4.0755,4.0734,4.0292,4.0138,4.0342,4.0436,4.0498,4.0498,4.0498,4.0876,4.1632,4.2279,4.2593,4.2654,4.3297,4.3599,4.3599,4.3615,4.44,4.5742,4.717,4.8171,4.894,5.0475,5.1542,5.2227,5.2221,5.2739,5.3467,0.0,0.0,0.0,0.0,0.0,0.0,0.0,2.9601,0.0,0.0,0.0,0.0,0.0,0.0,3.3853,0.0,0.0,3.5625,3.5488,3.4743,0.0,0.0,0.0,3.3084,0.0,0.0,0.0,0.0,0.0,0.0,0.0,0.0,0.0,0.0,0.0,3.3112,0.0,0.0,0.0,0.0,0.0,3.5774,3.6111,0.0,0.0,3.5496,3.5496,3.5931,0.0,3.6508,3.7347,3.8356,3.8123,3.8221,3.8446,3.8667,3.8571,0.0,0.0,0.0,3.9182,3.8287,0.0,0.0,0.0,0.0,0.0,0.0,0.0,0.0,0.0,0.0,0.0,0.0,0.0,0.0,0.0,0.0,0.0,0.0,0.0,0.0,0.0,0.0,0.0,4.0775,4.0581,4.0563,4.0694,4.067,4.0753,4.0952,4.0666,4.0498,4.0498,4.0498,4.0876,4.1601,4.1346,4.1691,4.2593,4.238,4.2758,4.3599,4.3599,4.4606,4.6343,4.7371,4.8478,4.9687,5.1269,5.2058,5.2298,5.2298,5.2808,5.3492,2.8285,0.0,0.0,0.0,0.0,0.0,0.0,0.0,0.0,0.0,3.1595,0.0,3.262,0.0,3.4805,0.0,3.629,3.6772,3.6122,3.5812,0.0,3.5445,3.4018,0.0,0.0,0.0,0.0,0.0,3.1598,3.1241,0.0,0.0,0.0,0.0,0.0,0.0,0.0,0.0,3.447,0.0,0.0,3.5759,0.0,0.0,3.5654,3.5857,0.0,3.6267,3.6859,3.7107,3.7877,3.8751,3.8751,3.8751,3.8796,3.8981,3.8907,3.8796,3.8981,3.9212,0.0,3.8565,3.8401,0.0,3.8401,0.0,0.0,0.0,0.0,0.0,0.0,0.0,0.0,0.0,0.0,0.0,0.0,4.1885,0.0,0.0,0.0,0.0,0.0,0.0,4.1107,4.0116,4.0336,4.0325,0.0,0.0,4.0954,4.0845,4.0876,4.0768,4.0498,4.0498,4.0737,4.1208,4.0984,4.1368,4.2248,4.2039,4.2688,4.3953,4.3953,4.496,4.6702,4.8032,4.9122,5.0128,5.2004,5.2738,5.2738,5.2738,5.3058,5.3492,0.0,0.0,0.0,0.0,2.9384,0.0,0.0,0.0,3.0583,0.0,3.1863,3.213,3.2712,3.476,3.5826,3.5195,3.7136,0.0,3.5531,3.6032,0.0,0.0,3.5296,3.5256,3.5299,0.0,0.0,0.0,3.1361,3.1005,0.0,0.0,0.0,0.0,3.1727,0.0,3.3134,3.3888,3.4675,3.5432,3.5432,3.5479,3.5541,3.5541,3.5953,3.6545,3.6508,3.6889,3.7501,3.8167,3.8856,3.9406,3.9406,3.9406,3.9272,3.864,3.8901,3.9266,3.8616,3.8907,3.9251,3.8601,0.0,0.0,0.0,0.0,3.8631,0.0,0.0,0.0,0.0,0.0,0.0,0.0,0.0,0.0,0.0,0.0,0.0,0.0,0.0,0.0,0.0,4.2821,4.1911,3.9613,4.0154,3.995,0.0,0.0,4.0703,4.0017,4.1007,4.1208,4.0513,4.0498,4.0498,4.0513,4.1208,4.1555,4.1617,4.2285,4.3325,4.4591,4.4637,4.5426,4.6879,4.9094,5.0035,5.0348,5.261,5.3492,5.3492,5.3492,5.3492,5.3492,2.8952,2.975,3.0378,0.0,3.0561,3.0604,0.0,0.0,0.0,0.0,3.2868,3.3352,3.3901,3.5066,3.5728,3.5558,3.7191,0.0,0.0,0.0,0.0,3.6891,3.5325,3.474,3.529,3.2849,0.0,3.2092,3.1361,0.0,3.1005,0.0,0.0,0.0,0.0,0.0,3.1607,3.2344,3.3417,3.461,3.461,3.5258,0.0,0.0,3.6626,3.7105,3.6665,3.6889,3.7501,3.8167,3.8856,3.9406,3.9406,3.9406,3.9376,3.9191,3.9272,3.9361,3.9191,3.9272,3.9361,3.9191,3.9137,3.9137,0.0,0.0,0.0,0.0,0.0,0.0,0.0,0.0,0.0,0.0,0.0,0.0,0.0,0.0,0.0,4.298,0.0,0.0,4.3605,4.1914,4.0604,4.0161,3.9574,3.8978,3.8433,0.0,0.0,4.0026,4.0515,4.0683,4.0498,4.0498,4.0498,4.0498,4.0683,4.1069,4.1617,4.2285,4.3325,4.4622,4.513,4.6445,4.8328,4.9511,5.0678,5.1822,5.3026,5.3492,5.3492,5.3492,5.3492,5.3492,2.8503,0.0,0.0,3.0428,0.0,0.0,3.1356,0.0,0.0,3.2591,3.2996,0.0,3.3979,3.5038,3.5591,3.5333,3.6816,0.0,0.0,0.0,0.0,3.6329,3.5779,3.542,3.5228,3.3014,0.0,3.2092,0.0,0.0,3.1005,0.0,0.0,0.0,0.0,3.1189,0.0,3.2608,3.3686,3.4731,3.5102,0.0,0.0,3.6799,3.7097,3.7396,3.7353,3.7548,3.7943,3.8616,3.9086,3.9406,3.9406,3.9406,3.9406,3.9406,3.9406,3.9406,3.9406,3.9406,3.9406,3.9406,3.9406,3.9406,3.9406,3.9406,3.9406,0.0,0.0,0.0,0.0,0.0,0.0,0.0,0.0,0.0,0.0,0.0,0.0,0.0,4.2765,0.0,4.4036,4.1271,3.9534,3.9778,3.9386,3.9003,0.0,0.0,0.0,4.0167,4.0966,4.1122,4.0513,4.0814,4.0984,4.0984,4.0984,4.1509,4.2497,4.3165,4.4212,4.5505,4.6172,4.7541,4.934,5.0149,5.1203,5.2336,5.2808,5.3188,5.3458,5.3112,5.3196,5.3492,0.0,0.0,0.0,0.0,0.0,0.0,0.0,3.1591,0.0,3.2695,0.0,3.3127,3.365,3.4723,3.5294,3.4946,0.0,3.615,3.4416,3.6755,3.7266,3.5167,3.6236,3.6329,3.5133,3.3617,0.0,0.0,0.0,0.0,0.0,0.0,0.0,0.0,0.0,0.0,0.0,3.3439,3.4401,3.5143,3.5884,3.6371,3.668,3.73,3.7539,3.762,3.8296,3.8476,3.8505,3.9167,3.9406,3.9406,3.9406,3.9406,3.9406,3.9406,3.9406,3.9406,3.9406,3.9406,3.9406,3.9406,3.9406,3.9406,3.9406,3.9406,3.9406,3.9406,3.9406,3.9406,0.0,0.0,0.0,0.0,0.0,0.0,0.0,0.0,0.0,0.0,0.0,0.0,4.3907,4.1046,3.9162,3.9254,3.9662,3.9645,0.0,0.0,0.0,4.0334,4.1611,4.1784,4.0661,0.0,4.1601,4.1601,4.1694,4.2303,4.3368,4.4308,4.5376,4.6521,4.7357,4.8628,5.0114,5.0805,5.1568,5.2312,5.2421,5.2756,5.3145,5.2638,5.2765,5.3205,0.0,0.0,0.0,0.0,0.0,3.1977,3.2476,3.2891,3.3218,3.3427,3.3833,3.4136,3.4241,3.4094,3.4388,3.5449,3.5344,0.0,0.0,0.0,0.0,3.6551,3.5694,3.5174,3.5101,3.3067,3.2034,0.0,0.0,0.0,0.0,0.0,0.0,0.0,0.0,0.0,3.1871,3.212,0.0,3.4391,3.4534,3.5657,3.7306,3.7973,3.8221,3.8302,3.8981,3.8871,3.8505,3.9167,3.9406,3.9406,3.9406,3.9406,3.9406,3.9406,3.9406,3.9406,3.9406,3.9406,3.9406,3.9406,3.9406,3.9406,3.9406,3.9406,3.9406,3.9406,3.9406,3.9406,3.9406,0.0,0.0,0.0,0.0,0.0,0.0,0.0,0.0,0.0,0.0,0.0,0.0,4.1817,4.1213,4.0688,0.0,0.0,0.0,0.0,0.0,0.0,4.0666,0.0,0.0,0.0,4.1601,4.1617,4.2162,4.2263,4.2026,4.4366,4.5551,4.5874,4.764,4.9365,5.09,5.1042,5.1565,5.237,5.3028,5.2596,5.175,5.2866,5.2562,5.1691,0.0,0.0,0.0,0.0,0.0,0.0,0.0,3.365,0.0,3.3637,3.382,3.3989,3.3989,3.4003,3.4177,3.4589,3.4696,3.4866,3.5174,3.5947,3.615,3.5628,3.5384,0.0,3.388,3.2821,3.2019,3.1529,0.0,0.0,0.0,0.0,0.0,0.0,0.0,3.1977,0.0,0.0,0.0,3.4696,3.5121,3.6347,3.7988,3.8652,3.8922,3.896,3.9287,3.9191,3.8966,3.9287,3.9406,3.9406,3.9406,3.9406,3.9406,3.9406,3.9406,3.9406,3.9406,3.9406,3.9406,3.9406,3.9406,3.9406,3.9406,3.9406,3.9406,3.9406,3.9406,3.9517,3.9897,3.9977,0.0,0.0,0.0,0.0,0.0,0.0,0.0,0.0,0.0,0.0,0.0,0.0,0.0,0.0,0.0,0.0,0.0,0.0,0.0,0.0,0.0,0.0,0.0,0.0,0.0,4.2651,4.3319,4.3658,4.3769,4.6162,4.7259,4.7356,4.9135,5.0595,5.1744,5.2167,5.2566,5.2926,5.2892,5.241,5.1818,5.2165,5.1598,5.0794,0.0,2.7558,0.0,0.0,3.1498,0.0,3.3532,3.4068,3.4241,3.3833,3.3767,3.3767,3.3767,3.4055,3.4179,3.4069,3.431,3.4353,3.407,3.5013,3.5233,3.4434,3.5063,3.4633,3.2937,3.2774,3.2199,0.0,0.0,0.0,0.0,0.0,0.0,0.0,0.0,0.0,0.0,0.0,3.3344,3.5193,3.5952,3.7203,3.8661,3.9206,3.9406,3.9406,3.9406,3.9406,3.9406,3.9406,3.9406,3.9406,3.9406,3.9406,3.9406,3.9406,3.9406,3.9406,3.9406,3.9406,3.9406,3.9406,3.9406,3.9406,3.9406,3.9406,3.9406,3.9406,3.9526,3.9844,4.0581,4.0703,0.0,0.0,0.0,0.0,0.0,0.0,0.0,0.0,0.0,0.0,0.0,0.0,0.0,0.0,0.0,0.0,0.0,0.0,0.0,0.0,0.0,4.267,4.2817,0.0,4.3599,4.3608,4.4446,4.5118,4.5705,4.7855,4.8914,4.913,5.0502,5.156,5.2352,5.3178,5.3399,5.3196,5.2739,5.2266,5.1809,5.1522,5.0777,5.0075,0.0,0.0,0.0,0.0,0.0,0.0,0.0,3.4068,3.4384,3.4332,3.4332,3.4332,3.4332,3.3937,3.4159,3.5396,3.4398,3.4221,3.542,3.4901,3.4498,3.4408,3.4481,3.4203,3.3532,3.2983,3.2385,0.0,0.0,0.0,0.0,0.0,0.0,0.0,0.0,0.0,0.0,3.2424,3.364,3.5248,3.5878,3.74,3.9316,3.9376,3.9406,3.9406,3.9406,3.9406,3.9406,3.9406,3.9406,3.9406,3.9406,3.9406,3.9406,3.9406,3.9406,3.9406,3.9406,3.9406,3.9406,3.9406,3.9406,3.9406,3.9406,3.9406,3.9406,3.9406,3.9932,4.0591,4.1277,4.141,4.1624,0.0,0.0,0.0,0.0,0.0,0.0,0.0,0.0,0.0,0.0,4.0418,0.0,0.0,4.0813,0.0,0.0,0.0,0.0,4.0606,0.0,4.2879,4.3507,4.3568,4.3599,4.3618,4.497,4.5662,4.5846,4.7935,4.9263,4.993,5.0755,5.156,5.2352,5.3178,5.3069,5.2486,5.312,5.2131,5.0464,5.1725,5.0871,4.9315,0.0,0.0,0.0,0.0,0.0,0.0,0.0,3.4254,3.4397,3.4397,3.4397,3.4397,3.4397,3.4212,3.4317,3.4875,3.4405,3.4327,3.4875,3.4582,3.4397,3.4397,3.4397,3.4149,3.361,3.3352,3.2767,0.0,0.0,0.0,0.0,0.0,0.0,0.0,0.0,3.2222,3.2336,3.2208,3.355,3.5761,3.5996,3.7431,3.9406,3.9406,3.9406,3.9406,3.9406,3.9406,3.9406,3.9406,3.9406,3.9406,3.9406,3.9406,3.9406,3.9406,3.9406,3.9406,3.9406,3.9406,3.9406,3.9406,3.9406,3.9406,3.9406,3.9406,3.9406,3.9406,3.9994,4.0839,4.1965,4.2166,4.2261,0.0,0.0,0.0,0.0,0.0,0.0,0.0,0.0,0.0,0.0,3.897,3.9915,0.0,0.0,0.0,0.0,0.0,0.0,4.2334,0.0,4.2703,4.4184,4.4591,4.5041,4.5533,4.6912,4.782,4.8386,5.0139,5.1377,5.2115,5.2413,5.2454,5.2319,5.2648,5.2325,5.1658,5.1996,5.1285,5.0227,5.126,5.0803,4.9872,3.0734,0.0,3.193,0.0,3.3429,3.3953,3.4332,3.4397,3.4397,3.4397,3.4397,3.4397,3.4397,3.4397,3.4397,3.4397,3.4397,3.4397,3.4397,3.4397,3.4397,3.4397,3.4397,0.0,3.3846,3.3689,3.3104,3.2055,3.2489,0.0,0.0,0.0,0.0,0.0,3.199,3.2042,3.2414,3.2169,3.348,3.5747,3.6168,3.7417,3.9068,3.9301,3.9406,3.9406,3.9406,3.9406,3.9406,3.9406,3.9406,3.9406,3.9406,3.9406,3.9406,3.9406,3.9406,3.9406,3.9406,3.9406,3.9406,3.9406,3.9406,3.9406,3.9406,3.9406,3.9454,3.9672,4.0287,4.1152,4.2388,4.2757,4.2897,4.2897,0.0,0.0,0.0,0.0,0.0,0.0,3.7696,3.7024,3.6727,3.8125,3.9233,0.0,0.0,0.0,0.0,0.0,0.0,0.0,0.0,0.0,0.0,4.5268,4.5885,4.647,4.807,4.924,5.0061,5.1845,5.2955,5.3501,5.3247,5.2816,5.2283,5.208,5.1658,5.1201,5.1201,5.0752,5.0193,5.0939,5.0719,5.0312,3.1993,3.2273,3.2722,3.4124,3.4384,3.4384,3.4397,3.4397,3.4397,3.4397,3.4397,3.4397,3.4397,3.4397,3.4397,3.4397,3.4397,3.4397,3.4397,3.4397,3.4397,0.0,0.0,3.4397,3.4384,3.3862,3.331,3.2695,0.0,0.0,3.181,0.0,3.2375,3.181,3.1797,3.1797,3.185,3.244,3.3515,3.4936,3.6331,3.742,3.8296,3.9101,3.9406,3.9406,3.9406,3.9406,3.9406,3.9406,3.9406,3.9406,3.9406,3.9406,3.9406,3.9406,3.9406,3.9406,3.9406,3.9406,3.9406,3.9406,3.9406,3.9406,3.9406,3.9406,3.9616,4.0346,4.1025,4.1714,4.2451,4.3151,4.3591,4.3591,0.0,0.0,0.0,0.0,0.0,0.0,3.8567,3.8151,3.6831,3.8201,0.0,0.0,0.0,0.0,0.0,0.0,0.0,4.056,4.2503,0.0,4.4591,4.5268,4.5607,4.5636,4.7847,4.9298,5.0079,5.2431,5.3492,5.3467,5.2655,5.2317,5.2249,5.1505,5.1201,5.1201,5.1201,5.0752,5.0193,5.0939,5.0719,5.0312,3.3635,3.3726,3.3874,3.4317,3.4397,3.4397,3.4397,3.4397,3.4397,3.4397,3.4397,3.4397,3.4397,3.4397,3.4397,0.0,3.4397,3.4397,0.0,3.4397,3.4397,3.4397,3.4397,3.4397,3.4397,3.4228,3.3862,3.331,0.0,0.0,0.0,3.3221,3.2986,3.2401,3.2401,3.2636,3.3041,3.3221,3.4439,3.6264,3.6723,3.7743,3.9055,3.9292,3.9406,3.9406,3.9406,3.9406,3.9406,3.9406,3.9406,3.9406,3.9406,3.9406,3.9406,3.9406,3.9406,3.9406,3.9406,3.9406,3.9406,3.9406,3.9406,3.9406,3.9406,3.9797,4.0355,4.1034,4.1746,4.2604,4.3813,4.38,4.3755,4.4274,4.3746,0.0,0.0,0.0,0.0,0.0,3.676,3.635,0.0,3.699,0.0,0.0,0.0,0.0,0.0,0.0,0.0,0.0,4.2811,0.0,4.5268,4.5951,4.6786,4.78,4.9559,5.0819,5.1612,5.291,5.3205,5.2706,5.2993,5.2511,5.1522,5.1302,5.0609,4.9704,4.9704,4.956,4.9509,5.0744,5.1049,5.1074,3.4397,3.4397,3.4397,3.4397,3.4397,3.4397,3.4397,3.4397,3.4397,3.4397,3.4397,3.4397,3.4397,3.4397,0.0,3.4397,3.4397,3.4397,3.4397,3.4397,3.4397,3.4397,3.4397,3.4397,3.4397,0.0,0.0,3.3597,3.3705,3.3597,3.3257,3.3257,3.3061,3.2695,3.2695,3.3035,3.3597,3.3597,3.4503,3.6019,3.6646,3.752,3.8527,3.9159,3.9406,3.9406,3.9406,3.9406,3.9406,3.9406,3.9406,3.9406,3.9406,3.9406,3.9406,3.9406,3.9406,3.9406,3.9406,3.9406,3.9406,3.9406,3.9406,3.9406,3.9406,3.9977,4.0686,4.136,4.231,4.3365,4.4482,4.4324,4.4167,4.4637,4.3871,4.2581,4.0761,0.0,0.0,0.0,0.0,0.0,0.0,3.713,3.7929,0.0,0.0,0.0,0.0,0.0,0.0,4.2835,4.318,0.0,4.5582,4.6511,4.759,4.8817,5.0357,5.1376,5.1902,5.241,5.2511,5.2317,5.2545,5.2089,5.1184,5.0905,5.0076,4.8994,4.8994,4.9171,4.956,5.0769,5.1387,5.1793,3.4397,3.4397,0.0,0.0,3.4397,0.0,3.4397,3.4397,3.4397,3.4397,3.4397,3.4397,3.4397,3.4397,3.4397,3.4397,0.0,0.0,0.0,3.4397,3.4397,3.4397,3.4397,3.4397,3.4397,3.4397,3.4159,3.3663,3.3101,3.2826,3.2826,3.2826,3.2826,3.2826,3.2826,3.3127,3.3663,3.3663,3.3981,3.4634,3.6247,3.6943,3.7175,3.8782,3.9406,3.9406,3.9406,3.9406,3.9406,3.9406,3.9406,3.9406,3.9406,3.9406,3.9406,3.9406,3.9406,3.9406,3.9406,3.9406,3.9406,3.9406,3.9406,3.9406,3.9466,4.0081,4.0847,4.151,4.2823,4.4047,4.4729,4.4819,4.4754,4.4708,4.3526,4.2075,4.057,0.0,0.0,0.0,0.0,0.0,0.0,3.8285,3.8957,0.0,0.0,0.0,0.0,0.0,4.3097,4.1848,4.3713,4.5068,4.5736,4.7033,4.811,4.8974,5.0407,5.1102,5.1133,5.1235,5.1632,5.2198,5.1497,5.1201,5.1133,5.0388,4.9669,4.9018,4.9069,4.9492,5.0193,5.0989,5.1716,5.2418,0.0,0.0,3.4397,3.4397,3.4397,3.4397,3.4397,3.4397,3.4397,3.4397,3.4397,3.4397,3.4397,3.4397,3.4397,3.4397,3.4397,3.4397,3.4397,3.4397,3.4397,3.4397,3.4397,3.4397,3.4397,3.4397,3.4332,3.4201,3.4071,3.4003,3.4003,3.4003,3.4003,3.4003,3.4003,3.4071,3.4201,3.4201,3.467,3.5487,3.6494,3.7304,3.7995,3.9022,3.9406,3.9406,3.9406,3.9406,3.9406,3.9406,3.9406,3.9406,3.9406,3.9406,3.9406,3.9406,3.9406,3.9406,3.9406,3.9406,3.9406,3.9406,3.9406,3.9526,4.0043,4.117,4.2281,4.2952,4.4285,4.5526,4.6254,4.5922,4.536,4.4869,4.3594,4.182,3.933,3.8701,0.0,0.0,3.7154,3.7487,3.753,3.7845,3.856,0.0,0.0,0.0,0.0,4.3627,4.4221,4.3898,4.5336,4.6459,4.7127,4.8047,4.9203,5.0567,5.0939,5.0843,5.0388,5.1522,5.1835,5.1455,5.1286,5.1201,5.1133,5.0388,4.9669,4.9069,4.961,4.9956,5.0269,5.1555,5.2139,5.2418,3.4397,3.4397,3.4397,3.4397,3.4397,3.4397,3.4397,3.4397,3.4397,3.4397,3.4397,3.4397,3.4397,3.4397,3.4397,3.4397,3.4397,3.4397,3.4397,3.4397,3.4397,3.4397,3.4397,3.4397,3.4397,3.4397,3.4397,3.4397,3.4397,3.4397,3.4397,3.4397,3.4397,3.4397,3.4397,3.4397,3.4397,3.4397,3.4899,3.5766,3.6582,3.7424,3.8287,3.9086,3.9406,3.9406,3.9406,3.9406,3.9406,3.9406,3.9406,3.9406,3.9406,3.9406,3.9406,3.9406,3.9406,3.9406,3.9406,3.9406,3.9406,3.9406,3.964,4.0048,4.0786,4.2045,4.3256,4.4001,4.5294,4.6435,4.6833,4.6303,4.5577,4.4919,4.3597,4.1789,3.931,3.8956,0.0,3.7078,3.7464,3.7981,3.8279,3.8856,3.967,4.0804,4.1799,0.0,4.3464,4.4489,4.4914,4.4606,4.5905,4.6773,4.7142,4.8281,4.9438,5.0608,5.0967,5.096,5.0642,5.1429,5.1573,5.1201,5.1201,5.1201,5.1133,5.0388,4.9855,4.9543,4.994,5.0312,5.0744,5.1877,5.2528,5.29,3.4397,3.4397,3.4397,3.4397,3.4397,3.4397,3.4397,3.4397,3.4397,3.4397,3.4397,3.4397,3.4397,3.4397,3.4397,3.4397,3.4397,3.4397,3.4397,3.4397,3.4397,3.4397,3.4397,3.4397,3.4397,3.4397,3.4397,3.4397,3.4397,3.4397,3.4397,3.4397,3.4397,3.4397,3.4397,3.4397,3.4397,3.4397,3.4899,3.5766,3.6582,3.7424,3.8287,3.9086,3.9406,3.9406,3.9406,3.9406,3.9406,3.9406,3.9406,3.9406,3.9406,3.9406,3.9406,3.9406,3.9406,3.9406,3.9406,3.9466,3.9556,3.9556,4.0068,4.0792,4.1679,4.2775,4.3835,4.4755,4.5979,4.6847,4.6741,4.6309,4.5629,4.4623,4.3323,4.1725,3.963,0.0,3.8891,3.7683,3.8262,3.8939,3.9404,4.0575,4.151,4.2005,4.3177,4.4125,4.4714,4.5391,4.5499,4.4929,4.6013,4.6657,4.677,4.808,4.9175,5.0028,5.0817,5.1133,5.1032,5.1252,5.1235,5.1032,5.115,5.1201,5.115,5.0524,5.0278,5.0278,5.0396,5.0811,5.1455,5.2215,5.29,5.3492,3.4397,3.4397,3.4397,3.4397,3.4397,3.4397,3.4397,3.4397,3.4397,3.4397,3.4397,3.4397,3.4397,3.4397,3.4397,3.4397,3.4397,3.4397,3.4397,3.4397,3.4397,3.4397,3.4397,3.4397,3.4397,3.4397,3.4397,3.4397,3.4397,3.4397,3.4397,3.4397,3.4397,3.4397,3.4397,3.4397,3.4397,3.4397,3.4899,3.5766,3.6582,3.7424,3.8287,3.9086,3.9406,3.9406,3.9406,3.9406,3.9406,3.9406,3.9406,3.9406,3.9406,3.9406,3.9406,3.9406,3.9406,3.9406,3.9406,3.9819,4.0238,4.0238,4.075,4.1581,4.2913,4.3371,4.389,4.5281,4.6239,4.6631,4.6003,4.6343,4.5873,4.3281,4.2241,4.101,3.8877,0.0,3.8487,3.826,3.9481,4.0649,4.1459,4.2234,4.3087,4.4054,4.469,4.5161,4.5428,4.6074,4.6398,4.629,4.649,4.6937,4.7609,4.7857,4.8686,5.0089,5.085,5.0871,5.0312,5.1555,5.1454,5.0312,5.0939,5.1201,5.1184,5.1083,5.104,5.1083,5.1716,5.2029,5.2232,5.3027,5.3391,5.3492,3.4881,3.4881,3.4881,3.4881,3.4881,3.4881,3.4881,3.4881,3.4881,3.4881,3.4593,3.4397,3.4397,3.4685,3.475,3.4424,3.4698,3.475,3.441,3.4397,3.4397,3.4397,3.4397,3.4397,3.4397,3.4999,3.5012,3.4397,3.4735,3.4711,3.4397,3.4397,3.4567,3.4868,3.4552,3.458,3.4855,3.4552,3.5152,3.6375,3.6744,3.7691,3.8885,3.9256,3.9406,3.9406,3.9406,3.9406,3.9406,3.9406,3.9406,3.9406,3.9406,3.9406,3.9406,3.9406,3.9655,3.9939,3.9939,4.0427,4.0945,4.0945,4.1433,4.2207,4.3272,4.3777,4.4341,4.547,4.5976,4.6094,4.576,4.5373,4.467,4.3266,4.1905,0.0,0.0,3.9469,3.9469,3.9469,4.0738,4.2008,4.2982,4.3364,4.3977,4.507,4.5003,4.527,4.6095,4.609,4.6398,4.7111,4.6444,4.6427,4.7198,4.7246,4.8223,5.0106,5.0858,5.1226,5.131,5.1995,5.1496,5.0143,5.0888,5.1201,5.1201,5.1201,5.1438,5.1835,5.2173,5.23,5.2401,5.3205,5.3492,5.3492,3.5273,3.5299,3.5338,3.5456,3.5482,3.5482,3.5482,3.5482,3.5482,3.5482,3.5077,3.4789,3.4789,3.5208,3.5299,3.4842,3.5103,3.5103,3.4633,3.4607,3.4552,3.441,3.4528,3.4672,3.4789,3.5652,3.5613,3.4607,3.5195,3.5192,3.4607,3.4737,3.4972,3.5273,3.4826,3.4789,3.5051,3.4593,3.5251,3.6641,3.6822,3.7781,3.9147,3.9334,3.9406,3.9406,3.9406,3.9406,3.9406,3.9406,3.9406,3.9406,3.9406,3.9406,3.9406,3.9406,3.9984,4.0591,4.0442,4.0885,4.1433,4.1583,4.2122,4.2799,4.3569,4.3996,4.4459,4.5258,4.5424,4.5406,4.5378,4.4537,4.3697,4.3312,0.0,0.0,0.0,4.0397,4.0457,4.0606,4.172,4.285,4.3839,4.4163,4.4637,4.5479,4.5239,4.5443,4.6311,4.6182,4.6475,4.7342,4.6213,4.5961,4.6715,4.6943,4.8167,5.0354,5.1102,5.175,5.2317,5.2486,5.1775,5.0413,5.1327,5.1624,5.1472,5.1658,5.2072,5.2587,5.2587,5.2587,5.2647,5.3272,5.3492,5.3492,3.5195,3.5299,3.5456,3.5942,3.6044,3.6044,3.6044,3.6044,3.6044,3.6044,3.6005,3.5968,3.5968,3.6018,3.6018,3.5979,3.5561,3.5273,3.5234,3.5234,3.4986,3.4424,3.4944,3.5469,3.5955,3.6057,3.5822,3.5234,3.5783,3.5757,3.5247,3.5744,3.573,3.5299,3.5247,3.4946,3.4463,3.441,3.494,3.5856,3.6601,3.7462,3.8361,3.9119,3.9406,3.9406,3.9406,3.9406,3.9406,3.9406,3.9406,3.9406,3.9406,3.9406,3.9406,3.9406,4.0307,4.1194,4.0571,4.0885,4.1553,4.2161,4.2776,4.3437,4.4249,4.3897,4.362,4.4415,4.4586,4.4548,4.4429,4.4467,4.4082,4.2702,0.0,0.0,4.0492,4.0397,4.0631,4.1254,4.2135,4.2942,4.3644,4.4613,4.5239,4.5314,4.6028,4.6228,4.5705,4.6803,4.7219,4.668,4.5982,4.599,4.6782,4.748,4.8937,5.1134,5.1866,5.2249,5.2334,5.3069,5.2562,5.1201,5.2697,5.29,5.2283,5.3027,5.3357,5.3408,5.3408,5.3408,5.3416,5.3475,5.3492,5.3492,3.6305,3.6358,3.6423,3.6619,3.6658,3.6658,3.6658,3.6658,3.6658,3.6658,3.6321,3.6109,3.6109,3.6436,3.6515,3.6125,3.6253,3.6201,3.5822,3.5796,3.5691,3.5469,3.6031,3.6279,3.6109,3.6828,3.6593,3.5299,3.5835,3.5639,3.4748,3.4946,3.5142,3.5273,3.4907,3.4816,3.4933,3.4554,3.5193,3.6474,3.6773,3.7715,3.8982,3.9274,3.9406,3.9406,3.9406,3.9406,3.9406,3.9406,3.9406,3.9406,3.9406,3.9406,3.9481,3.9894,4.0382,4.09,4.1478,4.2097,4.2646,4.2886,4.313,4.3379,4.3689,4.3512,4.3389,4.3698,4.3752,4.3744,4.3688,4.3447,4.3176,4.2993,0.0,4.1461,4.1615,4.1637,4.178,4.215,4.3204,4.409,4.4648,4.5059,4.5344,4.5481,4.5405,4.5438,4.5582,4.6865,4.747,4.7234,4.6973,4.6835,4.6791,4.7945,4.9417,5.1217,5.1959,5.23,5.2317,5.2621,5.219,5.1252,5.2291,5.2587,5.2359,5.3171,5.3492,5.3492,5.3492,5.3492,5.3492,5.3492,5.3492,5.3492,3.6961,3.6998,3.7063,3.726,3.7286,3.7286,3.7286,3.7286,3.7286,3.7286,3.692,3.6671,3.6671,3.7026,3.7116,3.6711,3.6869,3.6828,3.641,3.6384,3.6384,3.6384,3.6776,3.6894,3.6671,3.7482,3.7129,3.5547,3.6109,3.5796,3.4685,3.4855,3.5064,3.5273,3.4868,3.4803,3.4986,3.458,3.521,3.6552,3.6793,3.7743,3.9055,3.9301,3.9406,3.9406,3.9406,3.9406,3.9406,3.9406,3.9406,3.9406,3.9406,3.9541,3.9849,4.0526,4.0855,4.1268,4.2391,4.2975,4.33,4.33,4.33,4.33,4.33,4.33,4.33,4.33,4.33,4.3434,4.3848,4.3254,4.289,4.3509,4.2706,4.2097,4.2366,4.2648,4.2861,4.3002,4.3796,4.4462,4.4852,4.4891,4.4979,4.5183,4.5014,4.5299,4.6182,4.7096,4.7594,4.7594,4.7794,4.7876,4.7811,4.8755,5.0028,5.1547,5.2303,5.2689,5.2689,5.2689,5.2393,5.1953,5.2461,5.2689,5.2723,5.3272,5.3492,5.3492,5.3492,5.3492,5.3492,5.3492,5.3492,5.3492,3.6894,3.7011,3.7207,3.7795,3.79,3.7901,3.79,3.79,3.7901,3.79,3.79,3.79,3.79,3.79,3.79,3.79,3.7364,3.7011,3.7011,3.7011,3.7,3.6998,3.7,3.7299,3.79,3.79,3.73,3.6096,3.6686,3.641,3.5299,3.5835,3.5809,3.5286,3.5286,3.4959,3.4408,3.4408,3.4919,3.5786,3.6592,3.7434,3.8296,3.9101,3.9406,3.9406,3.9406,3.9406,3.9406,3.9406,3.9406,3.9406,3.9406,3.9864,4.0531,4.1209,4.1877,4.2536,4.3145,4.33,4.3314,4.3314,4.33,4.33,4.3314,4.33,4.33,4.33,4.33,4.3703,4.5035,4.4192,4.3509,4.4177,4.3733,4.3085,4.2491,4.3146,4.37,4.37,4.37,4.3773,4.3988,4.4007,4.4094,4.4281,4.5106,4.6172,4.7517,4.7594,4.7594,4.7609,4.8255,4.905,4.998,5.0008,5.0781,5.2316,5.3118,5.3492,5.3492,5.3492,5.3492,5.3492,5.3492,5.3492,5.3492,5.3492,5.3492,5.3492,5.3492,5.3492,5.3492,5.3492,5.3492,5.3492,3.7599,3.7639,3.7691,3.7874,3.8202,3.8333,3.7965,3.8215,3.8331,3.7941,3.79,3.79,3.79,3.79,3.79,3.79,3.8083,3.8189,3.8189,3.7836,3.7442,3.7024,3.7416,3.773,3.79,3.7495,3.6698,3.5534,3.5717,3.5417,3.4672,3.4829,3.4816,3.4672,3.4672,3.4909,3.5305,3.5305,3.6136,3.7481,3.772,3.8309,3.9074,3.9301,3.9406,3.9406,3.9406,3.9406,3.9406,3.9406,3.9406,3.9481,3.9954,4.0247,4.0621,4.1772,4.2531,4.308,4.3255,4.3628,4.3997,4.3997,4.3643,4.3419,4.3883,4.3628,4.33,4.33,4.33,4.3419,4.3818,4.3569,4.3374,4.3579,4.3434,4.324,4.3065,4.3264,4.3542,4.3871,4.391,4.4031,4.4396,4.4425,4.4454,4.4511,4.5184,4.5982,4.685,4.7332,4.7819,4.8286,4.8501,4.9023,4.9926,5.0486,5.1568,5.3135,5.3391,5.3492,5.3492,5.3492,5.3492,5.3492,5.3492,5.3492,5.3492,5.3492,5.3492,5.3492,5.3492,5.3492,5.3492,5.3492,5.3492,5.3492,3.8163,3.8215,3.828,3.8529,3.8829,3.8958,3.862,3.8646,3.8659,3.8581,3.8359,3.8306,3.8553,3.8568,3.8488,3.824,3.8331,3.8476,3.8697,3.7967,3.7575,3.7666,3.7364,3.7194,3.7194,3.6828,3.6201,3.5299,3.5299,3.4986,3.4397,3.4397,3.4397,3.4397,3.4397,3.4685,3.5216,3.5548,3.6472,3.7715,3.8056,3.8682,3.9406,3.9406,3.9406,3.9406,3.9406,3.9571,3.9759,3.9496,3.9571,3.9954,4.09,4.1354,4.1764,4.283,4.3599,4.4087,4.4087,4.4396,4.4755,4.5014,4.4192,4.3479,4.4147,4.3778,4.3374,4.3628,4.3479,4.3374,4.3643,4.3479,4.3389,4.3643,4.3688,4.3599,4.3344,4.3604,4.3867,4.3989,4.4007,4.4156,4.4553,4.453,4.4736,4.5351,4.6013,4.668,4.7357,4.7788,4.8178,4.8594,4.8934,4.952,5.0371,5.118,5.205,5.3032,5.3357,5.3492,5.3492,5.3492,5.3492,5.3492,5.3492,5.3492,5.3492,5.3492,5.3492,5.3492,5.3492,5.3492,5.3492,5.3492,5.3492,5.3492,3.8594,3.8738,3.8947,3.9495,3.9639,3.9652,3.9613,3.913,3.896,3.9456,3.9038,3.8907,3.9456,3.9561,3.9378,3.8829,3.8333,3.828,3.8816,3.7784,3.7588,3.8593,3.7063,3.6188,3.6188,3.6083,3.5757,3.5221,3.5221,3.4933,3.4397,3.4397,3.4397,3.4397,3.4397,3.4439,3.4561,3.5447,3.6281,3.7088,3.7957,3.8747,3.9406,3.9406,3.9406,3.9406,3.9406,3.9789,4.0232,3.9684,3.9894,4.0636,4.2032,4.2865,4.3434,4.4187,4.486,4.5364,4.5244,4.5244,4.5424,4.5971,4.4735,4.3554,4.4247,4.3878,4.3554,4.4102,4.3718,4.3494,4.4102,4.3703,4.3494,4.4102,4.4207,4.4007,4.3419,4.4018,4.4403,4.4073,4.4036,4.4176,4.4553,4.449,4.5019,4.6486,4.7219,4.7881,4.8486,4.8563,4.8609,4.8609,4.9456,5.0283,5.1089,5.1897,5.2334,5.2422,5.3144,5.3492,5.3492,5.3492,5.3492,5.3492,5.3492,5.3492,5.3492,5.3492,5.3492,5.3492,5.3492,5.3492,5.3492,5.3492,5.3492,5.3492,3.8684,3.9077,3.9443,3.9586,3.9953,4.0071,3.9665,3.9482,3.9286,3.8934,3.8777,3.8751,3.8881,3.9312,3.9548,3.9417,3.9299,3.9456,4.0005,3.896,3.8254,3.8083,3.726,3.6802,3.6802,3.5926,3.5182,3.4593,3.4593,3.4528,3.4397,3.4397,3.4397,3.4397,3.4397,3.4789,3.5477,3.6287,3.7131,3.8,3.8811,3.9237,3.9406,3.9406,3.9406,3.9406,3.9406,3.9496,3.9675,4.0068,4.0277,4.0726,4.2532,4.319,4.3539,4.4725,4.5548,4.5852,4.48,4.49,4.5214,4.483,4.4401,4.4252,4.493,4.4561,4.3982,4.3599,4.3404,4.3334,4.3494,4.3404,4.3359,4.3494,4.3509,4.3549,4.3602,4.3781,4.3973,4.4216,4.4233,4.4329,4.4587,4.5045,4.5672,4.6542,4.7219,4.7655,4.7809,4.8317,4.8609,4.8609,4.9456,5.0283,5.1089,5.1897,5.2616,5.3246,5.3416,5.3492,5.3492,5.3492,5.3492,5.3492,5.3492,5.3492,5.3492,5.3492,5.3492,5.3492,5.3492,5.3492,5.3492,5.3492,5.3492,5.3492,3.9404,3.977,4.007,4.0358,4.0645,4.0737,4.0449,4.0162,3.9861,3.9548,3.9286,3.913,3.913,3.9404,3.9704,3.9953,3.9744,3.9835,4.0371,3.909,3.8306,3.828,3.7469,3.7131,3.7429,3.6567,3.5822,3.5208,3.5208,3.5077,3.4829,3.4829,3.4829,3.4826,3.4528,3.4878,3.5746,3.6562,3.7405,3.8268,3.9083,3.9406,3.9406,3.9406,3.9406,3.9406,3.9406,3.961,4.0073,4.135,4.1594,4.1643,4.325,4.3997,4.4396,4.5095,4.5997,4.6555,4.5523,4.5508,4.5773,4.5743,4.5488,4.5354,4.5698,4.501,4.4292,4.4252,4.3758,4.33,4.33,4.33,4.33,4.33,4.3414,4.3547,4.368,4.3773,4.3958,4.4262,4.4301,4.45,4.5033,4.5967,4.6696,4.705,4.7701,4.8071,4.8071,4.8409,4.879,4.9203,5.003,5.0869,5.1652,5.2467,5.3084,5.3492,5.3492,5.3492,5.3492,5.3492,5.3492,5.3492,5.3492,5.3492,5.3492,5.3492,5.3492,5.3492,5.3492,5.3492,5.3492,5.3492,5.3492,5.3492,4.0214,4.0488,4.071,4.1207,4.1298,4.1298,4.1298,4.0789,4.0397,4.0397,4.0005,3.9731,3.9731,3.9731,3.9953,4.0514,4.0057,3.9966,4.0528,3.9064,3.8436,3.8973,3.79,3.7562,3.8187,3.7599,3.6948,3.6253,3.6151,3.5874,3.543,3.5338,3.5299,3.5273,3.4672,3.4878,3.5746,3.6562,3.7405,3.8268,3.9083,3.9406,3.9406,3.9526,3.9571,3.9586,3.969,4.0163,4.098,4.2592,4.288,4.278,4.4077,4.4855,4.5319,4.5439,4.6262,4.6954,4.6166,4.5956,4.6091,4.664,4.6371,4.5986,4.6106,4.5269,4.4561,4.4885,4.4072,4.33,4.33,4.3329,4.3374,4.3374,4.3587,4.3769,4.3808,4.3949,4.4133,4.4329,4.444,4.4845,4.5686,4.688,4.764,4.7763,4.8286,4.8609,4.8609,4.8609,4.9005,4.9868,5.0672,5.1487,5.2289,5.3101,5.3492,5.3492,5.3492,5.3492,5.3492,5.3492,5.3492,5.3492,5.3492,5.3492,5.3492,5.3492,5.3492,5.3492,5.3492,5.3492,5.3492,5.3492,5.3492,5.3492,4.0371,4.0828,4.1207,4.1285,4.1298,4.1298,4.1298,4.0789,4.0397,4.0397,4.0345,4.0292,4.0292,4.0292,4.0528,4.1129,4.0632,4.0541,4.1142,4.0044,3.9613,4.0149,3.9077,3.8751,3.9352,3.8777,3.7941,3.6881,3.6358,3.6059,3.5979,3.5521,3.5299,3.5273,3.4672,3.4878,3.5746,3.6562,3.7405,3.8268,3.9083,3.9406,3.9466,4.0043,4.0262,4.0337,4.0915,4.1553,4.2161,4.2431,4.2815,4.3414,4.4751,4.524,4.5409,4.5986,4.6285,4.6166,4.491,4.4566,4.4581,4.4681,4.4636,4.4725,4.5304,4.5289,4.487,4.3788,4.3434,4.33,4.33,4.3483,4.3661,4.3661,4.3822,4.4026,4.4185,4.4233,4.4339,4.454,4.5076,4.5691,4.6398,4.7157,4.784,4.8425,4.8548,4.8609,4.8609,4.8609,4.9005,4.9868,5.0672,5.1487,5.2289,5.3101,5.3492,5.3492,5.3492,5.3492,5.3492,5.3492,5.3492,5.3492,5.3492,5.3492,5.3492,5.3492,5.3492,5.3492,5.3492,5.3492,5.3492,5.3492,5.3492,5.3492,4.0841,4.1129,4.1298,4.1298,4.1298,4.1298,4.1298,4.1076,4.0776,4.0449,4.0149,3.9822,3.9482,3.9456,3.9691,4.0292,4.0109,4.0201,4.0763,4.0044,3.9835,4.0384,3.9626,3.9326,3.9587,3.9012,3.845,3.7941,3.7379,3.6922,3.6593,3.6018,3.6003,3.6433,3.5528,3.587,3.7121,3.7486,3.8107,3.8894,3.9256,3.9406,3.9466,4.0133,4.0397,4.0531,4.1583,4.2146,4.2515,4.3229,4.3633,4.4027,4.5005,4.5559,4.5773,4.5313,4.5717,4.6016,4.4655,4.4307,4.4396,4.4766,4.4576,4.4381,4.4666,4.4751,4.4576,4.3982,4.3554,4.33,4.33,4.3527,4.37,4.37,4.3958,4.4195,4.4281,4.4406,4.4649,4.5095,4.6074,4.6834,4.7127,4.7773,4.8286,4.8578,4.8609,4.8609,4.8609,4.9051,4.971,5.0538,5.1348,5.2157,5.2955,5.3314,5.3492,5.3492,5.3492,5.3492,5.3492,5.3492,5.3492,5.3492,5.3492,5.3492,5.3492,5.3492,5.3492,5.3492,5.3492,5.3492,5.3492,5.3492,5.3492,5.3492]},{"header":{"parameterUnit":"m.s-1","parameterCategory":1,"la1":30.6,"la2":28.766,"lo1":-90.7593,"lo2":-88.6598,"dy":0.0162,"dx":0.0183,"nx":116,"ny":114,"refTime":"2023-09-15T18:00:00:Z","depth":0,"parameterNumber":3,"parameterNumberName":"V-component_of_WINDS"},"data":[0.0,0.0,0.0,0.0,0.0,0.0,0.0,0.0,0.0,0.0,0.0,0.0,0.0,0.0,0.0,0.0,0.0,0.0,0.0,0.0,0.0,0.0,0.0,0.0,0.0,0.0,0.0,0.0,0.0,0.0,0.0,0.0,0.0,0.0,0.0,0.0,0.0,0.0,0.0,0.0,0.0,0.0,0.0,0.0,0.0,0.0,0.0,0.0,0.0,0.0,0.0,0.0,0.0,0.0,0.0,0.0,0.0,0.0,0.0,0.0,0.0,0.0,0.0,0.0,0.0,0.0,0.0,0.0,0.0,0.0,0.0,0.0,0.0,0.0,0.0,0.0,0.0,0.0,0.0,0.0,0.0,0.0,0.0,0.0,0.0,0.0,0.0,0.0,0.0,0.0,0.0,0.0,0.0,0.0,0.0,0.0,0.0,0.0,0.0,0.0,0.0,0.0,0.0,0.0,0.0,0.0,0.0,0.0,0.0,0.0,0.0,0.0,0.0,0.0,0.0,0.0,0.0,0.0,0.0,0.0,0.0,0.0,0.0,0.0,0.0,0.0,0.0,0.0,0.0,0.0,0.0,0.0,0.0,0.0,0.0,0.0,0.0,0.0,0.0,0.0,0.0,0.0,0.0,0.0,0.0,0.0,0.0,0.0,0.0,0.0,0.0,0.0,0.0,0.0,0.0,0.0,0.0,0.0,0.0,0.0,0.0,0.0,0.0,0.0,0.0,0.0,0.0,0.0,0.0,0.0,0.0,0.0,0.0,0.0,0.0,0.0,0.0,0.0,0.0,0.0,0.0,0.0,0.0,0.0,0.0,0.0,0.0,0.0,0.0,0.0,0.0,0.0,0.0,0.0,0.0,0.0,0.0,0.0,0.0,0.0,0.0,0.0,0.0,0.0,0.0,0.0,0.0,0.0,0.0,0.0,0.0,0.0,0.0,0.0,0.0,0.0,0.0,0.0,0.0,0.0,0.0,0.0,0.0,0.0,0.0,0.0,0.0,0.0,0.0,0.0,0.0,0.0,0.0,0.0,0.0,0.0,0.0,0.0,0.0,0.0,0.0,0.0,0.0,0.0,0.0,0.0,0.0,0.0,0.0,0.0,0.0,0.0,0.0,0.0,0.0,0.0,0.0,0.0,0.0,0.0,0.0,0.0,0.0,0.0,0.0,0.0,0.0,0.0,0.0,0.0,0.0,0.0,0.0,0.0,0.0,0.0,0.0,0.0,0.0,0.0,0.0,0.0,0.0,0.0,0.0,0.0,0.0,0.0,0.0,0.0,0.0,0.0,0.0,0.0,0.0,0.0,0.0,0.0,0.0,0.0,0.0,0.0,0.0,0.0,0.0,0.0,0.0,0.0,0.0,0.0,0.0,0.0,0.0,0.0,0.0,0.0,0.0,0.0,0.0,0.0,0.0,0.0,0.0,0.0,0.0,0.0,0.0,0.0,0.0,0.0,0.0,0.0,0.0,0.0,0.0,0.0,0.0,0.0,0.0,0.0,0.0,0.0,0.0,0.0,0.0,0.0,0.0,0.0,0.0,0.0,0.0,0.0,0.0,0.0,0.0,0.0,0.0,0.0,0.0,0.0,0.0,0.0,0.0,0.0,0.0,0.0,0.0,0.0,0.0,0.0,0.0,0.0,0.0,0.0,0.0,0.0,0.0,0.0,0.0,0.0,0.0,0.0,0.0,0.0,0.0,0.0,0.0,0.0,0.0,0.0,0.0,0.0,0.0,0.0,0.0,0.0,0.0,0.0,0.0,0.0,0.0,0.0,0.0,0.0,0.0,0.0,0.0,0.0,0.0,0.0,0.0,0.0,0.0,0.0,0.0,0.0,0.0,0.0,0.0,0.0,0.0,0.0,0.0,0.0,0.0,0.0,0.0,0.0,0.0,0.0,0.0,0.0,0.0,0.0,0.0,0.0,0.0,0.0,0.0,0.0,0.0,0.0,0.0,0.0,0.0,0.0,0.0,0.0,0.0,0.0,0.0,0.0,0.0,0.0,0.0,0.0,0.0,0.0,0.0,0.0,0.0,0.0,0.0,0.0,0.0,0.0,0.0,0.0,0.0,0.0,0.0,0.0,0.0,0.0,0.0,0.0,0.0,0.0,0.0,0.0,0.0,0.0,0.0,0.0,0.0,0.0,0.0,0.0,0.0,0.0,0.0,0.0,0.0,0.0,0.0,0.0,0.0,0.0,0.0,0.0,0.0,0.0,0.0,0.0,0.0,0.0,0.0,0.0,0.0,0.0,0.0,0.0,0.0,0.0,0.0,0.0,0.0,0.0,0.0,0.0,0.0,0.0,0.0,0.0,0.0,0.0,0.0,0.0,0.0,0.0,0.0,0.0,0.0,0.0,0.0,0.0,0.0,0.0,0.0,0.0,0.0,0.0,0.0,0.0,0.0,0.0,0.0,0.0,0.0,0.0,0.0,0.0,0.0,0.0,0.0,0.0,0.0,0.0,0.0,0.0,0.0,0.0,0.0,0.0,0.0,0.0,0.0,0.0,0.0,0.0,0.0,0.0,0.0,0.0,0.0,0.0,0.0,0.0,0.0,0.0,0.0,0.0,0.0,0.0,0.0,0.0,0.0,0.0,0.0,0.0,0.0,0.0,0.0,0.0,0.0,0.0,0.0,0.0,0.0,0.0,0.0,0.0,0.0,0.0,0.0,0.0,0.0,0.0,0.0,0.0,0.0,0.0,0.0,0.0,0.0,0.0,0.0,0.0,0.0,0.0,0.0,0.0,0.0,0.0,0.0,0.0,0.0,0.0,0.0,0.0,0.0,0.0,0.0,0.0,0.0,0.0,0.0,0.0,0.0,0.0,0.0,0.0,0.0,0.0,0.0,0.0,0.0,0.0,0.0,0.0,0.0,0.0,0.0,0.0,0.0,0.0,0.0,0.0,0.0,0.0,0.0,0.0,0.0,0.0,0.0,0.0,0.0,0.0,0.0,0.0,0.0,0.0,0.0,0.0,0.0,0.0,0.0,0.0,0.0,0.0,0.0,0.0,0.0,0.0,0.0,0.0,0.0,0.0,0.0,0.0,0.0,0.0,0.0,0.0,0.0,0.0,0.0,0.0,0.0,0.0,0.0,0.0,0.0,0.0,0.0,0.0,0.0,0.0,0.0,0.0,0.0,0.0,0.0,0.0,0.0,0.0,0.0,0.0,0.0,0.0,0.0,0.0,0.0,0.0,0.0,0.0,0.0,0.0,0.0,0.0,0.0,0.0,0.0,0.0,0.0,0.0,0.0,0.0,0.0,0.0,0.0,0.0,0.0,0.0,0.0,0.0,0.0,0.0,0.0,0.0,0.0,0.0,0.0,0.0,0.0,0.0,0.0,0.0,0.0,0.0,0.0,0.0,0.0,0.0,0.0,0.0,0.0,0.0,0.0,0.0,0.0,0.0,0.0,0.0,0.0,0.0,0.0,0.0,0.0,0.0,0.0,0.0,0.0,0.0,0.0,0.0,0.0,0.0,0.0,0.0,0.0,0.0,0.0,0.0,0.0,0.0,0.0,0.0,0.0,0.0,0.0,0.0,0.0,0.0,0.0,0.0,0.0,0.0,0.0,0.0,0.0,0.0,0.0,0.0,0.0,0.0,0.0,0.0,0.0,0.0,0.0,0.0,0.0,0.0,0.0,0.0,0.0,0.0,0.0,0.0,0.0,0.0,0.0,0.0,0.0,0.0,0.0,0.0,0.0,0.0,0.0,0.0,0.0,0.0,0.0,0.0,0.0,0.0,0.0,0.0,0.0,0.0,0.0,0.0,0.0,0.0,0.0,0.0,0.0,0.0,0.0,0.0,0.0,0.0,0.0,0.0,0.0,0.0,0.0,0.0,0.0,0.0,0.0,0.0,0.0,0.0,0.0,0.0,0.0,0.0,0.0,0.0,0.0,0.0,0.0,0.0,0.0,0.0,0.0,0.0,0.0,0.0,0.0,0.0,0.0,0.0,0.0,0.0,0.0,0.0,0.0,0.0,0.0,0.0,0.0,0.0,0.0,0.0,0.0,0.0,0.0,0.0,0.0,0.0,0.0,0.0,0.0,0.0,0.0,0.0,0.0,0.0,0.0,0.0,0.0,0.0,0.0,0.0,0.0,0.0,0.0,0.0,0.0,0.0,0.0,0.0,0.0,0.0,0.0,0.0,0.0,0.0,0.0,0.0,0.0,0.0,0.0,0.0,0.0,0.0,0.0,0.0,0.0,0.0,0.0,0.0,0.0,0.0,0.0,0.0,0.0,0.0,0.0,0.0,0.0,0.0,0.0,0.0,0.0,0.0,0.0,0.0,0.0,0.0,0.0,0.0,0.0,0.0,0.0,0.0,0.0,0.0,0.0,0.0,0.0,0.0,0.0,0.0,0.0,0.0,0.0,0.0,0.0,0.0,0.0,0.0,0.0,0.0,0.0,0.0,0.0,0.0,0.0,0.0,0.0,0.0,0.0,0.0,0.0,0.0,0.0,0.0,0.0,0.0,0.0,0.0,0.0,0.0,0.0,0.0,0.0,0.0,0.0,0.0,0.0,0.0,0.0,0.0,0.0,0.0,0.0,0.0,0.0,0.0,0.0,0.0,0.0,0.0,0.0,0.0,0.0,0.0,0.0,0.0,0.0,0.0,0.0,0.0,0.0,0.0,0.0,0.0,0.0,0.0,0.0,0.0,0.0,0.0,0.0,0.0,0.0,0.0,0.0,0.0,0.0,0.0,0.0,0.0,0.0,0.0,0.0,0.0,0.0,0.0,0.0,0.0,0.0,0.0,0.0,0.0,0.0,0.0,0.0,0.0,0.0,0.0,0.0,0.0,0.0,0.0,0.0,0.0,0.0,0.0,0.0,0.0,0.0,0.0,0.0,0.0,0.0,0.0,0.0,0.0,0.0,0.0,0.0,0.0,0.0,0.0,0.0,0.0,0.0,0.0,0.0,0.0,0.0,0.0,0.0,0.0,0.0,0.0,0.0,0.0,0.0,0.0,0.0,0.0,0.0,0.0,0.0,0.0,0.0,0.0,0.0,0.0,0.0,0.0,0.0,0.0,0.0,0.0,0.0,0.0,0.0,0.0,0.0,0.0,0.0,0.0,0.0,0.0,0.0,0.0,0.0,0.0,0.0,0.0,0.0,0.0,0.0,0.0,0.0,0.0,0.0,0.0,0.0,0.0,0.0,0.0,0.0,0.0,0.0,0.0,0.0,0.0,0.0,0.0,0.0,0.0,0.0,0.0,0.0,0.0,0.0,0.0,0.0,0.0,0.0,0.0,0.0,0.0,0.0,0.0,0.0,0.0,0.0,0.0,0.0,0.0,0.0,0.0,0.0,0.0,0.0,0.0,0.0,0.0,0.0,0.0,0.0,0.0,0.0,0.0,0.0,0.0,0.0,0.0,0.0,0.0,0.0,0.0,0.0,0.0,0.0,0.0,0.0,0.0,0.0,0.0,0.0,0.0,0.0,0.0,0.0,0.0,0.0,0.0,0.0,0.0,0.0,0.0,0.0,0.0,0.0,0.0,0.0,0.0,0.0,0.0,0.0,0.0,0.0,0.0,0.0,0.0,0.0,0.0,0.0,0.0,0.0,0.0,0.0,0.0,0.0,0.0,0.0,0.0,0.0,0.0,0.0,0.0,0.0,0.0,0.0,0.0,0.0,0.0,0.0,0.0,0.0,0.0,0.0,0.0,0.0,0.0,0.0,0.0,0.0,0.0,0.0,0.0,0.0,0.0,0.0,0.0,0.0,0.0,0.0,0.0,0.0,0.0,0.0,0.0,0.0,0.0,0.0,0.0,0.0,0.0,0.0,0.0,0.0,0.0,0.0,0.0,0.0,0.0,0.0,0.0,0.0,0.0,0.0,0.0,0.0,0.0,0.0,0.0,0.0,0.0,0.0,0.0,0.0,0.0,0.0,0.0,0.0,0.0,0.0,0.0,0.0,0.0,0.0,0.0,0.0,0.0,0.0,0.0,0.0,0.0,0.0,0.0,0.0,0.0,0.0,0.0,0.0,0.0,0.0,0.0,0.0,0.0,0.0,0.0,0.0,0.0,0.0,0.0,0.0,0.0,0.0,0.0,0.0,0.0,0.0,0.0,0.0,0.0,0.0,0.0,1.5333,0.0,0.0,0.0,0.0,0.0,0.0,0.0,0.0,0.0,0.0,0.0,0.0,0.0,0.0,0.0,0.0,0.0,0.0,0.0,0.0,0.0,0.0,0.0,0.0,0.0,0.0,0.0,0.0,0.0,0.0,0.0,0.0,0.0,0.0,0.0,0.0,0.0,0.0,0.0,0.0,0.0,0.0,0.0,0.0,0.0,0.0,0.0,0.0,0.0,0.0,0.0,0.0,0.0,0.0,0.0,0.0,0.0,0.0,0.0,0.0,0.0,0.0,0.0,0.0,0.0,0.0,0.0,0.0,0.0,0.0,0.0,0.0,0.0,0.0,0.0,0.0,0.0,0.0,0.0,0.0,0.0,0.0,0.0,0.0,0.0,0.0,0.0,0.0,0.0,0.0,0.0,0.0,0.0,0.0,0.0,0.0,0.0,0.0,0.0,0.0,0.0,0.0,0.0,0.0,0.0,0.0,0.0,0.0,0.0,0.0,0.0,0.0,0.0,0.0,0.0,0.0,1.5753,0.0,0.0,0.0,0.0,0.0,0.0,0.0,0.0,0.0,0.0,0.0,0.0,0.0,0.0,0.0,0.0,0.0,0.0,0.0,0.0,0.0,0.0,0.0,0.0,0.0,0.0,0.0,0.0,0.0,0.0,0.0,0.0,0.0,0.0,0.0,0.0,0.0,0.0,0.0,0.0,0.0,0.0,0.0,0.0,0.0,0.0,0.0,0.0,0.0,0.0,0.0,0.0,0.0,0.0,0.0,0.0,0.0,0.0,0.0,0.0,0.0,0.0,0.0,0.0,0.0,0.0,0.0,0.0,0.0,0.0,0.0,0.0,0.0,0.0,0.0,0.0,0.0,0.0,0.0,0.0,0.0,0.0,0.0,0.0,0.0,0.0,0.0,0.0,0.0,0.0,0.0,0.0,0.0,0.0,0.0,0.0,0.0,0.0,0.0,0.0,0.0,0.0,0.0,0.0,0.0,0.0,0.0,0.0,2.0788,2.0742,2.0657,2.071,2.0477,1.9956,1.8955,1.7503,1.5785,1.5334,0.0,0.0,0.0,0.0,0.0,0.0,0.0,0.0,0.0,0.0,0.0,0.0,0.0,0.0,0.0,0.0,0.0,0.0,0.0,0.0,0.0,0.0,0.0,0.0,0.0,0.0,0.0,0.0,0.0,0.0,0.0,0.0,0.0,0.0,0.0,0.0,0.0,0.0,2.2498,2.2428,2.2045,2.1374,2.0325,0.0,0.0,0.0,0.0,0.0,0.0,0.0,0.0,0.0,0.0,0.0,0.0,0.0,0.0,0.0,0.0,0.0,0.0,0.0,0.0,0.0,0.0,0.0,0.0,0.0,0.0,0.0,0.0,0.0,0.0,0.0,0.0,0.0,0.0,0.0,0.0,0.0,0.0,0.0,0.0,0.0,0.0,0.0,2.2084,2.2084,0.0,0.0,0.0,0.0,0.0,0.0,0.0,0.0,0.0,0.0,0.0,0.0,0.0,2.0825,2.1542,2.2049,2.2467,2.2833,2.3564,2.3692,2.3316,2.3541,2.2938,2.1666,2.1511,0.0,1.7416,1.6561,0.0,0.0,0.0,0.0,0.0,0.0,0.0,0.0,0.0,0.0,0.0,0.0,0.0,0.0,0.0,0.0,0.0,0.0,0.0,0.0,0.0,0.0,0.0,0.0,0.0,0.0,0.0,0.0,0.0,0.0,0.0,0.0,0.0,0.0,0.0,0.0,2.3427,2.3028,2.2254,2.2499,2.2189,2.1404,2.0875,1.9661,1.7959,1.7036,0.0,0.0,0.0,0.0,0.0,0.0,0.0,0.0,0.0,0.0,0.0,0.0,0.0,0.0,0.0,0.0,0.0,0.0,0.0,0.0,0.0,0.0,0.0,0.0,0.0,0.0,0.0,0.0,0.0,0.0,0.0,0.0,0.0,0.0,0.0,0.0,0.0,0.0,0.0,2.2316,2.2718,2.3326,2.2867,2.2737,0.0,0.0,0.0,0.0,0.0,0.0,0.0,0.0,0.0,2.2439,2.2313,2.2547,2.3226,2.3523,2.3752,2.3942,2.4318,2.439,2.4197,2.4314,2.3873,2.2984,2.2449,2.1375,1.9859,1.8176,1.7214,1.6727,0.0,0.0,0.0,0.0,1.5056,1.5056,0.0,0.0,0.0,0.0,0.0,0.0,0.0,0.0,0.0,0.0,0.0,0.0,0.0,0.0,0.0,2.6654,0.0,0.0,0.0,0.0,0.0,0.0,0.0,0.0,0.0,0.0,0.0,0.0,2.3812,2.3298,2.2287,2.2715,2.2367,2.1349,2.0707,1.975,1.8541,1.7226,1.5684,0.0,0.0,0.0,0.0,0.0,0.0,0.0,0.0,0.0,0.0,0.0,0.0,0.0,0.0,0.0,0.0,0.0,0.0,0.0,0.0,0.0,0.0,0.0,0.0,0.0,0.0,0.0,0.0,0.0,0.0,0.0,0.0,0.0,0.0,0.0,0.0,0.0,0.0,2.3284,2.3547,2.4198,2.3833,2.3778,0.0,0.0,0.0,0.0,0.0,0.0,2.3956,2.3877,2.4098,2.47,2.4305,2.4336,2.4829,2.4604,2.4497,2.4497,2.4497,2.4559,2.4683,2.4549,2.4311,2.3925,2.3109,2.2492,2.1878,1.9627,1.8531,1.8201,1.7164,1.6613,1.6433,1.6668,1.6745,1.6797,0.0,0.0,0.0,0.0,0.0,0.0,0.0,0.0,0.0,0.0,0.0,0.0,0.0,0.0,2.7553,2.7543,2.7556,2.7556,0.0,0.0,0.0,0.0,0.0,0.0,0.0,0.0,0.0,2.492,2.4923,2.4377,2.3324,2.3424,2.2899,2.1779,1.9921,1.9048,1.8919,1.8003,1.6767,1.5304,0.0,0.0,0.0,0.0,0.0,0.0,0.0,0.0,0.0,0.0,0.0,0.0,0.0,0.0,0.0,0.0,0.0,0.0,0.0,0.0,0.0,0.0,0.0,0.0,0.0,0.0,0.0,0.0,0.0,0.0,0.0,0.0,0.0,0.0,0.0,0.0,0.0,0.0,0.0,2.4816,2.5669,0.0,0.0,0.0,0.0,2.5418,2.5545,2.5764,2.6039,2.6223,2.6511,2.692,2.6119,2.5693,2.5736,2.4903,2.4497,2.4497,2.4497,2.4724,2.5148,2.4693,2.4485,2.4443,2.3934,2.3451,2.2865,2.0633,1.9165,1.8257,1.7885,1.718,1.6511,1.7402,1.7693,1.7718,0.0,0.0,0.0,0.0,0.0,0.0,0.0,0.0,0.0,0.0,0.0,0.0,0.0,2.8076,2.8192,2.8535,2.8253,2.8002,2.7864,0.0,0.0,0.0,0.0,0.0,0.0,0.0,2.6176,2.4998,2.5428,2.4867,2.3393,2.3065,2.2558,2.1815,1.9875,1.9002,1.8919,1.7698,1.6228,1.4683,1.4118,1.3059,0.0,0.0,0.0,0.0,0.0,0.0,0.0,0.0,0.0,0.0,0.0,0.0,0.0,0.0,0.0,0.0,0.0,0.0,0.0,0.0,0.0,0.0,0.0,0.0,0.0,0.0,0.0,0.0,0.0,0.0,0.0,0.0,0.0,0.0,0.0,0.0,0.0,2.6826,2.6669,0.0,2.7157,2.6344,2.6093,2.6804,2.6483,2.6408,2.6763,2.6856,2.6947,2.7098,2.6803,2.6638,2.6638,2.6329,2.6174,2.6174,2.56,2.5423,2.5562,2.4838,2.4332,2.403,2.3609,2.3152,2.2649,2.1864,2.1125,2.0406,1.9644,1.9147,1.8854,1.8927,1.8943,1.8923,0.0,0.0,0.0,0.0,0.0,0.0,0.0,0.0,0.0,0.0,0.0,2.8002,2.8583,2.8442,2.8519,2.9051,2.8783,2.8406,2.8034,0.0,0.0,0.0,0.0,0.0,0.0,2.7576,2.7102,2.5919,2.5741,2.4971,2.3662,2.3122,2.239,2.1459,1.9953,1.9046,1.8576,1.714,1.5824,1.4638,1.3849,1.284,1.1749,0.0,0.0,0.0,0.0,0.0,0.0,0.0,0.0,0.0,0.0,0.0,0.0,0.0,0.0,0.0,0.0,0.0,0.0,0.0,0.0,0.0,0.0,0.0,0.0,0.0,0.0,0.0,0.0,0.0,0.0,0.0,0.0,0.0,0.0,0.0,2.7058,2.7994,2.7812,2.7809,2.8325,2.7624,2.7483,2.8278,2.7896,2.7725,2.7999,2.8011,2.8011,2.8011,2.773,2.7567,2.7567,2.7263,2.71,2.7088,2.6504,2.6313,2.6437,2.5412,2.4733,2.4328,2.3547,2.2906,2.239,2.2336,2.209,2.1699,2.0976,2.0492,2.0189,2.0131,2.0011,1.9839,0.0,0.0,0.0,0.0,0.0,0.0,0.0,0.0,0.0,0.0,2.8186,2.8201,2.9196,2.8736,2.8567,2.9091,2.9126,2.8814,2.8064,2.7994,0.0,0.0,0.0,0.0,2.8635,2.8045,2.7707,2.7671,2.5898,2.4731,2.4151,2.3627,2.2456,2.0774,2.0079,1.9107,1.79,1.6385,1.5639,1.5295,1.3395,1.2602,1.2471,0.0,0.0,0.0,0.0,0.0,0.0,0.0,0.0,0.0,0.0,0.0,0.0,0.0,0.0,0.0,0.0,0.0,0.0,0.0,0.0,0.0,0.0,0.0,0.0,0.0,0.0,0.0,0.0,0.0,0.0,0.0,0.0,0.0,2.7683,2.8346,2.8828,2.8308,2.9202,2.9655,2.9082,2.9532,2.9879,2.9879,2.9879,2.9879,2.9879,2.985,2.984,2.984,2.9,2.8542,2.8542,2.7637,2.7181,2.7181,2.7161,2.7372,2.778,2.6446,2.5725,2.542,2.3896,2.2851,2.2214,2.1997,2.1925,2.191,2.1777,2.1123,2.0341,2.0911,2.0824,2.042,0.0,0.0,0.0,0.0,0.0,0.0,0.0,0.0,0.0,0.0,2.8259,2.8527,2.909,2.9297,2.9579,3.007,2.9799,2.9227,2.8348,0.0,0.0,0.0,0.0,0.0,2.9324,2.8732,2.7968,2.7053,2.6166,2.5002,2.3611,2.3072,2.2101,2.0752,1.9688,1.8772,1.7857,1.5649,1.4682,1.454,1.3475,1.2689,1.2124,0.0,0.0,0.0,0.0,0.0,0.0,0.0,0.0,0.0,0.0,0.0,0.0,0.0,0.0,0.0,0.0,0.0,0.0,0.0,0.0,0.0,0.0,0.0,0.0,0.0,0.0,0.0,0.0,0.0,0.0,0.0,0.0,3.1308,3.0339,3.0819,3.1383,3.1622,3.1541,3.1572,3.1843,3.1634,3.1479,3.1479,3.1479,3.1479,3.1479,3.0912,3.0601,3.0601,2.9848,2.9436,2.9436,2.9189,2.9062,2.9052,2.8413,2.8173,2.8275,2.7218,2.6287,2.5452,2.4544,2.3597,2.269,2.2439,2.2344,2.2332,2.2288,2.2107,2.1856,2.1734,2.1195,2.0553,0.0,0.0,0.0,0.0,0.0,0.0,0.0,0.0,0.0,0.0,2.8162,2.8367,2.9022,2.9139,2.9456,3.0145,2.9664,2.9071,2.8446,0.0,0.0,0.0,0.0,2.9815,2.9967,2.9355,2.8555,2.7602,2.647,2.5177,2.3725,2.3196,2.2024,2.0351,1.9646,1.8672,1.7442,1.5855,1.497,1.4613,1.4384,1.3474,1.2226,1.2067,1.2641,1.3637,1.4446,1.5035,1.5557,1.6559,0.0,0.0,0.0,0.0,0.0,0.0,0.0,0.0,0.0,0.0,0.0,0.0,0.0,0.0,0.0,0.0,0.0,0.0,0.0,0.0,0.0,0.0,0.0,0.0,3.2631,3.3725,3.344,3.2908,3.2649,3.2952,3.2467,3.2241,3.259,3.2318,3.2092,3.2092,3.2092,3.2092,3.2092,3.1654,3.1258,3.0914,3.0482,3.011,2.9801,2.9801,2.9801,2.9792,2.929,2.904,2.901,2.8101,2.7237,0.0,2.5064,2.4031,2.3206,2.2321,2.207,0.0,0.0,0.0,0.0,0.0,2.1358,2.0625,0.0,0.0,0.0,0.0,0.0,0.0,0.0,0.0,0.0,0.0,0.0,2.8024,2.8912,2.8566,2.8637,2.9537,2.8936,2.8473,0.0,0.0,0.0,2.8422,3.0217,3.0989,3.0514,2.9724,2.9035,2.8496,2.6494,2.5009,2.4019,2.3487,2.2019,1.983,1.9744,1.873,1.706,1.6597,1.5916,1.5202,1.5578,1.4485,1.2628,1.2612,1.3224,1.4183,1.4962,1.5499,1.5964,1.6791,0.0,0.0,0.0,0.0,0.0,0.0,0.0,0.0,0.0,0.0,0.0,0.0,0.0,0.0,0.0,0.0,0.0,0.0,0.0,0.0,0.0,0.0,0.0,0.0,3.5087,3.63,3.6492,3.4768,3.3462,3.3385,3.2764,3.2394,3.2458,3.2394,3.2367,3.2367,3.2367,3.2322,3.2227,0.0,0.0,0.0,0.0,3.0463,2.9811,2.9801,2.9801,2.9801,2.9801,2.9801,2.9772,2.9,2.8367,2.7762,2.564,2.4427,2.3809,2.207,2.1591,2.2042,2.2752,2.2809,2.245,2.2051,2.1378,2.0703,0.0,0.0,0.0,0.0,0.0,0.0,0.0,0.0,0.0,2.7925,2.8073,2.8243,2.8426,2.8277,2.822,2.8409,2.78,2.7604,0.0,0.0,2.874,2.977,3.0346,3.0612,3.05,2.8936,2.7803,2.7173,2.4948,2.354,2.2901,2.2421,2.1418,2.0023,1.9418,1.8825,1.8191,1.6928,1.6083,1.5569,1.5392,1.4324,1.2958,1.4058,1.4508,1.4652,1.5295,1.6019,1.682,1.7782,1.7931,1.7968,1.9445,0.0,0.0,0.0,0.0,0.0,0.0,0.0,0.0,0.0,0.0,0.0,0.0,0.0,0.0,0.0,0.0,0.0,0.0,0.0,0.0,3.4721,3.6133,3.7253,3.7753,3.7054,3.6271,3.5726,3.4648,3.4169,3.4706,3.4264,3.396,3.396,3.396,3.3664,3.302,3.2416,3.1728,3.0932,3.0314,2.9931,2.9801,2.9801,2.9801,2.9801,0.0,0.0,2.9792,2.9624,2.9118,2.8276,2.6777,2.5632,2.4702,2.2971,2.2304,2.2401,2.2558,2.2566,2.245,2.2051,2.1553,2.1045,0.0,0.0,0.0,0.0,0.0,0.0,0.0,0.0,0.0,0.0,2.7854,2.7819,2.7485,2.7389,2.7319,2.7264,2.7128,0.0,0.0,2.8294,2.9196,3.0298,3.0451,3.0657,3.0987,2.8865,2.7603,2.7293,2.5218,2.3649,2.2592,2.2359,2.1282,1.9532,1.916,1.865,1.8005,1.7479,1.6673,1.5826,1.6738,1.5715,1.3794,1.5066,1.5837,1.6281,1.6485,1.7151,1.801,1.8407,1.8706,1.9116,2.028,2.0767,2.1135,0.0,0.0,0.0,0.0,0.0,0.0,0.0,0.0,0.0,0.0,0.0,0.0,0.0,0.0,3.3251,0.0,0.0,3.5563,3.6197,3.712,3.7854,3.8159,3.767,3.7046,3.6379,3.5473,3.4901,3.4901,3.4603,3.4397,3.4397,3.4397,3.4221,3.3811,3.3069,3.2299,3.1526,3.0743,3.0165,2.9801,2.9801,2.9801,2.9801,2.9801,2.9801,2.9801,2.9801,2.9566,2.9059,2.7384,2.6379,2.5797,2.3825,2.2801,2.2528,2.2723,2.2547,2.2148,2.1708,2.1269,2.0898,0.0,0.0,0.0,0.0,0.0,0.0,0.0,0.0,0.0,0.0,0.0,2.7339,2.6674,2.6488,2.6262,0.0,0.0,0.0,0.0,2.8634,2.9779,3.048,3.0499,3.0623,3.0917,2.8796,2.7558,2.7284,2.5544,2.3938,2.2467,2.2457,2.1383,1.9416,1.932,1.8815,1.8029,1.8156,1.742,1.6331,1.8243,1.7411,1.5162,1.6246,1.7,1.7482,1.7606,1.8166,1.89,1.8979,1.9495,2.0226,2.0975,2.1265,2.1597,2.3026,2.3865,0.0,0.0,0.0,0.0,0.0,0.0,0.0,0.0,0.0,3.2555,3.3248,3.4709,3.5695,3.516,3.6296,3.7346,3.7453,3.7874,3.8202,3.8202,3.7772,3.7235,3.6568,3.5854,3.5136,3.4464,3.4397,3.4449,3.458,3.4478,3.4381,3.4361,3.3626,3.2791,3.1892,3.124,3.0558,2.9811,2.9801,2.9801,2.9801,2.9801,2.9801,2.9801,2.9801,2.9801,2.9695,2.7668,2.6509,2.5906,2.4118,2.3037,2.2528,2.2771,2.2519,2.1963,2.1503,2.1064,2.0752,0.0,0.0,0.0,0.0,0.0,0.0,0.0,0.0,0.0,0.0,0.0,0.0,0.0,0.0,0.0,0.0,0.0,0.0,2.7516,2.9307,3.04,3.0491,3.0503,2.9987,2.8854,2.8097,2.6952,2.5404,2.4241,2.3096,2.1982,2.1977,2.1618,2.0937,2.046,2.0113,1.9837,1.8986,1.8191,1.7572,1.8596,1.8335,1.743,1.8329,1.7685,1.6448,1.7684,1.8271,1.8636,1.9752,2.0424,2.0965,2.2001,2.2051,2.2023,2.3497,0.0,2.4336,2.5253,2.5987,0.0,3.0565,3.0806,3.136,0.0,0.0,3.6669,3.7168,3.7581,3.7843,3.778,3.7508,3.7482,3.8014,3.8159,3.8202,3.8202,3.8144,3.7874,3.725,3.613,3.5136,3.4464,3.4397,3.4646,3.5238,3.4742,3.4347,3.4226,3.3572,3.2528,3.1078,3.0951,3.0558,2.9811,2.9801,2.9801,2.9801,2.9801,2.9801,2.9801,2.9801,2.9801,2.9695,2.7668,2.5476,2.331,2.3066,2.2782,2.247,2.2169,2.2197,2.2382,2.1973,2.1533,2.1093,0.0,0.0,0.0,0.0,0.0,0.0,0.0,0.0,0.0,0.0,0.0,0.0,0.0,0.0,0.0,0.0,0.0,0.0,2.8686,2.949,3.0273,3.1047,2.9956,2.9258,2.9086,2.779,2.6789,2.6098,2.4934,2.382,2.2769,2.2768,2.2292,2.1397,2.0705,2.0264,1.9969,1.908,1.8311,1.7775,1.8645,1.8315,1.7397,1.8424,1.8148,1.7329,1.8273,1.8863,0.0,0.0,2.0653,2.1307,2.1894,2.2277,2.2644,2.3378,2.439,0.0,2.6827,0.0,0.0,0.0,3.2594,3.4219,3.6779,3.7814,3.8323,3.8602,3.9304,3.9538,3.8405,3.8318,3.8352,0.0,3.8202,3.8202,3.8202,3.8202,3.7984,3.7366,3.6832,3.6092,3.5084,3.4983,3.4939,3.4829,3.4551,3.4371,3.4321,3.3505,3.2736,3.2089,3.1192,3.0736,3.0731,3.0115,2.9955,3.0259,2.9942,2.9801,2.9801,2.9801,2.9229,2.8183,2.7344,2.5616,2.3419,2.3419,2.3194,2.2829,2.2664,2.2567,2.245,2.2051,2.1601,2.1231,0.0,0.0,0.0,0.0,0.0,0.0,0.0,0.0,0.0,0.0,0.0,0.0,0.0,0.0,0.0,0.0,0.0,0.0,0.0,2.9491,3.0104,3.0887,2.9521,2.8898,2.9193,2.7563,2.6584,2.6332,2.5307,2.4254,2.3208,2.3344,2.2926,2.2065,2.1289,2.0773,2.0415,1.9567,1.8808,1.8264,1.9086,1.8749,1.7862,1.8704,1.8841,1.8635,1.9005,1.9397,0.0,0.0,2.0928,2.1618,2.1922,2.2427,2.3012,2.3513,2.4755,2.6351,2.8118,0.0,0.0,3.2376,3.4322,3.6282,3.7682,3.8677,3.9329,3.9431,4.0046,4.0147,3.8739,3.8725,3.8768,3.8275,3.8202,3.8202,3.8202,3.8202,3.8043,3.7598,3.754,3.7114,3.6028,3.5761,3.5511,3.5218,3.487,3.4826,3.5189,3.395,3.3209,3.3189,3.186,3.1228,3.1396,3.063,3.0432,3.0821,3.0432,3.0156,3.0018,2.9877,2.8951,2.7486,2.7647,2.6399,2.4283,2.4428,2.4018,2.3288,2.3232,2.3176,2.3095,2.2744,2.2101,2.1487,0.0,0.0,0.0,0.0,0.0,0.0,0.0,0.0,0.0,0.0,0.0,0.0,0.0,0.0,0.0,0.0,0.0,0.0,0.0,2.9363,3.0105,2.9492,2.9414,2.908,2.8441,2.7284,2.6193,2.5151,2.4583,2.3768,2.2727,2.319,2.3384,2.3313,2.2634,2.2191,2.1877,2.0874,2.0055,1.9503,2.0181,2.0158,1.9731,1.9836,1.9941,2.0012,1.984,0.0,0.0,0.0,2.1422,2.2054,2.2453,2.2641,0.0,2.4205,2.5058,0.0,0.0,0.0,3.0503,3.4948,3.6123,3.6859,3.9435,4.0045,4.0069,4.0075,3.9639,3.9247,3.9175,3.8652,3.8217,3.8202,3.8202,3.8202,3.8202,3.8202,3.8188,3.8164,3.8164,3.7941,0.0,3.6655,3.6524,3.7163,3.6072,3.5912,3.7148,3.5208,3.4002,3.387,3.3003,3.2166,3.1406,3.1371,3.1359,3.1371,3.1359,3.1085,3.056,3.0043,2.9319,2.8486,2.9013,2.7783,2.5495,2.6001,2.526,2.3754,2.3569,2.4004,2.4702,2.45,2.3342,2.1886,0.0,0.0,0.0,0.0,0.0,0.0,0.0,0.0,0.0,0.0,0.0,0.0,0.0,0.0,0.0,0.0,0.0,0.0,0.0,2.8285,2.8712,2.8931,2.8801,2.8629,2.8403,2.7984,2.7414,2.6696,2.6075,2.5573,2.5227,2.5014,2.5284,2.5841,2.4062,2.3409,2.3545,2.1972,2.1056,2.0708,2.0842,2.0625,2.0171,1.9931,1.9778,1.9702,0.0,0.0,0.0,0.0,2.1153,2.1731,2.2092,2.2862,0.0,2.5103,2.6283,2.7611,2.9539,0.0,3.4066,3.6361,3.7575,3.8534,3.9808,4.0104,3.9987,3.9581,3.8986,3.8405,3.8004,3.7757,3.7598,3.7598,3.7941,3.8202,3.8202,3.8202,3.8202,3.8202,3.8202,0.0,0.0,0.0,0.0,3.6655,3.6243,3.5924,3.5775,3.4959,3.4213,3.3589,3.2766,3.2395,3.2525,3.1783,3.1585,3.1938,3.1572,3.1308,3.1122,3.0944,3.0391,2.9572,2.9753,2.8943,2.7436,2.6769,2.5899,2.4912,2.4042,2.3686,2.3658,2.3593,2.3198,2.2816,0.0,0.0,0.0,0.0,0.0,0.0,0.0,0.0,0.0,0.0,0.0,0.0,0.0,0.0,0.0,0.0,0.0,0.0,0.0,0.0,2.7619,2.8239,2.8154,2.8185,2.8403,2.7695,2.7177,2.6821,2.6339,2.6018,2.5852,2.5952,2.6327,2.6861,2.4715,2.4024,2.4318,2.2676,2.1579,2.0954,2.114,2.0751,2.0087,2.0054,1.9996,0.0,0.0,0.0,0.0,2.0377,2.1004,2.175,2.1973,2.3036,2.4478,2.588,2.7087,2.8479,3.0834,3.3134,3.523,3.6595,3.7738,3.8623,3.9015,3.9262,3.9305,3.8928,3.8333,3.7757,3.7366,3.7293,3.7293,3.7293,3.781,3.8202,3.8202,3.8202,3.8202,3.8202,3.8405,3.8565,0.0,0.0,0.0,3.7046,3.6974,3.6598,3.5728,3.5068,3.4406,3.3781,3.2945,3.2715,3.3102,3.2363,3.2175,3.2516,3.1951,3.1687,3.1675,3.1497,3.11,3.0563,3.0411,2.9675,2.8493,2.7502,2.6553,2.561,2.467,2.4308,2.4293,2.4128,2.4061,2.4093,0.0,0.0,0.0,0.0,0.0,0.0,0.0,0.0,0.0,0.0,0.0,0.0,0.0,0.0,0.0,0.0,0.0,0.0,0.0,0.0,0.0,2.7384,2.7498,2.7798,2.8325,2.6602,2.566,2.5625,2.5465,2.5172,2.4775,2.5856,2.6398,2.6379,2.4591,2.396,2.4167,2.2969,2.1649,2.0445,2.1161,2.0719,1.9695,2.0331,0.0,0.0,0.0,0.0,0.0,0.0,0.0,0.0,0.0,2.3364,2.4931,2.6625,2.7607,2.892,3.2454,3.3577,3.4165,3.5924,3.6829,3.7308,3.7346,3.7796,3.8188,3.8159,3.767,3.725,0.0,0.0,3.7308,3.7337,3.7854,3.8251,3.8251,3.8251,3.8246,0.0,0.0,0.0,0.0,0.0,0.0,3.8281,0.0,3.7806,3.693,3.5486,3.458,3.4343,3.3526,3.3102,3.3102,3.3102,3.3102,3.309,3.2516,3.2242,3.2229,3.1723,3.1484,3.1471,3.1078,3.0161,2.8888,2.8366,2.7358,2.6064,2.5564,2.5849,2.6482,2.6046,2.5854,2.5561,0.0,0.0,0.0,0.0,0.0,0.0,0.0,0.0,0.0,0.0,0.0,0.0,0.0,0.0,0.0,0.0,0.0,0.0,0.0,0.0,0.0,0.0,0.0,0.0,0.0,0.0,0.0,0.0,0.0,2.5322,2.5582,2.489,2.4965,2.5572,2.3381,2.2812,2.3411,2.2345,2.1719,2.1459,0.0,2.1752,2.1311,0.0,0.0,0.0,0.0,0.0,0.0,0.0,0.0,0.0,0.0,2.6301,2.7426,2.8355,3.0022,3.1845,3.3197,3.4663,3.6028,3.6829,3.7177,3.7418,3.7868,3.8086,3.8062,3.7612,3.7003,3.6553,0.0,0.0,0.0,3.7897,3.8522,0.0,3.8942,3.8942,0.0,3.826,0.0,3.9494,3.8551,3.945,0.0,0.0,3.7955,3.7605,3.6718,3.5279,3.4158,3.3452,3.3219,3.3102,3.3102,3.3102,3.3102,3.3102,3.2941,3.2866,3.2876,3.2738,3.2675,3.2665,3.2557,3.2318,3.1902,3.0819,2.9875,2.8997,2.7976,2.741,2.7161,2.704,2.6518,2.5814,0.0,0.0,0.0,0.0,0.0,0.0,0.0,0.0,0.0,0.0,0.0,0.0,0.0,0.0,0.0,0.0,0.0,0.0,0.0,0.0,0.0,0.0,0.0,0.0,0.0,0.0,0.0,0.0,0.0,0.0,0.0,2.4883,2.4766,2.4669,2.2996,2.2334,2.2404,2.1605,0.0,0.0,0.0,0.0,0.0,0.0,0.0,0.0,0.0,0.0,0.0,0.0,0.0,2.6502,2.6816,2.761,2.8602,2.9582,0.0,3.2486,3.3648,3.5033,3.6219,3.6412,3.6881,3.7308,3.7351,3.7583,3.7636,3.6988,3.6344,0.0,0.0,0.0,0.0,0.0,0.0,0.0,3.9639,3.9596,3.9465,0.0,3.9915,0.0,3.9131,3.9954,3.9915,0.0,3.8048,3.7334,3.6049,3.4978,3.4002,3.3122,3.3102,3.3102,3.3102,3.3102,3.3102,3.3102,3.3102,3.3102,3.3102,3.3102,3.3102,3.3081,0.0,3.2438,3.2351,3.1235,3.048,2.9957,2.915,2.8283,2.7465,2.7362,2.6676,2.5815,0.0,0.0,0.0,0.0,0.0,0.0,0.0,0.0,0.0,0.0,0.0,0.0,0.0,0.0,0.0,0.0,0.0,0.0,0.0,0.0,0.0,0.0,0.0,0.0,0.0,0.0,0.0,0.0,0.0,0.0,0.0,0.0,0.0,0.0,0.0,0.0,0.0,0.0,0.0,0.0,0.0,0.0,0.0,0.0,0.0,0.0,0.0,0.0,0.0,0.0,2.7557,2.7823,2.7782,2.8453,2.9489,3.0671,3.1474,3.2342,3.4054,3.509,3.5696,3.5651,3.6484,3.7148,3.6568,3.6872,3.709,3.6344,0.0,3.5688,3.6199,3.7346,3.826,3.842,0.0,4.08,4.0292,4.0234,4.0191,4.0104,4.0771,4.0902,4.006,4.0555,4.031,3.881,3.7969,3.6852,3.5304,3.4647,3.3953,3.3135,3.3102,3.3102,3.3102,3.3102,3.3102,3.3102,3.3102,3.3102,3.3102,3.3102,3.3102,3.3059,3.2187,0.0,3.1735,3.0912,3.043,3.0159,2.9897,2.9143,2.8155,2.7887,2.7152,2.6306,0.0,0.0,0.0,0.0,0.0,0.0,0.0,0.0,0.0,0.0,0.0,0.0,0.0,0.0,0.0,0.0,0.0,0.0,0.0,0.0,0.0,0.0,0.0,0.0,0.0,0.0,0.0,0.0,0.0,0.0,0.0,0.0,0.0,0.0,0.0,0.0,0.0,0.0,0.0,0.0,0.0,0.0,0.0,0.0,0.0,0.0,0.0,0.0,0.0,0.0,2.9498,3.0121,3.0596,3.1418,3.2236,3.2583,3.3497,3.4499,3.5008,3.5646,3.6307,3.6832,3.7143,3.7264,3.7148,3.723,0.0,0.0,3.5868,3.6185,3.6277,3.7346,3.8551,3.9596,0.0,0.0,0.0,0.0,4.0713,0.0,0.0,0.0,0.0,0.0,0.0,0.0,0.0,3.5556,3.5301,3.4469,3.372,3.3126,3.3102,3.3102,3.3102,3.3102,3.3102,3.3102,3.3102,3.3102,3.3102,3.3102,3.3102,3.3092,3.2918,0.0,3.2831,3.2657,3.2438,3.2187,3.1957,3.1616,3.1216,3.0992,3.0283,2.9418,0.0,0.0,0.0,0.0,0.0,0.0,0.0,0.0,0.0,0.0,2.5354,2.5187,0.0,0.0,0.0,0.0,0.0,0.0,0.0,0.0,0.0,0.0,0.0,0.0,0.0,0.0,0.0,0.0,0.0,0.0,0.0,0.0,0.0,0.0,0.0,0.0,0.0,0.0,0.0,0.0,0.0,0.0,0.0,0.0,0.0,0.0,0.0,0.0,0.0,0.0,3.0386,3.1242,3.1675,3.2237,3.2763,3.282,3.3582,3.4606,3.5433,3.6233,3.6974,3.7607,3.7772,3.7583,3.693,0.0,0.0,0.0,3.5381,3.5932,3.6234,0.0,0.0,0.0,0.0,0.0,0.0,0.0,0.0,0.0,0.0,0.0,0.0,0.0,0.0,0.0,0.0,3.5844,3.543,3.4441,3.3771,3.3519,3.3253,3.3102,3.3102,3.3102,3.3102,3.3102,3.3102,3.3102,3.3102,3.3102,3.3102,3.3102,3.3102,0.0,3.3102,3.3102,3.2939,3.2624,3.1902,3.1137,3.0351,2.9635,2.8726,2.7861,0.0,0.0,0.0,0.0,0.0,0.0,0.0,2.5201,2.5685,2.658,2.6386,2.6205,2.6344,2.7041,0.0,0.0,0.0,0.0,0.0,0.0,0.0,0.0,0.0,0.0,0.0,0.0,0.0,0.0,0.0,0.0,0.0,0.0,0.0,0.0,0.0,0.0,0.0,0.0,0.0,0.0,0.0,0.0,0.0,0.0,0.0,0.0,0.0,0.0,0.0,0.0,3.0791,3.1584,3.1923,3.2339,3.2677,3.255,3.3308,3.4393,3.5387,3.638,3.7262,3.779,3.7924,3.7639,3.6546,3.6292,0.0,0.0,3.5142,3.5781,3.6402,0.0,0.0,0.0,0.0,0.0,0.0,0.0,0.0,0.0,0.0,0.0,0.0,0.0,0.0,0.0,0.0,0.0,3.5378,3.4426,3.3897,3.3897,3.3494,3.3329,3.3443,3.333,3.3278,3.3278,3.3153,3.3102,3.3102,3.3102,3.3102,3.3102,3.3102,0.0,0.0,3.3102,3.2972,3.2667,3.1459,3.0339,2.9258,2.8051,2.7067,2.6344,0.0,0.0,0.0,0.0,0.0,0.0,0.0,2.5882,2.658,2.6693,2.7079,2.7546,2.8102,2.7776,0.0,0.0,0.0,0.0,0.0,0.0,0.0,0.0,0.0,0.0,0.0,0.0,0.0,0.0,0.0,0.0,0.0,0.0,0.0,0.0,0.0,0.0,0.0,0.0,0.0,0.0,0.0,0.0,0.0,0.0,0.0,0.0,0.0,0.0,0.0,0.0,0.0,3.1077,3.1642,3.2389,3.2957,3.2397,0.0,0.0,3.4642,3.5545,3.6657,3.6931,3.7024,3.6892,3.6411,0.0,0.0,3.5441,3.5787,3.6417,3.709,0.0,0.0,0.0,0.0,0.0,0.0,0.0,0.0,0.0,0.0,0.0,0.0,0.0,0.0,0.0,0.0,0.0,3.4828,3.4212,3.3897,3.3897,3.3847,3.406,3.454,3.4073,3.3822,3.3822,3.333,3.3102,3.3102,3.3102,3.3102,3.3102,3.3102,0.0,0.0,3.3102,3.3092,3.2939,3.1735,3.1035,3.0587,2.9372,2.8703,2.8425,0.0,0.0,0.0,0.0,0.0,0.0,0.0,2.618,2.6816,2.7144,2.7376,2.7678,2.8166,2.8434,2.8786,0.0,0.0,0.0,0.0,0.0,0.0,0.0,0.0,0.0,0.0,0.0,0.0,0.0,0.0,0.0,0.0,0.0,0.0,0.0,0.0,0.0,0.0,0.0,0.0,0.0,0.0,0.0,0.0,0.0,0.0,0.0,0.0,0.0,0.0,0.0,0.0,0.0,3.0618,3.1286,0.0,0.0,3.3679,3.4894,3.5739,3.6457,3.7097,3.7616,3.6923,3.5981,3.5461,0.0,3.497,3.4736,3.5541,3.6495,3.7177,0.0,0.0,0.0,0.0,0.0,0.0,0.0,0.0,0.0,0.0,0.0,0.0,0.0,0.0,0.0,0.0,0.0,3.5231,3.498,3.4866,3.4866,3.454,3.4477,3.4703,3.449,3.4388,3.4388,3.4173,3.406,3.406,3.3721,3.3581,3.3569,3.3241,0.0,0.0,3.2928,3.2864,3.2722,3.1347,3.0756,3.0509,2.9303,2.8785,2.8704,0.0,0.0,0.0,0.0,0.0,0.0,2.5986,2.6556,2.7079,2.7446,2.7604,2.7789,2.8062,2.8845,2.9289,2.9105,0.0,0.0,0.0,0.0,0.0,0.0,0.0,0.0,0.0,0.0,0.0,0.0,0.0,0.0,0.0,0.0,0.0,0.0,0.0,0.0,0.0,0.0,0.0,0.0,0.0,0.0,0.0,0.0,0.0,0.0,0.0,0.0,0.0,0.0,0.0,0.0,0.0,0.0,0.0,0.0,3.3259,3.4488,3.5566,3.6299,3.6936,3.7663,3.6541,3.5191,0.0,0.0,3.3971,3.4412,3.5288,3.6295,3.7372,3.7903,0.0,0.0,0.0,3.9581,0.0,0.0,0.0,0.0,0.0,0.0,0.0,0.0,0.0,0.0,0.0,0.0,3.6259,3.6084,3.5846,3.5508,3.5131,3.5017,3.5203,3.5041,3.493,3.493,3.4778,3.4703,3.469,3.4313,3.4137,3.4123,3.3734,0.0,0.0,3.3372,3.3152,3.283,3.1663,3.0912,3.0351,2.9077,2.8462,2.8236,0.0,0.0,0.0,0.0,0.0,0.0,0.0,2.7157,2.749,2.7498,2.7854,2.8092,2.8105,2.8947,2.9259,2.8665,0.0,0.0,0.0,0.0,0.0,0.0,0.0,0.0,0.0,0.0,0.0,0.0,0.0,0.0,0.0,0.0,0.0,0.0,0.0,0.0,0.0,0.0,0.0,0.0,0.0,0.0,0.0,0.0,0.0,0.0,0.0,0.0,0.0,0.0,0.0,0.0,0.0,0.0,0.0,0.0,3.219,3.3782,3.3276,3.4297,3.5736,3.6594,3.5596,3.4602,0.0,0.0,3.3421,3.4891,3.5197,3.581,3.7825,3.8202,3.8004,3.7418,0.0,0.0,0.0,0.0,0.0,0.0,0.0,0.0,0.0,0.0,0.0,0.0,0.0,0.0,3.7927,3.7475,3.6671,3.5533,3.5495,3.5782,3.638,3.5782,3.5495,3.5483,3.4955,3.4703,3.4703,3.469,3.469,0.0,0.0,0.0,0.0,3.4678,3.4206,3.3446,3.3029,3.1899,3.0329,2.8919,2.7895,2.7143,0.0,0.0,0.0,0.0,0.0,0.0,0.0,2.7157,2.7498,2.7498,2.7973,2.8205,2.7923,2.8578,2.8847,2.8435,0.0,0.0,0.0,0.0,0.0,0.0,0.0,0.0,0.0,0.0,0.0,0.0,0.0,0.0,0.0,0.0,0.0,0.0,0.0,0.0,0.0,0.0,0.0,0.0,0.0,0.0,0.0,0.0,0.0,0.0,0.0,0.0,0.0,0.0,0.0,0.0,0.0,0.0,0.0,0.0,0.0,0.0,3.2939,3.3468,3.3936,3.4196,3.3291,3.2406,3.2646,0.0,3.2534,3.407,3.4645,3.5538,3.7799,3.7701,3.7379,3.761,3.8329,0.0,0.0,0.0,0.0,0.0,0.0,0.0,0.0,0.0,0.0,0.0,0.0,0.0,3.6934,3.7085,3.7023,3.6671,3.6659,3.6583,3.6393,3.6218,3.6118,3.6106,3.593,3.5866,3.5854,3.5431,3.5256,0.0,0.0,0.0,0.0,3.411,3.386,3.3667,3.1938,3.1263,3.1074,2.9572,2.9065,2.9092,0.0,0.0,0.0,0.0,0.0,0.0,0.0,2.7293,2.7498,2.7498,2.7965,2.8157,2.7845,2.8265,2.8372,2.7849,0.0,0.0,0.0,0.0,0.0,0.0,0.0,0.0,0.0,0.0,0.0,0.0,0.0,0.0,0.0,0.0,0.0,0.0,0.0,0.0,0.0,0.0,0.0,0.0,0.0,0.0,2.5895,0.0,0.0,0.0,0.0,0.0,0.0,0.0,0.0,0.0,0.0,0.0,0.0,0.0,3.0279,3.1045,0.0,3.2776,3.3153,3.3354,3.2541,0.0,0.0,0.0,3.1967,3.3329,3.3967,3.4892,3.6988,3.6845,3.6607,3.7204,3.782,0.0,0.0,0.0,0.0,0.0,0.0,0.0,0.0,0.0,0.0,0.0,0.0,0.0,3.7022,3.7135,3.7198,3.7198,3.6997,3.6745,3.6393,3.6393,3.6393,3.6393,3.6393,3.6393,3.6393,3.6006,3.5844,0.0,0.0,0.0,0.0,3.4692,3.4389,3.4164,3.28,3.2253,3.2041,3.0484,2.995,2.9957,0.0,0.0,0.0,0.0,0.0,0.0,0.0,0.0,0.0,0.0,2.7846,2.8036,2.7878,2.8017,2.7845,0.0,0.0,0.0,0.0,0.0,0.0,0.0,0.0,0.0,0.0,0.0,0.0,0.0,2.5622,2.5589,2.5097,0.0,0.0,0.0,0.0,0.0,0.0,0.0,0.0,0.0,0.0,0.0,0.0,0.0,0.0,0.0,0.0,0.0,0.0,0.0,0.0,0.0,0.0,0.0,0.0,0.0,0.0,0.0,0.0,3.206,0.0,0.0,0.0,0.0,0.0,0.0,0.0,3.2702,3.3187,3.393,3.5654,3.5717,3.5724,3.6366,3.6933,0.0,0.0,0.0,0.0,0.0,0.0,0.0,0.0,0.0,0.0,0.0,0.0,0.0,3.7902,3.755,3.7274,3.7198,3.672,3.6443,3.6393,3.6393,3.6393,3.6393,3.6393,3.6393,3.6393,3.6393,3.6393,0.0,0.0,0.0,0.0,3.6049,3.5491,3.4825,3.4859,3.4162,3.2971,3.1293,3.0381,2.9766,0.0,0.0,0.0,0.0,0.0,0.0,0.0,0.0,0.0,0.0,0.0,2.8182,2.839,2.7877,0.0,0.0,0.0,0.0,0.0,0.0,0.0,0.0,0.0,0.0,0.0,0.0,0.0,2.466,2.5129,2.4902,2.4063,2.4955,0.0,0.0,0.0,0.0,0.0,0.0,0.0,0.0,0.0,0.0,0.0,0.0,0.0,0.0,2.7,2.7256,0.0,0.0,0.0,0.0,0.0,0.0,0.0,0.0,2.9801,2.9864,3.0115,0.0,3.0605,3.0731,3.0557,3.0357,0.0,0.0,0.0,0.0,0.0,3.3155,3.53,3.5147,3.4991,3.5961,3.6237,3.6495,0.0,0.0,0.0,0.0,0.0,0.0,0.0,0.0,0.0,0.0,0.0,3.8479,3.7437,3.8102,3.8102,3.7235,3.7085,3.6808,3.6406,3.6393,3.6393,3.6393,3.6393,3.6393,3.6393,3.6393,3.6393,0.0,0.0,0.0,3.6037,3.5367,3.5083,3.4872,3.2524,3.1764,3.1705,2.9327,2.857,2.8663,0.0,0.0,0.0,0.0,0.0,0.0,0.0,0.0,0.0,0.0,0.0,0.0,0.0,0.0,0.0,0.0,0.0,0.0,0.0,0.0,0.0,0.0,0.0,0.0,0.0,0.0,0.0,0.0,0.0,2.4802,0.0,0.0,0.0,0.0,0.0,0.0,0.0,0.0,0.0,0.0,2.5895,0.0,0.0,0.0,0.0,0.0,2.6683,2.7093,0.0,2.8524,2.905,2.9317,0.0,0.0,0.0,0.0,2.9801,2.9801,2.9801,2.9801,2.9801,2.9801,2.999,3.0105,2.9864,0.0,0.0,0.0,0.0,3.2314,3.3926,3.3985,3.4151,3.5234,3.5849,0.0,0.0,0.0,0.0,0.0,0.0,0.0,0.0,0.0,0.0,0.0,0.0,3.8517,3.7625,3.8153,3.809,3.7235,3.7198,3.6947,3.6406,3.6393,3.6393,3.6393,3.6393,3.6393,3.6393,3.6393,3.6393,0.0,0.0,0.0,3.5955,3.5408,3.5183,3.503,3.3188,3.2719,3.2842,3.0925,3.036,3.0403,0.0,0.0,0.0,0.0,0.0,0.0,0.0,0.0,0.0,0.0,0.0,0.0,0.0,0.0,0.0,0.0,0.0,0.0,0.0,0.0,0.0,0.0,0.0,0.0,0.0,0.0,0.0,0.0,0.0,0.0,0.0,0.0,0.0,0.0,0.0,0.0,0.0,0.0,0.0,0.0,2.5895,0.0,0.0,0.0,0.0,0.0,0.0,0.0,0.0,2.7921,2.8784,2.9801,2.9801,0.0,0.0,0.0,0.0,0.0,2.9801,2.9864,2.9892,2.9817,3.0133,3.0359,2.9892,0.0,0.0,0.0,0.0,0.0,0.0,0.0,0.0,0.0,0.0,0.0,0.0,0.0,0.0,0.0,0.0,0.0,0.0,0.0,0.0,0.0,0.0,3.8228,3.814,3.8216,3.8015,3.7475,3.7462,3.7198,3.6657,3.6481,3.6393,3.6393,3.6393,3.6393,3.6393,3.6393,3.6393,3.6393,0.0,0.0,3.592,3.5656,3.538,3.5102,3.4714,3.4458,3.4176,3.3101,3.2588,3.2174,0.0,0.0,0.0,0.0,0.0,0.0,0.0,0.0,0.0,0.0,0.0,0.0,0.0,0.0,0.0,0.0,0.0,0.0,0.0,0.0,0.0,0.0,0.0,0.0,0.0,0.0,0.0,0.0,0.0,0.0,2.4518,2.5392,2.583,0.0,0.0,0.0,0.0,0.0,0.0,0.0,0.0,0.0,0.0,0.0,0.0,0.0,0.0,0.0,0.0,2.8452,2.916,2.9801,2.9801,0.0,0.0,0.0,0.0,0.0,2.9801,3.0131,3.0372,2.9905,2.9854,2.9892,2.9826,0.0,0.0,0.0,0.0,0.0,0.0,0.0,0.0,0.0,0.0,0.0,0.0,0.0,0.0,0.0,0.0,0.0,0.0,0.0,0.0,0.0,0.0,3.9245,3.8793,3.9195,3.9195,3.8655,3.863,3.8341,3.7764,3.6846,3.6393,3.6393,3.6393,3.6393,3.6393,3.6393,3.6393,3.6381,0.0,3.5908,3.5644,3.5368,3.5102,3.4762,3.3819,3.2901,3.1957,3.082,2.9828,2.9003,0.0,0.0,0.0,0.0,0.0,0.0,0.0,0.0,0.0,0.0,0.0,0.0,0.0,0.0,0.0,0.0,0.0,0.0,0.0,0.0,0.0,0.0,0.0,0.0,0.0,0.0,0.0,0.0,0.0,2.4562,2.4094,2.5075,2.5655,2.5895,0.0,0.0,0.0,0.0,0.0,0.0,0.0,0.0,0.0,0.0,0.0,0.0,0.0,0.0,0.0,0.0,2.8951,2.9801,2.9801,0.0,0.0,0.0,0.0,0.0,2.9801,2.998,3.0181,3.0221,3.0444,3.0592,3.0294,0.0,0.0,0.0,0.0,0.0,0.0,0.0,0.0,0.0,0.0,0.0,0.0,0.0,0.0,0.0,0.0,0.0,0.0,0.0,0.0,0.0,0.0,0.0,3.9346,3.9572,3.9446,3.8919,3.858,3.814,3.7563,3.6783,3.6544,3.6833,3.6833,3.6682,3.6393,3.6393,3.6393,3.6381,0.0,3.5848,3.5584,3.5308,3.5042,3.475,3.4262,3.3758,3.3263,3.274,3.15,3.0076,0.0,0.0,0.0,0.0,0.0,0.0,0.0,0.0,0.0,0.0,0.0,0.0,0.0,0.0,0.0,0.0,0.0,0.0,0.0,0.0,0.0,0.0,0.0,0.0,0.0,0.0,2.4301,2.3888,2.441,2.4489,2.4159,2.4819,2.5385,0.0,0.0,0.0,0.0,0.0,0.0,0.0,0.0,0.0,0.0,0.0,0.0,0.0,0.0,0.0,0.0,0.0,0.0,0.0,0.0,0.0,0.0,2.9801,2.9801,2.9801,2.9801,2.9889,3.0055,3.0347,0.0,3.1019,3.0987,0.0,0.0,0.0,0.0,0.0,0.0,0.0,0.0,0.0,0.0,0.0,0.0,0.0,0.0,0.0,0.0,0.0,0.0,0.0,0.0,0.0,0.0,0.0,3.9697,3.9697,3.9446,3.8919,3.8454,3.7952,3.7387,3.6984,3.6846,3.7022,3.7022,3.6796,3.6393,3.6393,3.6393,3.6381,3.6181,3.5908,3.5584,3.538,3.5102,3.4799,3.4799,3.4653,3.436,3.3845,3.2613,3.1165,0.0,0.0,0.0,0.0,0.0,0.0,0.0,0.0,0.0,0.0,0.0,0.0,0.0,0.0,0.0,0.0,0.0,0.0,0.0,0.0,0.0,0.0,0.0,0.0,0.0,2.4257,2.4475,2.4442,2.4922,2.5267,2.546,2.5092,2.5179,2.5623,0.0,0.0,0.0,0.0,0.0,0.0,0.0,0.0,0.0,0.0,0.0,0.0,0.0,0.0,0.0,0.0,0.0,0.0,0.0,0.0,2.9801,2.9801,2.9801,2.9801,2.9801,3.0168,3.0435,2.9967,2.9889,0.0,3.1752,3.2106,0.0,0.0,0.0,0.0,0.0,0.0,0.0,0.0,0.0,0.0,0.0,0.0,0.0,0.0,0.0,0.0,0.0,0.0,0.0,0.0,0.0,0.0,3.9697,3.9697,3.9446,3.8919,3.8856,3.8542,3.7952,3.7889,3.74,3.6456,3.6456,3.6443,3.6393,3.6393,3.6393,3.6393,3.6381,3.6086,3.5596,3.5584,3.5271,3.4799,3.4799,3.4189,3.3076,3.1013,3.0146,2.9869,0.0,0.0,0.0,0.0,0.0,0.0,0.0,0.0,0.0,0.0,0.0,0.0,0.0,0.0,0.0,0.0,0.0,0.0,0.0,0.0,0.0,0.0,0.0,2.4246,2.3715,2.3899,2.4071,2.4247,2.43,2.4774,2.5591,2.5084,0.0,0.0,0.0,0.0,0.0,0.0,0.0,0.0,0.0,0.0,0.0,0.0,0.0,0.0,0.0,0.0,0.0,0.0,2.926,2.9801,0.0,0.0,2.9801,2.9801,2.9801,2.9801,2.9801,3.0184,3.055,3.0347,0.0,0.0,0.0,0.0,0.0,0.0,0.0,0.0,0.0,0.0,0.0,0.0,0.0,0.0,0.0,0.0,0.0,0.0,0.0,0.0,0.0,0.0,0.0,0.0,0.0,0.0,3.9697,3.9383,3.9258,3.9396,3.8391,3.7889,3.799,3.7663,3.7135,3.6406,3.6745,3.6896,3.6884,3.6556,3.6582,3.6872,3.6366,3.5943,3.5596,3.5416,3.5138,3.4835,3.5171,3.5248,3.5094,3.4246,3.3527,3.2776,0.0,0.0,0.0,0.0,0.0,0.0,0.0,0.0,0.0,0.0,0.0,0.0,0.0,0.0,0.0,0.0,0.0,0.0,0.0,0.0,0.0,0.0,0.0,2.413,2.3854,2.3694,2.3844,2.4312,2.3972,2.4303,2.5238,0.0,0.0,0.0,0.0,0.0,0.0,0.0,0.0,2.5895,2.5895,2.5895,0.0,0.0,0.0,0.0,0.0,0.0,0.0,0.0,2.9417,0.0,0.0,0.0,0.0,0.0,2.9801,2.9801,2.9801,3.0184,3.06,0.0,0.0,0.0,0.0,0.0,0.0,0.0,0.0,0.0,0.0,0.0,0.0,0.0,0.0,0.0,0.0,0.0,0.0,0.0,0.0,0.0,0.0,0.0,0.0,0.0,0.0,0.0,0.0,3.9346,3.9233,3.9446,3.8153,3.755,3.7751,3.7223,3.6758,3.6406,3.6771,3.6947,3.6934,3.6569,3.6607,3.6909,3.6272,3.5848,3.5597,3.549,3.5392,3.534,3.5713,3.6073,3.636,3.6017,3.544,3.4587,0.0,0.0,0.0,0.0,0.0,0.0,0.0,0.0,0.0,0.0,0.0,0.0,0.0,0.0,0.0,0.0,0.0,0.0,0.0,0.0,0.0,0.0,0.0,2.3854,2.4183,2.3672,2.3869,2.4784,2.4121,2.4041,2.4487,2.4291,0.0,0.0,0.0,0.0,0.0,0.0,0.0,2.5895,2.5895,2.5895,2.5979,0.0,0.0,0.0,0.0,0.0,0.0,0.0,2.9801,2.9801,0.0,0.0,0.0,0.0,2.9801,2.9814,2.9801,3.0184,0.0,0.0,0.0,0.0,0.0,0.0,0.0,0.0,0.0,0.0,0.0,0.0,0.0,0.0,0.0,0.0,0.0,0.0,0.0,0.0,0.0,0.0,0.0,0.0,0.0,0.0,0.0,0.0,0.0,3.9685,3.9446,3.8919,3.8304,3.7739,3.7211,3.6669,3.6406,3.6393,3.6406,3.6406,3.6406,3.6393,3.6393,3.6394,3.611,3.5848,3.5621,3.588,3.6155,3.6398,3.6411,3.6411,3.6283,3.5221,3.482,3.4507,0.0,0.0,0.0,0.0,0.0,0.0,0.0,0.0,0.0,0.0,0.0,0.0,0.0,0.0,0.0,0.0,0.0,0.0,0.0,0.0,0.0,0.0,0.0,0.0,0.0,0.0,2.3813,2.41,2.3761,2.3811,0.0,0.0,0.0,2.532,0.0,0.0,0.0,0.0,2.5469,2.5895,2.5895,2.6177,2.6623,0.0,0.0,0.0,0.0,0.0,0.0,0.0,0.0,0.0,0.0,0.0,0.0,2.9905,3.0068,3.0271,2.9892,0.0,0.0,0.0,0.0,0.0,0.0,0.0,0.0,0.0,0.0,0.0,0.0,0.0,0.0,0.0,0.0,0.0,0.0,0.0,0.0,0.0,0.0,0.0,0.0,0.0,0.0,0.0,0.0,0.0,0.0,3.8944,3.863,3.8881,3.7575,3.6984,3.7198,3.7047,3.6771,3.6406,3.6783,3.6959,3.6947,3.6569,3.6499,3.6657,3.62,3.574,3.5308,3.5199,3.5426,3.5869,3.6254,3.6627,3.6961,3.7034,3.7046,3.6704,0.0,0.0,0.0,0.0,0.0,0.0,0.0,0.0,0.0,0.0,0.0,0.0,0.0,0.0,0.0,0.0,0.0,0.0,0.0,0.0,0.0,0.0,0.0,0.0,0.0,2.3441,2.3676,0.0,0.0,0.0,0.0,0.0,0.0,2.5194,0.0,2.5174,0.0,0.0,2.5195,2.5644,2.5819,2.6302,2.6922,0.0,0.0,0.0,0.0,0.0,0.0,0.0,0.0,0.0,0.0,0.0,0.0,2.9892,3.003,3.0269,3.0143,0.0,0.0,0.0,0.0,0.0,0.0,0.0,0.0,0.0,0.0,0.0,0.0,0.0,0.0,0.0,0.0,0.0,0.0,0.0,0.0,0.0,0.0,0.0,0.0,0.0,0.0,0.0,0.0,0.0,0.0,3.8504,3.8278,3.8881,3.7474,3.6984,3.7512,3.7097,3.6833,3.672,3.6726,3.6828,3.7028,3.649,3.6272,3.6293,3.5876,3.555,3.5344,3.5173,3.5424,3.5965,3.6519,3.6928,3.7252,3.7795,3.7695,3.7014,0.0,0.0,0.0,0.0,0.0,0.0,0.0,0.0,0.0,0.0,0.0,0.0,0.0,0.0,0.0,0.0,0.0,0.0,0.0,0.0,0.0,0.0,0.0,0.0,0.0,0.0,0.0,0.0,0.0,0.0,0.0,0.0,2.4665,2.5077,0.0,2.4738,0.0,2.4673,2.4799,2.5401,2.5792,2.6406,2.7126,2.7681,0.0,0.0,0.0,0.0,0.0,0.0,0.0,0.0,2.9864,2.9914,2.9952,2.9952,2.9952,3.0043,3.0548,0.0,0.0,0.0,0.0,0.0,0.0,0.0,0.0,0.0,0.0,0.0,0.0,0.0,0.0,0.0,0.0,0.0,0.0,0.0,0.0,0.0,0.0,0.0,0.0,0.0,0.0,0.0,0.0,0.0,0.0,3.8253,3.8178,3.873,3.7688,3.7362,3.7852,3.6884,3.6621,3.7074,3.6347,3.624,3.6638,3.6167,3.5824,3.5548,3.5283,3.5296,3.5532,3.5532,3.5809,3.6302,3.6892,3.7133,3.7205,3.7782,3.7242,3.6027,0.0,0.0,0.0,0.0,0.0,0.0,0.0,0.0,0.0,0.0,0.0,0.0,0.0,0.0,0.0,0.0,0.0,0.0,0.0,0.0,0.0,0.0,0.0,0.0,0.0,0.0,0.0,0.0,0.0,0.0,0.0,0.0,0.0,2.4327,0.0,2.4556,2.5515,2.4421,2.4974,2.6601,2.6439,2.7185,2.8417,2.8544,2.9,0.0,0.0,0.0,0.0,0.0,0.0,0.0,3.0306,3.0721,3.1057,3.1057,3.1057,3.1082,0.0,3.1308,0.0,0.0,0.0,0.0,0.0,0.0,0.0,0.0,0.0,0.0,0.0,0.0,0.0,0.0,0.0,0.0,0.0,0.0,0.0,0.0,0.0,0.0,0.0,0.0,0.0,0.0,0.0,0.0,3.8216,3.7675,3.7424,3.7562,3.6909,3.6632,3.6733,3.6519,3.635,0.0,3.6077,3.5838,3.5551,3.5646,3.5536,3.5271,3.5005,3.492,3.4979,3.4979,3.5039,3.5232,3.6193,3.6579,3.6687,3.765,3.7242,3.6027,0.0,0.0,0.0,0.0,0.0,0.0,0.0,0.0,0.0,0.0,0.0,0.0,0.0,0.0,0.0,0.0,0.0,0.0,0.0,0.0,0.0,0.0,0.0,0.0,0.0,0.0,0.0,0.0,0.0,0.0,0.0,0.0,0.0,2.3978,0.0,2.4742,2.5338,2.4827,2.5252,2.6309,2.6617,2.7406,2.8451,2.8694,2.9219,2.9801,2.9801,0.0,0.0,0.0,0.0,0.0,0.0,0.0,3.1022,3.1022,3.1208,3.1396,0.0,0.0,0.0,0.0,0.0,0.0,0.0,0.0,0.0,0.0,0.0,0.0,0.0,0.0,0.0,0.0,0.0,0.0,0.0,0.0,0.0,0.0,0.0,0.0,0.0,0.0,0.0,0.0,0.0,3.7939,3.7626,3.711,3.6934,3.7186,3.6682,3.6519,3.6783,3.6531,3.6389,3.6376,3.5984,3.5536,3.5017,3.5151,3.5138,3.5005,3.486,3.4799,3.4799,3.4799,3.4955,3.5256,3.6073,3.6567,3.6879,3.7698,3.7242,3.6027,0.0,0.0,0.0,0.0,0.0,0.0,0.0,0.0,0.0,0.0,0.0,0.0,0.0,0.0,0.0,0.0,0.0,0.0,0.0,0.0,0.0,0.0,0.0,0.0,0.0,0.0,0.0,0.0,0.0,0.0,0.0,0.0,0.0,2.4195,0.0,0.0,2.5182,2.5321,2.5546,2.589,2.6748,2.7533,2.8225,2.8763,2.9319,2.9801,2.9801,2.9801,2.9801,2.9801,0.0,0.0,0.0,0.0,3.0761,3.0849,3.1198,3.156,0.0,0.0,0.0,0.0,0.0,0.0,0.0,0.0,0.0,0.0,0.0,0.0,0.0,0.0,0.0,0.0,0.0,0.0,0.0,0.0,0.0,0.0,0.0,0.0,0.0,0.0,0.0,0.0,0.0,3.7161,3.7072,3.6644,3.6607,3.7047,3.6632,3.6607,3.706,3.6584,3.6429,3.6576,3.5817,3.5223,3.4799,3.4799,3.4799,3.4799,3.4799,3.4799,3.4799,3.4799,3.5063,3.552,3.6145,3.6675,3.7145,3.777,3.7183,3.5902,0.0,0.0,0.0,0.0,0.0,0.0,0.0,0.0,0.0,0.0,0.0,0.0,0.0,0.0,0.0,0.0,0.0,0.0,2.5632,0.0,0.0,2.5342,2.5359,0.0,0.0,0.0,0.0,0.0,0.0,0.0,0.0,0.0,0.0,2.5595,0.0,0.0,0.0,2.5175,2.5722,2.7092,2.7407,2.8034,2.8837,2.9441,2.9711,2.9801,2.9801,2.9801,2.9801,2.9801,2.9801,0.0,0.0,0.0,3.1373,3.1853,3.2041,3.2215,0.0,0.0,0.0,0.0,0.0,0.0,0.0,0.0,0.0,0.0,0.0,0.0,0.0,0.0,0.0,0.0,0.0,0.0,0.0,0.0,0.0,0.0,0.0,0.0,0.0,0.0,0.0,0.0,3.7236,3.6997,3.6531,3.6443,3.6431,3.6506,3.6443,3.6431,3.6506,3.6207,3.5957,3.5755,3.5187,3.4872,3.4799,3.4799,3.4799,3.4799,3.4799,3.4799,3.4799,3.4799,3.4847,3.5015,3.6001,3.6447,3.6627,3.7626,3.6947,3.5399,0.0,0.0,0.0,0.0,0.0,0.0,0.0,0.0,0.0,0.0,0.0,0.0,0.0,0.0,0.0,2.6484,2.6521,2.6396,2.6124,2.6107,2.595,2.5606,2.5889,2.5721,0.0,0.0,0.0,0.0,0.0,0.0,0.0,2.7863,2.7098,0.0,0.0,0.0,0.0,0.0,2.6186,2.6908,2.7603,2.8114,2.8552,0.0,0.0,0.0,0.0,0.0,0.0,2.9801,2.9801,2.9892,3.0435,0.0,0.0,0.0,3.1966,0.0,3.3294,3.4391,3.5389,0.0,0.0,0.0,0.0,0.0,0.0,0.0,0.0,0.0,0.0,0.0,0.0,0.0,0.0,0.0,0.0,0.0,0.0,0.0,0.0,0.0,0.0,0.0,0.0,0.0,3.6746,3.6657,3.6406,3.6393,3.6393,3.6393,3.6393,3.6335,3.6181,3.6051,3.5788,3.5368,3.4969,3.4799,3.4799,3.4799,3.4799,3.4799,3.4799,3.4799,3.4799,3.4799,3.5147,3.5749,3.623,3.6771,3.7349,3.7819,3.7513,3.6726,0.0,0.0,0.0,0.0,0.0,0.0,0.0,0.0,0.0,0.0,0.0,0.0,0.0,0.0,0.0,0.0,2.6512,2.6508,2.6508,2.6508,2.6297,2.5854,2.6217,2.621,2.5759,0.0,0.0,0.0,0.0,0.0,2.9789,2.9343,2.8497,0.0,2.7192,0.0,0.0,0.0,0.0,0.0,0.0,2.8142,0.0,0.0,0.0,0.0,0.0,0.0,0.0,0.0,0.0,0.0,0.0,0.0,0.0,0.0,0.0,0.0,0.0,0.0,3.4399,0.0,0.0,0.0,0.0,0.0,0.0,0.0,0.0,0.0,0.0,0.0,0.0,0.0,0.0,0.0,0.0,0.0,0.0,0.0,0.0,0.0,0.0,0.0,0.0,0.0,3.6393,3.6393,3.6393,3.6393,3.6393,3.6393,3.6393,3.6299,3.6098,3.598,3.5632,3.5102,3.4908,3.4871,3.5003,3.4871,3.4871,3.4991,3.4859,3.4799,3.4799,3.4799,3.5268,3.6025,3.629,3.6892,3.7626,3.7891,3.7903,3.7635,0.0,0.0,0.0,0.0,0.0,0.0,0.0,0.0,0.0,0.0,0.0,0.0,0.0,2.5374,2.5854,2.662,2.6564,2.6508,2.6508,2.6508,2.6491,2.6456,2.6481,0.0,2.6451,0.0,0.0,0.0,0.0,0.0,2.9801,2.9776,2.9703,2.9575,2.8503,2.7754,2.7274,0.0,0.0,0.0,0.0,0.0,0.0,0.0,0.0,0.0,0.0,0.0,0.0,0.0,0.0,0.0,0.0,0.0,0.0,0.0,0.0,0.0,0.0,3.3884,0.0,3.4777,0.0,0.0,0.0,0.0,0.0,0.0,0.0,0.0,0.0,0.0,0.0,0.0,0.0,0.0,0.0,0.0,0.0,0.0,0.0,0.0,0.0,0.0,0.0,0.0,3.6393,3.6393,3.6393,3.6393,3.6393,3.6393,3.6393,3.6381,3.6381,3.5871,3.5344,3.4823,3.4811,3.5063,3.5532,3.5027,3.5075,3.5532,3.5027,3.4799,3.4799,3.4799,3.4835,3.4979,3.6001,3.6435,3.6615,3.7626,3.7674,3.7144,0.0,0.0,0.0,0.0,0.0,0.0,0.0,0.0,0.0,0.0,0.0,0.0,0.0,2.5535,2.5858,2.6513,2.6521,2.6508,2.6508,2.6508,2.6508,2.6508,2.6839,2.7006,2.7006,0.0,0.0,0.0,0.0,2.9393,2.9233,2.9616,2.9801,2.9776,2.8979,2.8326,2.7808,2.7808,0.0,0.0,0.0,0.0,0.0,0.0,0.0,0.0,0.0,0.0,0.0,0.0,0.0,0.0,0.0,0.0,0.0,0.0,0.0,0.0,0.0,0.0,0.0,3.4527,0.0,0.0,0.0,0.0,0.0,0.0,0.0,0.0,0.0,0.0,0.0,0.0,0.0,0.0,0.0,0.0,0.0,0.0,0.0,0.0,0.0,0.0,0.0,0.0,0.0,3.6393,3.6393,3.6393,3.6393,3.6393,3.6393,3.6227,3.5883,3.5356,3.4993,3.4799,3.4799,3.4907,3.5075,3.4895,3.4907,3.5075,3.4883,3.4991,3.534,3.5676,3.6025,3.6386,3.6759,3.712,3.747,3.7855,3.7389,3.6527,0.0,0.0,0.0,0.0,0.0,0.0,0.0,0.0,0.0,0.0,0.0,0.0,0.0,0.0,2.6055,2.647,2.6508,2.6508,2.6508,2.6508,2.6508,2.6508,2.7006,2.7298,2.7298,0.0,0.0,0.0,0.0,0.0,0.0,2.9041,2.9327,2.9478,2.9082,2.8706,0.0,0.0,0.0,2.7654,0.0,0.0,2.9154,0.0,0.0,0.0,0.0,0.0,0.0,0.0,0.0,0.0,0.0,0.0,0.0,0.0,0.0,0.0,3.2889,0.0,0.0,0.0,0.0,0.0,0.0,0.0,0.0,0.0,0.0,0.0,0.0,0.0,0.0,0.0,0.0,0.0,0.0,0.0,0.0,0.0,0.0,0.0,0.0,0.0,0.0,0.0,0.0,0.0,3.6393,3.6393,3.6358,3.6264,3.6264,3.6002,3.5476,3.5114,3.4884,3.4799,3.4799,3.4883,3.5063,3.4883,3.4895,3.5075,3.5075,3.5268,3.5629,3.5977,3.6459,3.6952,3.7133,3.7422,3.7746,3.7927,3.7495,3.6744,0.0,0.0,0.0,0.0,0.0,0.0,0.0,0.0,0.0,0.0,0.0,0.0,0.0,0.0,0.0,2.6508,2.6508,2.6508,2.6508,2.6508,2.6508,2.6508,2.7006,2.7311,2.7324,0.0,0.0,0.0,0.0,0.0,0.0,0.0,2.8392,0.0,2.8885,2.8885,2.8897,0.0,2.8618,2.8181,0.0,2.9098,2.9023,0.0,0.0,0.0,2.9801,2.9801,0.0,0.0,0.0,0.0,0.0,0.0,0.0,0.0,0.0,0.0,0.0,0.0,0.0,0.0,0.0,0.0,0.0,0.0,0.0,0.0,0.0,0.0,0.0,0.0,0.0,0.0,0.0,0.0,0.0,0.0,0.0,0.0,0.0,0.0,0.0,0.0,0.0,0.0,3.6406,3.6418,3.6393,3.6393,3.6275,3.6015,3.5992,3.5728,3.5211,3.5187,3.5066,3.4799,3.4799,3.5075,3.5568,3.5039,3.5087,3.558,3.558,3.5592,3.5604,3.5641,3.5953,3.6507,3.7024,3.7216,3.7289,3.7807,3.7986,3.7775,0.0,0.0,0.0,0.0,0.0,0.0,0.0,0.0,0.0,0.0,0.0,0.0,0.0,0.0,0.0,2.6508,2.6508,2.6508,2.6508,2.6508,2.6508,2.6508,2.7006,2.7478,0.0,0.0,0.0,0.0,0.0,0.0,0.0,0.0,0.0,0.0,2.8493,2.8543,2.8922,2.9368,0.0,0.0,2.9372,2.9684,0.0,0.0,0.0,0.0,0.0,2.9801,0.0,0.0,3.0055,3.0372,0.0,0.0,0.0,0.0,0.0,0.0,3.1673,0.0,0.0,0.0,0.0,0.0,0.0,0.0,0.0,0.0,0.0,0.0,0.0,0.0,0.0,0.0,0.0,0.0,0.0,0.0,0.0,0.0,0.0,0.0,0.0,0.0,0.0,0.0,3.6758,3.6808,3.6418,3.6393,3.6275,3.6015,3.5812,3.5548,3.5199,3.5017,3.4872,3.4799,3.4799,3.4883,3.5015,3.4871,3.4883,3.5027,3.5027,3.5232,3.5665,3.6447,3.7072,3.7578,3.7722,3.777,3.7795,3.7952,3.7455,3.6652,0.0,0.0,0.0,0.0,0.0,0.0,0.0,0.0,0.0,0.0,0.0,0.0,0.0,0.0,0.0,2.6508,2.6508,2.6508,2.6508,2.6508,2.6508,2.6508,2.7223,2.777,0.0,0.0,0.0,0.0,0.0,0.0,0.0,0.0,0.0,0.0,0.0,0.0,0.0,0.0,0.0,0.0,2.9654,0.0,0.0,2.984,2.9879,0.0,0.0,0.0,3.0093,2.9877,3.0005,0.0,0.0,0.0,0.0,0.0,0.0,0.0,0.0,0.0,0.0,0.0,0.0,0.0,3.234,3.2905,0.0,0.0,0.0,0.0,0.0,0.0,0.0,0.0,0.0,0.0,0.0,0.0,0.0,0.0,0.0,0.0,0.0,3.799,3.7651,3.6796,3.7022,3.6859,3.6068,3.6019,3.5854,3.5514,3.5348,3.5196,3.503,3.4884,3.4799,3.4799,3.4799,3.4799,3.4799,3.4799,3.4799,3.4799,3.4799,3.5232,3.5977,3.6615,3.718,3.7662,3.7662,3.7795,3.7934,3.7429,3.7121,3.6744,0.0,0.0,0.0,0.0,0.0,0.0,0.0,0.0,0.0,0.0,0.0,0.0,0.0,0.0,0.0,0.0,2.6508,2.6508,2.6508,2.6508,0.0,0.0,0.0,0.0,0.0,0.0,0.0,0.0,0.0,0.0,0.0,0.0,0.0,0.0,0.0,0.0,0.0,0.0,0.0,2.9801,2.9801,2.9801,0.0,0.0,2.9801,0.0,2.9801,3.0105,3.0447,3.003,2.9852,0.0,0.0,0.0,0.0,0.0,3.0171,0.0,0.0,0.0,0.0,0.0,0.0,0.0,3.234,3.2677,3.3102,0.0,0.0,0.0,0.0,0.0,0.0,0.0,0.0,0.0,0.0,0.0,0.0,0.0,0.0,0.0,3.8103,3.814,3.7939,3.7336,3.7185,3.6597,3.5436,3.5396,3.5176,3.4676,3.47,3.4685,3.4631,3.4691,3.4703,3.4703,3.4775,3.4799,3.4799,3.4799,3.4799,3.4799,3.4871,3.5424,3.6326,3.6386,3.6747,3.7289,3.7289,3.7578,3.7841,3.6638,3.6879,3.7336,2.3821,0.0,0.0,0.0,0.0,0.0,0.0,0.0,0.0,0.0,0.0,0.0,0.0,0.0,0.0,0.0,0.0,2.6508,2.6508,0.0,0.0,0.0,0.0,2.7666,0.0,0.0,0.0,0.0,0.0,0.0,0.0,0.0,0.0,0.0,0.0,0.0,0.0,0.0,0.0,2.9801,2.9801,0.0,2.9801,2.9801,2.9801,2.9801,2.9801,2.9877,3.0005,0.0,3.0168,2.9877,0.0,0.0,0.0,0.0,0.0,0.0,0.0,0.0,0.0,0.0,0.0,0.0,3.234,3.2677,3.3102,0.0,0.0,0.0,0.0,0.0,0.0,0.0,0.0,0.0,0.0,0.0,0.0,0.0,0.0,0.0,3.8718,3.9107,3.8944,3.7927,3.7035,3.5985,3.4679,3.4764,3.4535,3.3858,3.4043,3.3977,3.3608,3.397,3.4162,3.4162,3.4583,3.4799,3.4799,3.4799,3.4799,3.4823,3.5256,3.5568,3.5797,3.6218,3.6964,3.7843,3.7843,3.7916,3.7841,3.6638,3.634,3.6313,2.45,0.0,0.0,0.0,0.0,0.0,0.0,0.0,0.0,0.0,0.0,0.0,0.0,0.0,0.0,0.0,0.0,0.0,0.0,0.0,0.0,0.0,2.7273,2.7821,0.0,0.0,0.0,0.0,0.0,0.0,0.0,0.0,0.0,0.0,0.0,0.0,0.0,0.0,2.9528,2.9801,2.9801,0.0,2.9801,2.9801,2.9801,2.9801,2.9801,2.9801,2.988,3.0422,3.0234,0.0,0.0,3.0018,2.9801,0.0,2.9801,2.9801,0.0,0.0,0.0,3.0997,0.0,0.0,0.0,3.2677,3.3004,3.2715,3.3319,0.0,0.0,0.0,0.0,0.0,0.0,0.0,0.0,0.0,0.0,0.0,0.0,0.0,3.9296,3.9296,3.8831,3.7688,3.6584,3.55,3.4459,3.4204,3.3817,3.3218,3.3332,3.3375,3.3296,3.3525,3.3766,3.4006,3.427,3.4535,3.4799,3.4799,3.4799,3.4811,3.5087,3.5496,3.6013,3.629,3.7024,3.7952,3.741,3.753,3.7752,3.5678,3.5448,3.5863,2.5527,0.0,0.0,0.0,0.0,0.0,0.0,0.0,0.0,0.0,0.0,0.0,0.0,0.0,0.0,0.0,0.0,0.0,0.0,0.0,0.0,0.0,0.0,2.8037,0.0,2.9164,0.0,0.0,0.0,0.0,0.0,0.0,0.0,0.0,0.0,0.0,0.0,0.0,0.0,2.9801,0.0,2.9801,2.9801,2.9801,2.9801,2.9801,2.9801,2.9801,2.9877,3.0306,0.0,2.9939,2.9839,2.9867,0.0,0.0,0.0,0.0,0.0,0.0,0.0,0.0,0.0,3.2204,0.0,0.0,0.0,3.2453,0.0,0.0,0.0,0.0,0.0,0.0,0.0,0.0,0.0,0.0,0.0,0.0,0.0,0.0,0.0,3.8881,3.8102,3.696,3.592,3.5004,3.4206,3.3646,3.3104,3.2603,3.2637,3.2753,3.2983,3.3091,3.3392,3.3874,3.3958,3.4282,3.4799,3.4799,3.4799,3.4811,3.4919,3.5496,3.6411,3.6519,3.7133,3.7903,3.7048,3.7098,3.7342,3.4727,3.451,3.5082,2.7404,2.7936,0.0,0.0,0.0,0.0,0.0,0.0,0.0,0.0,0.0,0.0,0.0,0.0,0.0,0.0,0.0,0.0,2.6508,0.0,0.0,0.0,0.0,0.0,2.8784,2.8935,0.0,0.0,0.0,0.0,0.0,0.0,0.0,0.0,2.9801,0.0,0.0,0.0,2.9801,0.0,2.9801,2.9801,0.0,2.9801,2.9801,2.9801,2.9801,2.9801,2.9814,0.0,3.0168,3.0422,0.0,3.0131,0.0,0.0,0.0,0.0,0.0,0.0,0.0,0.0,3.18,0.0,0.0,0.0,3.243,3.2891,0.0,0.0,0.0,0.0,0.0,0.0,0.0,0.0,0.0,0.0,0.0,0.0,0.0,0.0,0.0,3.7713,3.6923,3.5783,3.5131,3.4373,3.3389,3.2988,3.2482,3.1857,3.2001,3.2015,3.1887,3.2357,3.2851,3.338,3.3802,3.4282,3.4799,3.4799,3.4799,3.4835,3.5304,3.5845,3.6447,3.6904,3.747,3.8,3.788,3.7241,3.6233,3.4825,3.38,3.2899,2.8344,2.9057,0.0,0.0,0.0,0.0,0.0,0.0,0.0,0.0,0.0,0.0,0.0,0.0,0.0,0.0,0.0,2.7924,0.0,0.0,0.0,0.0,0.0,0.0,0.0,3.0121,3.0447,0.0,3.0693,0.0,0.0,0.0,0.0,0.0,3.0434,0.0,2.9801,0.0,0.0,0.0,0.0,0.0,0.0,2.9801,2.9801,2.9801,2.9801,2.9801,2.9801,0.0,3.0168,0.0,0.0,0.0,0.0,0.0,0.0,0.0,0.0,0.0,0.0,0.0,0.0,0.0,3.2129,0.0,3.2367,0.0,0.0,0.0,0.0,0.0,0.0,0.0,3.3872,0.0,0.0,0.0,0.0,0.0,0.0,0.0,0.0,0.0,0.0,0.0,3.5118,3.4736,3.3713,3.3239,3.2744,3.2175,3.1941,3.1794,3.1694,3.1924,3.2465,3.3296,3.3176,3.3549,3.433,3.433,3.433,3.4366,3.4907,3.5616,3.6423,3.6639,3.7241,3.7921,3.7229,3.665,3.602,3.4505,3.3414,3.2538,2.9272,0.0,0.0,0.0,0.0,0.0,0.0,0.0,0.0,0.0,0.0,0.0,3.1515,3.1274,0.0,0.0,0.0,2.8885,0.0,0.0,2.9006,0.0,0.0,0.0,0.0,0.0,0.0,0.0,0.0,0.0,0.0,0.0,0.0,0.0,0.0,3.0601,3.0094,0.0,0.0,2.9801,2.9801,2.9801,2.9801,2.9801,2.9801,2.9801,2.9801,2.9892,3.0018,3.0018,3.0472,0.0,3.0861,0.0,0.0,0.0,0.0,0.0,3.1512,0.0,0.0,0.0,0.0,0.0,0.0,0.0,0.0,0.0,0.0,0.0,0.0,0.0,0.0,0.0,0.0,0.0,0.0,0.0,0.0,0.0,0.0,0.0,0.0,0.0,0.0,3.4778,3.4861,3.4629,3.3904,3.3306,3.279,3.2375,3.1933,3.1694,3.1694,3.1694,3.2152,3.3079,3.2851,3.3092,3.3814,3.3946,3.4006,3.4018,3.4402,3.5183,3.6181,3.5983,3.645,3.7176,3.612,3.5523,3.5093,3.3822,3.2871,3.208,3.0415,3.0568,0.0,0.0,0.0,0.0,0.0,0.0,0.0,0.0,0.0,0.0,0.0,0.0,0.0,0.0,0.0,2.8684,2.8147,0.0,2.917,0.0,0.0,3.0361,0.0,0.0,0.0,0.0,0.0,0.0,0.0,0.0,0.0,0.0,0.0,3.0895,3.0811,3.0101,2.9801,2.9801,2.9801,2.9801,2.9801,0.0,2.9801,2.9801,2.9801,0.0,0.0,3.0563,3.1275,0.0,0.0,0.0,0.0,0.0,0.0,0.0,0.0,0.0,0.0,3.1683,0.0,0.0,0.0,0.0,3.1748,0.0,0.0,0.0,0.0,0.0,0.0,0.0,0.0,0.0,0.0,0.0,0.0,0.0,0.0,0.0,0.0,0.0,0.0,3.4731,3.399,3.3558,3.3522,3.2828,3.2304,3.2018,3.1805,3.1694,3.1694,3.1694,3.1972,3.2527,3.3032,3.3296,3.3344,3.379,3.4006,3.4006,3.4018,3.4631,3.5577,3.4924,3.4978,3.5415,3.4731,3.3772,3.2813,3.275,3.1983,3.0947,0.0,0.0,0.0,0.0,0.0,0.0,0.0,3.2875,0.0,0.0,0.0,0.0,0.0,0.0,3.3069,0.0,0.0,3.0884,2.9811,3.0469,0.0,0.0,0.0,3.1757,0.0,0.0,0.0,0.0,0.0,0.0,0.0,0.0,0.0,0.0,0.0,3.215,0.0,0.0,0.0,0.0,0.0,3.0018,3.0284,0.0,0.0,2.9801,2.9801,3.0133,0.0,3.06,3.1303,3.2167,3.1989,3.2054,3.2242,3.2464,3.2365,0.0,0.0,0.0,3.2914,3.2127,0.0,0.0,0.0,0.0,0.0,0.0,0.0,0.0,0.0,0.0,0.0,0.0,0.0,0.0,0.0,0.0,0.0,0.0,0.0,0.0,0.0,0.0,0.0,3.4176,3.392,3.3698,3.3508,3.3137,3.2818,3.2538,3.1986,3.1694,3.1694,3.1694,3.1972,3.2503,3.2321,3.2609,3.3296,3.3092,3.3369,3.4006,3.4006,3.4811,3.6045,3.5013,3.5121,3.5749,3.3974,3.3045,3.2699,3.2699,3.1946,3.0903,3.1379,0.0,0.0,0.0,0.0,0.0,0.0,0.0,0.0,0.0,3.5128,0.0,3.6228,0.0,3.4635,0.0,3.3018,3.2036,3.1056,3.1649,0.0,3.0525,3.1879,0.0,0.0,0.0,0.0,0.0,3.3773,3.413,0.0,0.0,0.0,0.0,0.0,0.0,0.0,0.0,3.0749,0.0,0.0,3.0005,0.0,0.0,2.9917,3.0071,0.0,3.0432,3.0911,3.1102,3.1765,3.2516,3.2516,3.2516,3.2554,3.2727,3.2665,3.2554,3.2727,3.2939,0.0,3.2342,3.2204,0.0,3.2204,0.0,0.0,0.0,0.0,0.0,0.0,0.0,0.0,0.0,0.0,0.0,0.0,3.4643,0.0,0.0,0.0,0.0,0.0,0.0,3.3867,3.3624,3.3696,3.3556,0.0,0.0,3.3035,3.2672,3.2224,3.1887,3.1694,3.1694,3.1863,3.2213,3.2056,3.2357,3.3008,3.2863,3.3333,3.4282,3.4282,3.5087,3.6283,3.4837,3.4656,3.5059,3.2911,3.2061,3.2061,3.2061,3.1566,3.0903,0.0,0.0,0.0,0.0,3.2598,0.0,0.0,0.0,3.4041,0.0,3.5465,3.5723,3.633,3.545,3.4597,3.4099,3.2982,0.0,3.1818,3.2283,0.0,0.0,3.1729,3.1744,3.1696,0.0,0.0,0.0,3.4019,3.4397,0.0,0.0,0.0,0.0,3.3598,0.0,3.2155,3.136,3.0576,2.9847,2.9847,2.9853,2.9839,2.9839,3.0168,3.0648,3.06,3.0937,3.1484,3.2026,3.2604,3.3102,3.3102,3.3102,3.2989,3.2405,3.2641,3.2966,3.2403,3.2665,3.2953,3.239,0.0,0.0,0.0,0.0,3.2416,0.0,0.0,0.0,0.0,0.0,0.0,0.0,0.0,0.0,0.0,0.0,0.0,0.0,0.0,0.0,0.0,3.4889,3.4243,3.3221,3.3303,3.306,0.0,0.0,3.2942,3.2423,3.2436,3.2213,3.1706,3.1694,3.1694,3.1706,3.2213,3.2466,3.2515,3.3055,3.3849,3.4799,3.4835,3.5411,3.6215,3.4356,3.3571,3.3384,3.1592,3.0903,3.0903,3.0903,3.0903,3.0903,3.2119,3.3004,3.3701,0.0,3.3904,3.397,0.0,0.0,0.0,0.0,3.6504,3.7041,3.7651,3.6892,3.6278,3.6145,3.472,0.0,0.0,0.0,0.0,3.1508,3.2192,3.2308,3.1706,3.3083,0.0,3.3196,3.4019,0.0,3.4397,0.0,0.0,0.0,0.0,0.0,3.3765,3.295,3.1833,3.062,3.062,3.0532,0.0,0.0,3.0733,3.1135,3.0748,3.0937,3.1484,3.2026,3.2604,3.3102,3.3102,3.3102,3.3077,3.2903,3.2989,3.3065,3.2903,3.2989,3.3065,3.2903,3.2876,3.2876,0.0,0.0,0.0,0.0,0.0,0.0,0.0,0.0,0.0,0.0,0.0,0.0,0.0,0.0,0.0,3.4785,0.0,0.0,3.541,3.396,3.3156,3.3662,3.284,3.2274,3.2196,0.0,0.0,3.2412,3.2083,3.1838,3.1694,3.1694,3.1694,3.1694,3.1838,3.2105,3.2515,3.3055,3.3849,3.4823,3.522,3.5498,3.5558,3.4167,3.3345,3.2796,3.143,3.0903,3.0903,3.0903,3.0903,3.0903,3.3576,0.0,0.0,3.4831,0.0,0.0,3.4843,0.0,0.0,3.6176,3.6626,0.0,3.7738,3.7267,3.6795,3.6528,3.4976,0.0,0.0,0.0,0.0,3.338,3.3255,3.3011,3.2672,3.3742,0.0,3.3196,0.0,0.0,3.4397,0.0,0.0,0.0,0.0,3.4204,0.0,3.2661,3.1862,3.1306,3.0919,0.0,0.0,3.0861,3.1145,3.1396,3.1326,3.1489,3.1838,3.2403,3.2815,3.3102,3.3102,3.3102,3.3102,3.3102,3.3102,3.3102,3.3102,3.3102,3.3102,3.3102,3.3102,3.3102,3.3102,3.3102,3.3102,0.0,0.0,0.0,0.0,0.0,0.0,0.0,0.0,0.0,0.0,0.0,0.0,0.0,3.4399,0.0,3.5343,3.342,3.2336,3.2809,3.2485,3.2152,0.0,0.0,0.0,3.2237,3.2331,3.2164,3.1706,3.1924,3.2056,3.2056,3.2056,3.243,3.3165,3.3705,3.4523,3.5532,3.6074,3.609,3.5663,3.4446,3.347,3.2565,3.1145,3.0727,3.0884,3.0664,3.0713,3.0903,0.0,0.0,0.0,0.0,0.0,0.0,0.0,3.5105,0.0,3.6292,0.0,3.6771,3.7351,3.7135,3.6728,3.6168,0.0,3.4174,3.5022,3.3551,3.3628,3.5844,3.4594,3.384,3.3909,3.4191,0.0,0.0,0.0,0.0,0.0,0.0,0.0,0.0,0.0,0.0,0.0,3.2064,3.1696,3.1957,3.1211,3.0824,3.0761,3.1298,3.1499,3.1585,3.2116,3.2267,3.2292,3.2901,3.3102,3.3102,3.3102,3.3102,3.3102,3.3102,3.3102,3.3102,3.3102,3.3102,3.3102,3.3102,3.3102,3.3102,3.3102,3.3102,3.3102,3.3102,3.3102,3.3102,0.0,0.0,0.0,0.0,0.0,0.0,0.0,0.0,0.0,0.0,0.0,0.0,3.5003,3.3294,3.205,3.1752,3.2333,3.2355,0.0,0.0,0.0,3.2029,3.2712,3.2682,3.1803,0.0,3.2503,3.2503,3.2575,3.3032,3.3826,3.4559,3.5412,3.6326,3.7,3.6789,3.5891,3.4836,3.3589,3.2234,3.084,3.0459,3.0684,3.0391,3.0483,3.0737,0.0,0.0,0.0,0.0,0.0,3.5572,3.6069,3.651,3.6872,3.7104,3.7554,3.7912,3.8028,3.7555,3.7099,3.6769,3.6026,0.0,0.0,0.0,0.0,3.5645,3.5597,3.504,3.3915,3.475,3.4541,0.0,0.0,0.0,0.0,0.0,0.0,0.0,0.0,0.0,3.501,3.4728,0.0,3.2707,3.2557,3.2,3.1321,3.1863,3.2054,3.2139,3.2727,3.2616,3.2292,3.2901,3.3102,3.3102,3.3102,3.3102,3.3102,3.3102,3.3102,3.3102,3.3102,3.3102,3.3102,3.3102,3.3102,3.3102,3.3102,3.3102,3.3102,3.3102,3.3102,3.3102,3.3102,0.0,0.0,0.0,0.0,0.0,0.0,0.0,0.0,0.0,0.0,0.0,0.0,3.3863,3.3429,3.293,0.0,0.0,0.0,0.0,0.0,0.0,3.1986,0.0,0.0,0.0,3.2503,3.2515,3.2959,3.302,3.2816,3.4643,3.5568,3.5821,3.7241,3.6653,3.4697,3.4489,3.291,3.0656,3.0731,3.0385,2.9897,3.0542,3.0366,2.9882,0.0,0.0,0.0,0.0,0.0,0.0,0.0,3.7351,0.0,3.7337,3.754,3.7728,3.7728,3.7743,3.7585,3.7153,3.6462,3.6164,3.6464,3.5674,3.5719,3.6894,3.6641,0.0,3.5161,3.5622,3.5192,3.3811,0.0,0.0,0.0,0.0,0.0,0.0,0.0,3.5572,0.0,0.0,0.0,3.3378,3.293,3.237,3.1876,3.2451,3.2677,3.2692,3.3002,3.2903,3.2715,3.3002,3.3102,3.3102,3.3102,3.3102,3.3102,3.3102,3.3102,3.3102,3.3102,3.3102,3.3102,3.3102,3.3102,3.3102,3.3102,3.3102,3.3102,3.3102,3.3102,3.2939,3.2416,3.2318,0.0,0.0,0.0,0.0,0.0,0.0,0.0,0.0,0.0,0.0,0.0,0.0,0.0,0.0,0.0,0.0,0.0,0.0,0.0,0.0,0.0,0.0,0.0,0.0,0.0,3.3285,3.3825,3.409,3.4138,3.5063,3.5491,3.5524,3.5945,3.514,3.3462,3.2835,3.178,3.0557,3.0537,3.0278,2.9936,3.0155,2.9809,2.9326,0.0,3.7434,0.0,0.0,3.69,0.0,3.7221,3.7816,3.8028,3.7554,3.7482,3.7482,3.7482,3.7801,3.7794,3.7261,3.6692,3.6598,3.7181,3.6158,3.6326,3.8117,3.7539,3.6978,3.6521,3.6379,3.574,0.0,0.0,0.0,0.0,0.0,0.0,0.0,0.0,0.0,0.0,0.0,3.3857,3.3819,3.327,3.2788,3.2441,3.2916,3.3102,3.3102,3.3102,3.3102,3.3102,3.3102,3.3102,3.3102,3.3102,3.3102,3.3102,3.3102,3.3102,3.3102,3.3102,3.3102,3.3102,3.3102,3.3102,3.3102,3.3102,3.3102,3.3102,3.3102,3.2928,3.2481,3.1492,3.1303,0.0,0.0,0.0,0.0,0.0,0.0,0.0,0.0,0.0,0.0,0.0,0.0,0.0,0.0,0.0,0.0,0.0,0.0,0.0,0.0,0.0,3.3356,3.3452,0.0,3.4006,3.3994,3.4317,3.466,3.5051,3.4948,3.495,3.4983,3.4588,3.3744,3.2614,3.1402,3.083,3.0713,3.0449,3.0176,2.9912,2.9784,2.9316,2.8893,0.0,0.0,0.0,0.0,0.0,0.0,0.0,3.7816,3.8188,3.813,3.813,3.813,3.813,3.767,3.7258,3.6955,3.709,3.7121,3.6959,3.7529,3.7979,3.8193,3.8127,3.7799,3.7221,3.6611,3.5967,0.0,0.0,0.0,0.0,0.0,0.0,0.0,0.0,0.0,0.0,3.5853,3.5121,3.3761,3.429,3.3916,3.3027,3.3077,3.3102,3.3102,3.3102,3.3102,3.3102,3.3102,3.3102,3.3102,3.3102,3.3102,3.3102,3.3102,3.3102,3.3102,3.3102,3.3102,3.3102,3.3102,3.3102,3.3102,3.3102,3.3102,3.3102,3.3102,3.2373,3.1447,3.0509,3.0328,3.0034,0.0,0.0,0.0,0.0,0.0,0.0,0.0,0.0,0.0,0.0,3.2548,0.0,0.0,3.2084,0.0,0.0,0.0,0.0,3.1778,0.0,3.3501,3.3934,3.3982,3.4006,3.3982,3.3562,3.3347,3.3328,3.3253,3.3424,3.3797,3.4215,3.3744,3.2614,3.1402,3.0659,3.0303,3.0688,3.0098,2.9117,2.9863,2.9389,2.849,0.0,0.0,0.0,0.0,0.0,0.0,0.0,3.8043,3.8202,3.8202,3.8202,3.8202,3.8202,3.7975,3.7801,3.7687,3.7774,3.7792,3.7687,3.8009,3.8202,3.8202,3.8202,3.7926,3.7308,3.7041,3.6411,0.0,0.0,0.0,0.0,0.0,0.0,0.0,0.0,3.5825,3.5932,3.581,3.5181,3.4327,3.459,3.4056,3.3102,3.3102,3.3102,3.3102,3.3102,3.3102,3.3102,3.3102,3.3102,3.3102,3.3102,3.3102,3.3102,3.3102,3.3102,3.3102,3.3102,3.3102,3.3102,3.3102,3.3102,3.3102,3.3102,3.3102,3.3102,3.3102,3.2296,3.1125,2.9589,2.9302,2.9164,0.0,0.0,0.0,0.0,0.0,0.0,0.0,0.0,0.0,0.0,3.1575,3.1928,0.0,0.0,0.0,0.0,0.0,0.0,3.3056,0.0,3.3345,3.4462,3.4799,3.46,3.3885,3.4319,3.4129,3.3391,3.299,3.2514,3.1995,3.2217,3.1889,3.1165,3.0684,3.0229,2.9862,3.0058,2.9609,2.898,2.9614,2.935,2.8775,3.8293,0.0,3.7738,0.0,3.7888,3.7709,3.813,3.8202,3.8202,3.8202,3.8202,3.8202,3.8202,3.8202,3.8202,3.8202,3.8202,3.8202,3.8202,3.8202,3.8202,3.8202,3.8202,0.0,3.7569,3.7395,3.6765,3.5659,3.6083,0.0,0.0,0.0,0.0,0.0,3.5587,3.5645,3.6019,3.5767,3.5435,3.5071,3.5003,3.4361,3.3441,3.3197,3.3102,3.3102,3.3102,3.3102,3.3102,3.3102,3.3102,3.3102,3.3102,3.3102,3.3102,3.3102,3.3102,3.3102,3.3102,3.3102,3.3102,3.3102,3.3102,3.3102,3.3102,3.3102,3.3015,3.2722,3.1867,3.0677,2.9014,2.8468,2.8292,2.8292,0.0,0.0,0.0,0.0,0.0,0.0,3.085,3.0775,3.0276,3.0942,3.1435,0.0,0.0,0.0,0.0,0.0,0.0,0.0,0.0,0.0,0.0,3.5328,3.5169,3.4327,3.4585,3.4318,3.3568,3.2613,3.1701,3.0889,3.0742,3.0512,3.0185,3.0068,2.9862,2.9598,2.9598,2.932,2.8961,2.9428,2.9301,2.9029,3.8297,3.8292,3.827,3.8211,3.8188,3.8188,3.8202,3.8202,3.8202,3.8202,3.8202,3.8202,3.8202,3.8202,3.8202,3.8202,3.8202,3.8202,3.8202,3.8202,3.8202,0.0,0.0,3.8202,3.8188,3.7607,3.6974,3.6292,0.0,0.0,3.5407,0.0,3.5976,3.5407,3.5392,3.5392,3.545,3.6048,3.6178,3.5961,3.5702,3.5105,3.4293,3.3432,3.3102,3.3102,3.3102,3.3102,3.3102,3.3102,3.3102,3.3102,3.3102,3.3102,3.3102,3.3102,3.3102,3.3102,3.3102,3.3102,3.3102,3.3102,3.3102,3.3102,3.3102,3.3102,3.282,3.1824,3.0879,2.9909,2.8887,2.7939,2.7321,2.7321,0.0,0.0,0.0,0.0,0.0,0.0,3.2005,3.1466,3.0395,3.0848,0.0,0.0,0.0,0.0,0.0,0.0,0.0,3.1742,3.3188,0.0,3.4799,3.5328,3.5592,3.5555,3.3854,3.3232,3.3541,3.1738,3.0903,3.0869,3.04,3.0205,3.0166,2.9774,2.9598,2.9598,2.9598,2.932,2.8961,2.9428,2.9301,2.9029,3.8227,3.8225,3.8225,3.8196,3.8202,3.8202,3.8202,3.8202,3.8202,3.8202,3.8202,3.8202,3.8202,3.8202,3.8202,0.0,3.8202,3.8202,0.0,3.8202,3.8202,3.8202,3.8202,3.8202,3.8202,3.8014,3.7607,3.6974,0.0,0.0,0.0,3.6896,3.6635,3.6005,3.6005,3.6266,3.6716,3.6896,3.649,3.5715,3.5637,3.4756,3.3486,3.3208,3.3102,3.3102,3.3102,3.3102,3.3102,3.3102,3.3102,3.3102,3.3102,3.3102,3.3102,3.3102,3.3102,3.3102,3.3102,3.3102,3.3102,3.3102,3.3102,3.3102,3.3102,3.257,3.1813,3.0834,2.9863,2.8974,2.8283,2.7686,2.7391,2.7665,2.7735,0.0,0.0,0.0,0.0,0.0,3.0726,3.0333,0.0,3.0171,0.0,0.0,0.0,0.0,0.0,0.0,0.0,0.0,3.3429,0.0,3.5328,3.5881,3.592,3.5451,3.4441,3.3022,3.1281,3.1011,3.0737,3.043,3.0596,3.0337,2.9784,2.9657,2.9256,2.8715,2.8715,2.8613,2.8584,2.9334,2.951,2.9506,3.8202,3.8202,3.8202,3.8202,3.8202,3.8202,3.8202,3.8202,3.8202,3.8202,3.8202,3.8202,3.8202,3.8202,0.0,3.8202,3.8202,3.8202,3.8202,3.8202,3.8202,3.8202,3.8202,3.8202,3.8202,0.0,0.0,3.7293,3.7433,3.7293,3.6916,3.6916,3.6698,3.6292,3.6292,3.6669,3.7293,3.7293,3.702,3.6513,3.5855,3.4969,3.3974,3.3334,3.3102,3.3102,3.3102,3.3102,3.3102,3.3102,3.3102,3.3102,3.3102,3.3102,3.3102,3.3102,3.3102,3.3102,3.3102,3.3102,3.3102,3.3102,3.3102,3.3102,3.3102,3.2318,3.1325,3.0396,2.954,2.8753,2.8032,2.7696,2.7615,2.7858,2.7865,2.8167,2.9159,0.0,0.0,0.0,0.0,0.0,0.0,3.0185,3.0407,0.0,0.0,0.0,0.0,0.0,0.0,3.3429,3.3717,0.0,3.5592,3.6338,3.625,3.5386,3.4106,3.2259,2.9985,3.0278,3.0337,3.0205,3.0356,3.0092,2.9588,2.9408,2.893,2.8304,2.8304,2.8389,2.8613,2.933,2.9706,2.994,3.8202,3.8202,0.0,0.0,3.8202,0.0,3.8202,3.8202,3.8202,3.8202,3.8202,3.8202,3.8202,3.8202,3.8202,3.8202,0.0,0.0,0.0,3.8202,3.8202,3.8202,3.8202,3.8202,3.8202,3.8202,3.7917,3.7366,3.6742,3.6437,3.6437,3.6437,3.6437,3.6437,3.6437,3.6771,3.7366,3.7366,3.7657,3.7962,3.6287,3.5578,3.5335,3.3713,3.3102,3.3102,3.3102,3.3102,3.3102,3.3102,3.3102,3.3102,3.3102,3.3102,3.3102,3.3102,3.3102,3.3102,3.3102,3.3102,3.3102,3.3102,3.3102,3.3102,3.3153,3.2313,3.1307,3.0489,2.9794,2.9068,2.8154,2.7972,2.7966,2.8039,2.8401,2.885,2.9291,0.0,0.0,0.0,0.0,0.0,0.0,3.0744,3.0936,0.0,0.0,0.0,0.0,0.0,3.3633,3.2695,3.4114,3.5171,3.5713,3.6622,3.6439,3.5135,3.3009,3.1143,2.9559,2.9618,2.9828,3.0137,2.975,2.9598,2.9559,2.9092,2.8658,2.8301,2.833,2.8574,2.8961,2.9457,2.9877,3.0264,0.0,0.0,3.8202,3.8202,3.8202,3.8202,3.8202,3.8202,3.8202,3.8202,3.8202,3.8202,3.8202,3.8202,3.8202,3.8202,3.8202,3.8202,3.8202,3.8202,3.8202,3.8202,3.8202,3.8202,3.8202,3.8202,3.813,3.7984,3.7839,3.7743,3.7743,3.7743,3.7743,3.7743,3.7743,3.7839,3.7984,3.7984,3.769,3.7111,3.6039,3.5227,3.4569,3.3494,3.3102,3.3102,3.3102,3.3102,3.3102,3.3102,3.3102,3.3102,3.3102,3.3102,3.3102,3.3102,3.3102,3.3102,3.3102,3.3102,3.3102,3.3102,3.3102,3.3203,3.3619,3.2293,3.1055,3.1296,2.9976,2.8829,2.8956,2.8678,2.869,2.9452,2.9043,2.891,2.9721,2.9932,0.0,0.0,3.1107,3.1195,3.0868,3.1007,3.1243,0.0,0.0,0.0,0.0,3.4066,3.4511,3.4258,3.54,3.6278,3.6819,3.6165,3.4813,3.28,3.2257,3.0966,2.9092,2.9746,2.9946,2.9745,2.9647,2.9598,2.9559,2.9092,2.8658,2.833,2.8643,2.8824,2.8986,2.9766,3.0122,3.0264,3.8202,3.8202,3.8202,3.8202,3.8202,3.8202,3.8202,3.8202,3.8202,3.8202,3.8202,3.8202,3.8202,3.8202,3.8202,3.8202,3.8202,3.8202,3.8202,3.8202,3.8202,3.8202,3.8202,3.8202,3.8202,3.8202,3.8202,3.8202,3.8202,3.8202,3.8202,3.8202,3.8202,3.8202,3.8202,3.8202,3.8202,3.8202,3.7691,3.6815,3.5949,3.5128,3.4304,3.342,3.3102,3.3102,3.3102,3.3102,3.3102,3.3102,3.3102,3.3102,3.3102,3.3102,3.3102,3.3102,3.3102,3.3102,3.3102,3.3102,3.3102,3.3102,3.328,3.34,3.3212,3.2153,3.1176,3.1007,2.9873,2.8998,2.9247,2.8916,2.8931,2.9943,2.9285,2.9057,3.0198,3.0368,0.0,3.0923,3.1436,3.1641,3.131,3.1746,3.2107,3.2221,3.2915,0.0,3.3958,3.4739,3.5051,3.4811,3.5845,3.6543,3.6831,3.5159,3.3444,3.1719,3.1175,3.0318,2.9238,2.9711,2.9813,2.9598,2.9598,2.9598,2.9559,2.9092,2.8766,2.8603,2.8814,2.9029,2.9297,2.9951,3.0346,3.0561,3.8202,3.8202,3.8202,3.8202,3.8202,3.8202,3.8202,3.8202,3.8202,3.8202,3.8202,3.8202,3.8202,3.8202,3.8202,3.8202,3.8202,3.8202,3.8202,3.8202,3.8202,3.8202,3.8202,3.8202,3.8202,3.8202,3.8202,3.8202,3.8202,3.8202,3.8202,3.8202,3.8202,3.8202,3.8202,3.8202,3.8202,3.8202,3.7691,3.6815,3.5949,3.5128,3.4304,3.342,3.3102,3.3102,3.3102,3.3102,3.3102,3.3102,3.3102,3.3102,3.3102,3.3102,3.3102,3.3102,3.3102,3.3102,3.3102,3.3153,3.3228,3.3228,3.3621,3.3758,3.2783,3.2288,3.1775,3.0777,3.0074,2.9701,2.9867,2.9236,2.9104,3.0347,2.9619,2.9386,3.0806,0.0,3.1144,3.148,3.2035,3.226,3.1908,3.282,3.3278,3.2874,3.3753,3.4475,3.4895,3.5424,3.5508,3.5063,3.5929,3.6309,3.6132,3.3999,3.2394,3.1356,3.0177,2.9559,2.95,2.9627,2.9618,2.95,2.9569,2.9598,2.9569,2.917,2.901,2.901,2.9078,2.9336,2.9745,3.0146,3.0561,3.0903,3.8202,3.8202,3.8202,3.8202,3.8202,3.8202,3.8202,3.8202,3.8202,3.8202,3.8202,3.8202,3.8202,3.8202,3.8202,3.8202,3.8202,3.8202,3.8202,3.8202,3.8202,3.8202,3.8202,3.8202,3.8202,3.8202,3.8202,3.8202,3.8202,3.8202,3.8202,3.8202,3.8202,3.8202,3.8202,3.8202,3.8202,3.8202,3.7691,3.6815,3.5949,3.5128,3.4304,3.342,3.3102,3.3102,3.3102,3.3102,3.3102,3.3102,3.3102,3.3102,3.3102,3.3102,3.3102,3.3102,3.3102,3.3102,3.3102,3.3431,3.3782,3.3782,3.4175,3.4429,3.3868,3.3695,3.3469,3.2842,3.1928,3.1527,3.2437,3.0729,2.9951,3.2265,3.1044,3.0311,3.1782,0.0,3.2009,3.2068,3.28,3.3379,3.3591,3.4124,3.4465,3.4438,3.5211,3.5622,3.5472,3.5977,3.623,3.6145,3.6302,3.5915,3.4888,3.3296,3.2072,3.1223,3.0121,2.9389,2.9029,2.9766,2.9707,2.9029,2.9428,2.9598,2.9588,2.953,2.9487,2.953,2.9877,3.0039,3.0156,3.0615,3.0845,3.0903,3.8739,3.8739,3.8739,3.8739,3.8739,3.8739,3.8739,3.8739,3.8739,3.8739,3.842,3.8202,3.8202,3.8522,3.8594,3.8231,3.8536,3.8594,3.8217,3.8202,3.8202,3.8202,3.8202,3.8202,3.8202,3.887,3.8884,3.8202,3.8556,3.8551,3.8202,3.8202,3.8391,3.8725,3.8352,3.8405,3.871,3.8352,3.7429,3.6158,3.5755,3.4841,3.3654,3.3251,3.3102,3.3102,3.3102,3.3102,3.3102,3.3102,3.3102,3.3102,3.3102,3.3102,3.3102,3.3102,3.3293,3.3531,3.3531,3.3922,3.4338,3.4338,3.4728,3.4928,3.417,3.4222,3.4197,3.3378,3.2813,3.2613,3.3113,3.1771,3.1242,3.3256,3.2046,0.0,0.0,3.3119,3.3119,3.3119,3.3976,3.4648,3.4845,3.5056,3.5197,3.5232,3.5318,3.5548,3.6014,3.5989,3.623,3.6807,3.6266,3.5424,3.4291,3.2738,3.171,3.1196,3.0107,2.9594,2.9605,3.0019,2.9712,2.8932,2.9399,2.9598,2.9598,2.9598,2.9735,2.9946,3.0141,3.0195,3.0254,3.0737,3.0903,3.0903,3.9175,3.9204,3.9247,3.9378,3.9407,3.9407,3.9407,3.9407,3.9407,3.9407,3.8957,3.8638,3.8638,3.9102,3.9204,3.8696,3.8986,3.8986,3.8463,3.8434,3.8352,3.8217,3.8347,3.8507,3.8638,3.9596,3.9552,3.8434,3.9088,3.9063,3.8434,3.858,3.8841,3.9175,3.8657,3.8638,3.8928,3.842,3.7309,3.5889,3.5675,3.4715,3.3379,3.3188,3.3102,3.3102,3.3102,3.3102,3.3102,3.3102,3.3102,3.3102,3.3102,3.3102,3.3102,3.3102,3.3569,3.406,3.3935,3.4288,3.4728,3.4853,3.5305,3.5438,3.4424,3.4703,3.4872,3.3796,3.3573,3.3695,3.4059,3.2899,3.2426,3.4087,0.0,0.0,0.0,3.3897,3.3947,3.4073,3.4872,3.5499,3.5679,3.5683,3.5685,3.5692,3.5365,3.5484,3.6182,3.6061,3.629,3.6988,3.6085,3.5069,3.396,3.249,3.1617,3.135,3.027,2.9897,3.0205,3.0303,2.9893,2.9088,2.9653,2.9843,2.9755,2.9862,3.0082,3.0361,3.0361,3.0361,3.0415,3.0776,3.0903,3.0903,3.9088,3.9204,3.9378,3.9939,4.0031,4.0031,4.0031,4.0031,4.0031,4.0031,3.9987,3.9968,3.9968,4.0002,4.0002,3.9958,3.9494,3.9175,3.9131,3.9131,3.8855,3.8231,3.8788,3.9392,3.9954,4.0046,3.9784,3.9131,3.9741,3.9712,3.9146,3.9697,3.9683,3.9204,3.9146,3.8812,3.8275,3.8217,3.7653,3.6727,3.5929,3.5087,3.422,3.3411,3.3102,3.3102,3.3102,3.3102,3.3102,3.3102,3.3102,3.3102,3.3102,3.3102,3.3102,3.3102,3.3822,3.4527,3.4024,3.4288,3.4828,3.5319,3.5893,3.6046,3.4981,3.5547,3.5978,3.4896,3.4678,3.5138,3.6624,3.4449,3.3086,3.5064,0.0,0.0,3.3752,3.3897,3.4074,3.4577,3.4985,3.5418,3.5918,3.5966,3.5965,3.5964,3.6163,3.6097,3.5689,3.6567,3.6892,3.6471,3.5905,3.5031,3.3833,3.2709,3.2046,3.1836,3.0704,3.0166,3.0215,3.0659,3.0366,2.9598,3.0444,3.0561,3.0185,3.0615,3.0825,3.0854,3.0854,3.0854,3.084,3.0893,3.0903,3.0903,4.0321,4.0379,4.0452,4.067,4.0713,4.0713,4.0713,4.0713,4.0713,4.0713,4.036,4.0104,4.0104,4.0466,4.0554,4.0142,4.0263,4.0205,3.9784,3.9755,3.9639,3.9392,4.0017,4.0292,4.0104,4.0902,4.0641,3.9204,3.9799,3.9581,3.857,3.8812,3.903,3.9175,3.8768,3.8667,3.8797,3.8376,3.739,3.6058,3.5725,3.4787,3.3571,3.3229,3.3102,3.3102,3.3102,3.3102,3.3102,3.3102,3.3102,3.3102,3.3102,3.3102,3.3165,3.3494,3.3884,3.43,3.4766,3.5304,3.5804,3.6005,3.623,3.6298,3.5894,3.6108,3.6287,3.5882,3.5786,3.598,3.6598,3.5419,3.473,3.5876,0.0,3.4083,3.4784,3.488,3.4922,3.4997,3.5714,3.6144,3.6015,3.6002,3.5927,3.5753,3.5534,3.546,3.5592,3.6615,3.7109,3.6904,3.6699,3.5695,3.3821,3.3067,3.2418,3.1887,3.074,3.0195,3.0205,3.0381,3.0151,2.9627,3.021,3.0361,3.0249,3.0718,3.0903,3.0903,3.0903,3.0903,3.0903,3.0903,3.0903,3.0903,4.1072,4.1091,4.1163,4.1381,4.141,4.141,4.141,4.141,4.141,4.141,4.1004,4.0728,4.0728,4.1144,4.1221,4.0771,4.097,4.0902,4.0437,4.0408,4.0408,4.0408,4.0844,4.0974,4.0728,4.1628,4.1236,3.9479,4.0104,3.9755,3.8522,3.871,3.8942,3.9175,3.8725,3.8652,3.8855,3.8405,3.7347,3.5979,3.5705,3.4756,3.3486,3.3197,3.3102,3.3102,3.3102,3.3102,3.3102,3.3102,3.3102,3.3102,3.3102,3.3215,3.3456,3.3986,3.4262,3.459,3.5531,3.6081,3.6393,3.6393,3.6393,3.6393,3.6393,3.6393,3.6393,3.6393,3.6393,3.6506,3.6833,3.6295,3.5969,3.6569,3.5855,3.5304,3.547,3.5589,3.5608,3.5468,3.6102,3.6368,3.5917,3.5868,3.5758,3.55,3.5209,3.5352,3.6061,3.6795,3.7205,3.7205,3.7361,3.6262,3.377,3.3371,3.2839,3.2132,3.0963,3.042,3.042,3.042,3.0268,3.0014,3.0307,3.042,3.0439,3.0776,3.0903,3.0903,3.0903,3.0903,3.0903,3.0903,3.0903,3.0903,4.0974,4.1105,4.1323,4.1976,4.2092,4.2117,4.2092,4.2092,4.2117,4.2092,4.2092,4.2092,4.2092,4.2092,4.2092,4.2092,4.1497,4.1105,4.1105,4.1105,4.1115,4.1091,4.1115,4.1424,4.2092,4.2092,4.1449,4.0089,4.0767,4.0437,3.9204,3.9799,3.977,3.9189,3.9189,3.8826,3.8193,3.8193,3.7672,3.6796,3.5939,3.5118,3.4293,3.3432,3.3102,3.3102,3.3102,3.3102,3.3102,3.3102,3.3102,3.3102,3.3102,3.3468,3.401,3.454,3.508,3.5632,3.6243,3.6393,3.6406,3.6406,3.6393,3.6393,3.6406,3.6393,3.6393,3.6393,3.6393,3.6732,3.7789,3.7122,3.6569,3.711,3.6757,3.6193,3.5595,3.5785,3.6003,3.6003,3.6003,3.5884,3.562,3.5596,3.5488,3.5223,3.5439,3.6074,3.7145,3.7205,3.7205,3.7217,3.7722,3.6585,3.3653,3.3612,3.3294,3.2671,3.1465,3.0903,3.0903,3.0903,3.0903,3.0903,3.0903,3.0903,3.0903,3.0903,3.0903,3.0903,3.0903,3.0903,3.0903,3.0903,3.0903,3.0903,4.1758,4.1802,4.186,4.2063,4.2451,4.2596,4.2165,4.2465,4.2571,4.216,4.2092,4.2092,4.2092,4.2092,4.2092,4.2092,4.2295,4.2436,4.2436,4.2044,4.1584,4.112,4.1555,4.1903,4.2092,4.1642,4.0757,3.9465,3.9668,3.9334,3.8507,3.8681,3.8667,3.8507,3.8507,3.8054,3.7285,3.7285,3.6452,3.5124,3.4868,3.4249,3.3464,3.3197,3.3102,3.3102,3.3102,3.3102,3.3102,3.3102,3.3102,3.3165,3.3544,3.3771,3.4085,3.4993,3.5668,3.6168,3.6355,3.6669,3.6959,3.6959,3.6682,3.6494,3.6883,3.6669,3.6393,3.6393,3.6393,3.6494,3.6808,3.6619,3.6456,3.6607,3.6506,3.6343,3.6156,3.6223,3.6133,3.5764,3.5716,3.5536,3.5078,3.5042,3.5005,3.4932,3.5341,3.5905,3.6603,3.7001,3.736,3.7746,3.7915,3.7173,3.5448,3.4577,3.323,3.1436,3.1078,3.0903,3.0903,3.0903,3.0903,3.0903,3.0903,3.0903,3.0903,3.0903,3.0903,3.0903,3.0903,3.0903,3.0903,3.0903,3.0903,3.0903,4.2407,4.2465,4.2538,4.2814,4.3148,4.3268,4.2915,4.2944,4.2959,4.2872,4.2625,4.2567,4.2818,4.2857,4.2745,4.2469,4.2571,4.2756,4.2977,4.219,4.1754,4.1856,4.1497,4.1308,4.1308,4.0902,4.0205,3.9204,3.9204,3.8855,3.8202,3.8202,3.8202,3.8202,3.8202,3.7915,3.7395,3.7053,3.6116,3.4844,3.453,3.3886,3.3102,3.3102,3.3102,3.3102,3.3102,3.3241,3.338,3.3178,3.3241,3.3544,3.43,3.47,3.5063,3.5919,3.6584,3.7034,3.7034,3.7274,3.7575,3.7813,3.7122,3.6544,3.7085,3.6795,3.6456,3.6669,3.6544,3.6456,3.6682,3.6544,3.6468,3.6682,3.672,3.6644,3.6431,3.6486,3.6322,3.5681,3.5596,3.538,3.4848,3.4908,3.5089,3.5412,3.5929,3.6471,3.7,3.7336,3.7662,3.7987,3.7548,3.6706,3.5496,3.4319,3.302,3.161,3.1136,3.0903,3.0903,3.0903,3.0903,3.0903,3.0903,3.0903,3.0903,3.0903,3.0903,3.0903,3.0903,3.0903,3.0903,3.0903,3.0903,3.0903,4.2886,4.3046,4.3278,4.3888,4.4048,4.4062,4.4019,4.3482,4.3293,4.3845,4.338,4.3235,4.3845,4.3961,4.3757,4.3148,4.2596,4.2538,4.3133,4.1986,4.1769,4.2861,4.1163,4.0191,4.0191,4.0075,3.9712,3.9117,3.9117,3.8797,3.8202,3.8202,3.8202,3.8202,3.8202,3.8165,3.8028,3.715,3.6281,3.5427,3.461,3.3812,3.3102,3.3102,3.3102,3.3102,3.3102,3.3406,3.3759,3.3318,3.3494,3.4098,3.523,3.5968,3.6506,3.7098,3.7663,3.8065,3.7965,3.7965,3.8115,3.8617,3.7599,3.6607,3.7148,3.6859,3.6607,3.7047,3.6745,3.6556,3.7047,3.6732,3.6556,3.7047,3.7135,3.6947,3.6433,3.6569,3.644,3.567,3.556,3.5356,3.4848,3.5054,3.555,3.6339,3.6892,3.7409,3.7903,3.7963,3.7999,3.7999,3.6825,3.5619,3.4419,3.3261,3.2642,3.2538,3.1421,3.0903,3.0903,3.0903,3.0903,3.0903,3.0903,3.0903,3.0903,3.0903,3.0903,3.0903,3.0903,3.0903,3.0903,3.0903,3.0903,3.0903,4.2963,4.3424,4.383,4.3964,4.4396,4.4552,4.4077,4.3874,4.3656,4.3264,4.309,4.3061,4.3206,4.3685,4.3946,4.3801,4.367,4.3845,4.4454,4.3293,4.2509,4.2295,4.1381,4.0873,4.0873,3.99,3.9073,3.842,3.842,3.8347,3.8202,3.8202,3.8202,3.8202,3.8202,3.782,3.7121,3.6247,3.541,3.4592,3.3738,3.3272,3.3102,3.3102,3.3102,3.3102,3.3102,3.3178,3.3329,3.3621,3.3796,3.4173,3.5728,3.6281,3.6594,3.755,3.8241,3.8517,3.7613,3.7676,3.7939,3.7638,3.7298,3.7173,3.7701,3.7412,3.6947,3.6644,3.6481,3.6443,3.6556,3.6481,3.6443,3.6556,3.6569,3.6461,3.6122,3.6151,3.5948,3.5368,3.5283,3.5163,3.4835,3.5233,3.5763,3.6362,3.6892,3.7253,3.7374,3.777,3.7999,3.7999,3.6825,3.5619,3.4419,3.3261,3.2223,3.1286,3.1034,3.0903,3.0903,3.0903,3.0903,3.0903,3.0903,3.0903,3.0903,3.0903,3.0903,3.0903,3.0903,3.0903,3.0903,3.0903,3.0903,3.0903,4.3787,4.4193,4.4527,4.4846,4.5166,4.5267,4.4948,4.4629,4.4295,4.3946,4.3656,4.3482,4.3482,4.3787,4.412,4.4396,4.4164,4.4266,4.4861,4.3438,4.2567,4.2538,4.1613,4.126,4.157,4.0612,3.9784,3.9102,3.9102,3.8957,3.8681,3.8681,3.8681,3.8657,3.8347,3.771,3.6835,3.5969,3.5149,3.4324,3.3454,3.3102,3.3102,3.3102,3.3102,3.3102,3.3102,3.3255,3.3644,3.4736,3.4901,3.4904,3.6331,3.6959,3.7274,3.7839,3.8617,3.9107,3.824,3.8228,3.8429,3.8404,3.819,3.8077,3.8366,3.7789,3.7186,3.7173,3.6758,3.6393,3.6393,3.6393,3.6393,3.6393,3.6287,3.6158,3.6027,3.5884,3.5656,3.5247,3.5199,3.5199,3.5184,3.5893,3.6483,3.6759,3.7289,3.7578,3.7578,3.7843,3.7735,3.7162,3.5975,3.4778,3.3603,3.2428,3.1523,3.0903,3.0903,3.0903,3.0903,3.0903,3.0903,3.0903,3.0903,3.0903,3.0903,3.0903,3.0903,3.0903,3.0903,3.0903,3.0903,3.0903,3.0903,3.0903,4.4687,4.4992,4.5238,4.579,4.5892,4.5892,4.5892,4.5325,4.489,4.489,4.4454,4.4149,4.4149,4.4149,4.4396,4.5021,4.4512,4.4411,4.5035,4.3409,4.2687,4.3307,4.2092,4.1739,4.2411,4.1758,4.1057,4.0263,4.0172,3.9842,3.9349,3.9247,3.9204,3.9175,3.8507,3.771,3.6835,3.5969,3.5149,3.4324,3.3454,3.3102,3.3102,3.3203,3.3241,3.3253,3.3341,3.372,3.4387,3.5778,3.5981,3.5857,3.6985,3.7638,3.8027,3.8128,3.8818,3.9421,3.8781,3.8605,3.8718,3.9157,3.8931,3.863,3.873,3.8027,3.7412,3.7663,3.7022,3.6393,3.6393,3.6358,3.6335,3.6335,3.611,3.592,3.5872,3.5668,3.544,3.5163,3.5211,3.5393,3.5714,3.6627,3.7241,3.7337,3.7746,3.7999,3.7999,3.7999,3.7455,3.6231,3.503,3.3857,3.2714,3.1494,3.0903,3.0903,3.0903,3.0903,3.0903,3.0903,3.0903,3.0903,3.0903,3.0903,3.0903,3.0903,3.0903,3.0903,3.0903,3.0903,3.0903,3.0903,3.0903,3.0903,4.4861,4.5369,4.579,4.5877,4.5892,4.5892,4.5892,4.5325,4.489,4.489,4.4832,4.4774,4.4774,4.4774,4.5035,4.5703,4.5151,4.505,4.5717,4.4498,4.4019,4.4614,4.3424,4.3061,4.3728,4.309,4.216,4.096,4.0379,4.007,3.9958,3.945,3.9204,3.9175,3.8507,3.771,3.6835,3.5969,3.5149,3.4324,3.3454,3.3102,3.3153,3.3619,3.3784,3.3847,3.4313,3.4828,3.5319,3.5545,3.5907,3.6469,3.755,3.794,3.8103,3.863,3.8881,3.8781,3.7725,3.7436,3.7449,3.7512,3.7475,3.755,3.8015,3.8002,3.7651,3.6783,3.6506,3.6393,3.6393,3.6204,3.6051,3.6051,3.5824,3.5572,3.5344,3.5283,3.5151,3.4896,3.5257,3.5738,3.623,3.6843,3.7398,3.7855,3.7951,3.7999,3.7999,3.7999,3.7455,3.6231,3.503,3.3857,3.2714,3.1494,3.0903,3.0903,3.0903,3.0903,3.0903,3.0903,3.0903,3.0903,3.0903,3.0903,3.0903,3.0903,3.0903,3.0903,3.0903,3.0903,3.0903,3.0903,3.0903,3.0903,4.5384,4.5703,4.5892,4.5892,4.5892,4.5892,4.5892,4.5645,4.5311,4.4948,4.4614,4.4251,4.3874,4.3845,4.4106,4.4774,4.457,4.4672,4.5296,4.4498,4.4266,4.4875,4.4033,4.3699,4.399,4.3351,4.2727,4.216,4.1536,4.1028,4.0641,4.0002,3.9462,3.8985,3.7933,3.6741,3.5477,3.5091,3.4444,3.3643,3.3251,3.3102,3.3153,3.3694,3.3897,3.401,3.4853,3.5306,3.5596,3.6234,3.6633,3.6984,3.7764,3.8228,3.8429,3.8065,3.8404,3.8655,3.7512,3.7198,3.7274,3.7563,3.7424,3.7261,3.75,3.755,3.7424,3.6947,3.6607,3.6393,3.6393,3.6181,3.6003,3.6003,3.5656,3.5332,3.5223,3.5066,3.5041,3.5232,3.5977,3.6591,3.6819,3.7324,3.7746,3.7975,3.7999,3.7999,3.7999,3.7363,3.6449,3.5223,3.4067,3.2888,3.1701,3.117,3.0903,3.0903,3.0903,3.0903,3.0903,3.0903,3.0903,3.0903,3.0903,3.0903,3.0903,3.0903,3.0903,3.0903,3.0903,3.0903,3.0903,3.0903,3.0903,3.0903]}]]